ftp/pub/palmer/observations_modified/2019/June/AR190620_BASE.txt

Download

Sample DateTime	Unit Id	WS Avg 2min	WD Avg 2min	WGS 10min	WGD 10min	Air Temp	Rel Humidity	Dew Point	Pyranometer	Quantum	Air Pressure	Snow Level	Rainfall	PW Current	Visibility	CBase 1	CBase 2	CBase 3	Vert Vis
2019/06/20  00:00:00  BASE  16.7521  82   20.3272  76   -3.8  82    -6.4  0     0     975.3    NA       0.0000   -SN      5000  7910  0    
2019/06/20  00:01:00  BASE  15.4291  82   20.3272  76   -3.8  83    -6.3  0     0     975.3    NA       0.0000   -SN      5000  6730  0    
2019/06/20  00:02:00  BASE  15.482   79   20.3272  76   -3.8  83    -6.3  0     0     975.2    NA       0.0000   -SN      6000  7710  0    
2019/06/20  00:03:00  BASE  16.6345  75   19.6333  73   -3.8  83    -6.3  0     0     975.1    NA       0.0000   -SN      7000  7320  0    
2019/06/20  00:04:00  BASE  16.4699  77   18.9983  79   -3.8  83    -6.2  0     0     975.1    NA       0.0000   -SN      7000  6990  0    
2019/06/20  00:05:00  BASE  15.6173  79   18.9983  79   -3.8  84    -6.1  0     0     975.1    NA       0.0000   -SN      7000  6920  0    
2019/06/20  00:06:00  BASE  15.2233  78   18.9983  79   -3.7  84    -6.1  0     0     975.0    NA       0.0000   -SN      7000  7380  0    
2019/06/20  00:07:00  BASE  15.435   77   18.9983  79   -3.6  84    -6.0  0     0     975.1    NA       0.0000   -SN      7000  7450  0    
2019/06/20  00:08:00  BASE  15.9642  79   18.8454  77   -3.6  84    -5.9  0     0     975.1    NA       0.0000   -SN      7000  7420  0    
2019/06/20  00:09:00  BASE  16.6345  81   19.9626  86   -3.6  84    -5.9  0     0     975.1    NA       0.0000   -SN      7000  7350  0    
2019/06/20  00:10:00  BASE  16.5052  82   19.9626  86   -3.6  84    -5.9  0     0     975.1    NA       0.0000   -SN      7000  7420  0    
2019/06/20  00:11:00  BASE  15.682   79   19.9626  86   -3.6  84    -5.9  0     0     975.1    NA       0.0000   -SN      7000  7190  0    
2019/06/20  00:12:00  BASE  15.6526  77   19.9626  86   -3.7  84    -5.9  0     0     975.1    NA       0.0000   -SN      7000  7420  0    
2019/06/20  00:13:00  BASE  15.6526  77   19.9626  86   -3.7  84    -5.9  0     0     975.1    NA       0.0000   -SN      7000  7220  0    
2019/06/20  00:14:00  BASE  15.8936  75   19.9626  86   -3.7  85    -5.9  0     0     975.0    NA       0.0000   -SN      BR    7000  7050 
2019/06/20  00:15:00  BASE  15.7702  76   19.9626  86   -3.6  85    -5.8  0     0     974.9    NA       0.0000   -SN      BR    7000  7380 
2019/06/20  00:16:00  BASE  14.3237  78   19.9626  86   -3.5  85    -5.7  0     0     975.0    NA       0.0000   -SN      BR    7000  7190 
2019/06/20  00:17:00  BASE  13.4182  77   19.9626  86   -3.5  85    -5.7  0     0     975.0    NA       0.0000   -SN      BR    8000  6790 
2019/06/20  00:18:00  BASE  13.5416  75   19.9626  86   -3.4  85    -5.6  0     0     975.0    NA       0.0000   -SN      BR    9999  7050 
2019/06/20  00:19:00  BASE  14.4178  75   18.2692  79   -3.4  84    -5.6  0     0     975.0    NA       0.0000   -SN      9000  6790  0    
2019/06/20  00:20:00  BASE  14.9352  78   18.2398  74   -3.4  84    -5.7  0     0     975.0    NA       0.0000   HZ       9000  6990  0    
2019/06/20  00:21:00  BASE  14.1649  80   18.2398  74   -3.4  84    -5.7  0     0     975.0    NA       0.0000   HZ       9000  6560  0    
2019/06/20  00:22:00  BASE  13.0124  79   18.2398  74   -3.4  84    -5.7  0     0     975.0    NA       0.0000   HZ       9999  6630  0    
2019/06/20  00:23:00  BASE  13.0654  79   18.2398  74   -3.4  84    -5.7  0     0     975.1    NA       0.0000   HZ       9999  7020  0    
2019/06/20  00:24:00  BASE  13.7592  78   17.2108  76   -3.4  84    -5.7  0     0     975.1    NA       0.0000   HZ       9000  6860  0    
2019/06/20  00:25:00  BASE  14.1355  78   16.2112  79   -3.4  84    -5.7  0     0     975.1    NA       0.0000   HZ       9000  6790  0    
2019/06/20  00:26:00  BASE  13.6534  78   16.2112  79   -3.4  84    -5.7  0     0     975.0    NA       0.0000   HZ       9000  6500  0    
2019/06/20  00:27:00  BASE  13.2888  77   16.2112  79   -3.4  84    -5.7  0     0     975.0    NA       0.0000   HZ       9000  6820  0    
2019/06/20  00:28:00  BASE  13.9944  77   16.364   70   -3.4  84    -5.7  0     0     975.0    NA       0.0000   HZ       9999  6960  0    
2019/06/20  00:29:00  BASE  14.653   76   16.8462  83   -3.4  84    -5.7  0     0     975.1    NA       0.0000   HZ       9000  7020  0    
2019/06/20  00:30:00  BASE  14.5177  79   16.8462  83   -3.4  84    -5.7  0     0     975.1    NA       0.0000   HZ       9000  7020  0    
2019/06/20  00:31:00  BASE  13.0771  84   16.8462  83   -3.4  84    -5.7  0     0     975.2    NA       0.0000   HZ       9000  6560  0    
2019/06/20  00:32:00  BASE  12.5479  85   16.8462  83   -3.4  84    -5.7  0     0     975.1    NA       0.0000   HZ       9000  6560  0    
2019/06/20  00:33:00  BASE  13.3064  84   16.8462  83   -3.4  84    -5.8  0     0     975.1    NA       0.0000   HZ       9999  6460  0    
2019/06/20  00:34:00  BASE  14.5706  84   17.2402  82   -3.4  84    -5.8  0     0     975.1    NA       0.0000   HZ       9999  6430  0    
2019/06/20  00:35:00  BASE  15.1175  85   17.2402  82   -3.4  84    -5.8  0     0     975.2    NA       0.0000   HZ       9999  6270  0    
2019/06/20  00:36:00  BASE  13.671   85   17.2402  82   -3.4  84    -5.8  0     0     975.2    NA       0.0000   HZ       9000  6590  0    
2019/06/20  00:37:00  BASE  12.0893  90   17.2402  82   -3.4  83    -5.9  0     0     975.4    NA       0.0000   HZ       8000  6630  0    
2019/06/20  00:38:00  BASE  13.0007  90   17.2402  82   -3.5  83    -5.9  0     0     975.3    NA       0.0000   HZ       7000  6400  0    
2019/06/20  00:39:00  BASE  14.1708  83   17.2402  82   -3.6  83    -6.0  0     0     975.1    NA       0.0000   HZ       7000  6460  0    
2019/06/20  00:40:00  BASE  13.5475  81   17.2402  82   -3.6  84    -6.0  0     0     975.2    NA       0.0000   HZ       7000  6100  0    
2019/06/20  00:41:00  BASE  12.6126  83   17.2402  82   -3.6  84    -6.0  0     0     975.2    NA       0.0000   HZ       8000  6370  0    
2019/06/20  00:42:00  BASE  12.3715  87   17.2402  82   -3.6  84    -6.0  0     0     975.3    NA       0.0000   HZ       9000  6400  0    
2019/06/20  00:43:00  BASE  12.6538  87   17.2402  82   -3.6  84    -5.9  0     0     975.1    NA       0.0000   HZ       9000  6630  0    
2019/06/20  00:44:00  BASE  13.5593  84   16.5169  82   -3.6  84    -5.9  0     0     975.3    NA       0.0000   HZ       9000  6730  0    
2019/06/20  00:45:00  BASE  14.7764  87   16.5169  82   -3.6  84    -5.9  0     0     975.3    NA       0.0000   HZ       8000  6270  0    
2019/06/20  00:46:00  BASE  14.012   86   16.5169  82   -3.7  84    -6.0  0     0     975.3    NA       0.0000   HZ       8000  6230  0    
2019/06/20  00:47:00  BASE  13.1536  84   16.5169  82   -3.7  84    -6.0  0     0     975.2    NA       0.0000   HZ       9000  6530  0    
2019/06/20  00:48:00  BASE  12.9184  84   16.5169  82   -3.7  84    -6.0  0     0     975.2    NA       0.0000   HZ       9000  6500  0    
2019/06/20  00:49:00  BASE  13.1888  84   16.5169  82   -3.7  84    -6.0  0     0     975.2    NA       0.0000   HZ       9000  6790  0    
2019/06/20  00:50:00  BASE  14.2178  82   16.5169  82   -3.7  85    -6.0  0     0     975.2    NA       0.0000   BR       8000  6760  0    
2019/06/20  00:51:00  BASE  14.4648  80   16.5169  82   -3.7  85    -5.9  0     0     975.2    NA       0.0000   BR       8000  6270  0    
2019/06/20  00:52:00  BASE  14.1708  82   16.5169  82   -3.7  85    -5.8  0     0     975.2    NA       0.0000   BR       8000  6400  0    
2019/06/20  00:53:00  BASE  13.8415  86   16.5169  82   -3.6  85    -5.8  0     0     975.3    NA       0.0000   BR       8000  6730  0    
2019/06/20  00:54:00  BASE  12.889   89   16.2112  85   -3.6  85    -5.8  0     0     975.4    NA       0.0000   BR       8000  6400  0    
2019/06/20  00:55:00  BASE  13.083   87   16.8815  78   -3.6  85    -5.8  0     0     975.4    NA       0.0000   BR       9000  6560  0    
2019/06/20  00:56:00  BASE  14.2237  87   17.0932  94   -3.7  85    -5.8  0     0     975.5    NA       0.0000   BR       7000  6500  0    
2019/06/20  00:57:00  BASE  13.8415  89   17.0932  94   -3.7  85    -5.9  0     0     975.5    NA       0.0000   -SN      BR    6000  6270 
2019/06/20  00:58:01  BASE  12.7655  91   17.0932  94   -3.7  85    -5.9  0     0     975.5    NA       0.0000   -SN      BR    7000  6100 
2019/06/20  00:59:00  BASE  11.9011  94   17.0932  94   -3.8  85    -5.9  0     0     975.5    NA       0.0000   -SN      BR    9000  6370 
2019/06/20  01:00:00  BASE  12.054   92   17.0932  94   -3.8  85    -6.0  0     0     975.4    NA       0.0000   -SN      BR    9000  6370 
2019/06/20  01:01:00  BASE  13.5946  91   17.0932  94   -3.9  85    -6.0  0     0     975.5    NA       0.0000   -SN      BR    8000  6400 
2019/06/20  01:02:00  BASE  13.6534  91   17.0932  94   -3.9  86    -6.0  0     0     975.5    NA       0.0000   -SN      BR    8000  6300 
2019/06/20  01:03:00  BASE  11.8952  93   17.0932  94   -3.9  86    -6.0  0     0     975.5    NA       0.0000   BR       9000  6140  0    
2019/06/20  01:04:00  BASE  11.0368  92   17.0932  94   -4.0  86    -6.0  0     0     975.4    NA       0.0000   BR       9000  6200  0    
2019/06/20  01:05:00  BASE  12.348   90   17.0932  94   -3.9  86    -5.9  0     0     975.4    NA       0.0000   BR       9000  6200  0    
2019/06/20  01:06:00  BASE  13.3123  90   16.2464  87   -3.9  86    -5.9  0     0     975.3    NA       0.0000   -SN      BR    8000  6500 
2019/06/20  01:07:00  BASE  13.2418  84   16.2464  87   -3.9  86    -5.9  0     0     975.2    NA       0.0000   BR       7000  6590  0    
2019/06/20  01:08:00  BASE  12.6361  86   16.2464  87   -3.9  86    -5.8  0     0     975.3    NA       0.0000   BR       7000  6270  0    
2019/06/20  01:09:00  BASE  12.1187  91   16.2464  87   -3.9  86    -5.8  0     0     975.1    NA       0.0000   BR       7000  6070  0    
2019/06/20  01:10:00  BASE  12.8243  87   16.2464  87   -3.9  87    -5.8  0     0     975.3    NA       0.0000   BR       9000  6200  0    
2019/06/20  01:11:00  BASE  13.183   84   15.8525  81   -3.9  87    -5.7  0     0     975.2    NA       0.0000   BR       8000  6460  0    
2019/06/20  01:12:00  BASE  13.1653  85   15.8525  81   -3.8  87    -5.7  0     0     975.3    NA       0.0000   BR       8000  6500  0    
2019/06/20  01:13:00  BASE  12.9419  89   15.8525  81   -3.8  87    -5.7  0     0     975.4    NA       0.0000   BR       8000  4360  0    
2019/06/20  01:14:00  BASE  12.3186  96   15.8525  81   -3.8  87    -5.7  0     0     975.5    NA       0.0000   BR       9000  6100  0    
2019/06/20  01:15:00  BASE  11.6189  94   15.8525  81   -3.8  86    -5.7  0     0     975.3    NA       0.0000   BR       9000  3770  0    
2019/06/20  01:16:00  BASE  11.9305  86   15.8525  81   -3.8  86    -5.7  0     0     975.3    NA       0.0000   BR       9000  5940  0    
2019/06/20  01:17:00  BASE  12.5656  84   15.4879  86   -3.8  86    -5.7  0     0     975.3    NA       0.0000   BR       9000  5910  0    
2019/06/20  01:18:00  BASE  13.0066  85   15.4879  86   -3.8  87    -5.7  0     0     975.3    NA       0.0000   BR       8000  5910  0    
2019/06/20  01:19:00  BASE  12.8772  88   15.4879  86   -3.8  87    -5.7  0     0     975.3    NA       0.0000   BR       8000  5970  0    
2019/06/20  01:20:00  BASE  13.3006  85   16.6698  87   -3.8  87    -5.6  0     0     975.2    NA       0.0000   BR       7000  5970  0    
2019/06/20  01:21:00  BASE  13.8415  83   16.6698  87   -3.8  87    -5.6  0     0     975.1    NA       0.0000   BR       7000  5770  0    
2019/06/20  01:22:00  BASE  12.6244  88   16.6698  87   -3.8  87    -5.6  0     0     975.3    NA       0.0000   BR       8000  5680  0    
2019/06/20  01:23:00  BASE  10.9074  98   16.6698  87   -3.7  87    -5.6  0     0     975.4    NA       0.0000   BR       9000  5610  0    
2019/06/20  01:24:00  BASE  9.89016  99   16.6698  87   -3.7  87    -5.7  0     0     975.3    NA       0.0000   BR       9000  5640  0    
2019/06/20  01:25:00  BASE  10.2665  91   16.6698  87   -3.7  87    -5.6  0     0     975.1    NA       0.0000   BR       9000  5380  0    
2019/06/20  01:26:00  BASE  11.6424  87   16.6698  87   -3.7  87    -5.6  0     0     975.0    NA       0.0000   BR       9000  5280  0    
2019/06/20  01:27:00  BASE  11.7247  88   16.6698  87   -3.7  87    -5.6  0     0     975.0    NA       0.0000   BR       9000  5480  0    
2019/06/20  01:28:00  BASE  11.3249  91   16.6698  87   -3.7  87    -5.6  0     0     975.1    NA       0.0000   BR       9000  5510  0    
2019/06/20  01:29:00  BASE  11.1896  98   16.6698  87   -3.6  87    -5.5  0     0     975.1    NA       0.0000   BR       9000  5710  0    
2019/06/20  01:30:00  BASE  11.1073  96   14.6412  84   -3.5  86    -5.5  0     0     975.2    NA       0.0000   BR       9999  5450  0    
2019/06/20  01:31:00  BASE  10.8368  88   13.7651  89   -3.5  86    -5.5  0     0     975.1    NA       0.0000   BR       9000  5580  0    
2019/06/20  01:32:00  BASE  11.2014  83   14.0944  80   -3.5  86    -5.5  0     0     975.0    NA       0.0000   BR       9999  6040  0    
2019/06/20  01:33:00  BASE  12.6596  81   14.6706  77   -3.5  86    -5.5  0     0     975.0    NA       0.0000   -SN      BR    8000  6040 
2019/06/20  01:34:00  BASE  12.6185  82   14.6706  77   -3.5  86    -5.6  0     0     975.0    NA       0.0000   -SN      BR    7000  5870 
2019/06/20  01:35:00  BASE  12.0187  87   14.6706  77   -3.6  86    -5.6  0     0     975.1    NA       0.0000   -SN      BR    7000  5540 
2019/06/20  01:36:00  BASE  11.5718  94   14.6706  77   -3.6  86    -5.6  0     0     975.2    NA       0.0000   -SN      BR    8000  6000 
2019/06/20  01:37:00  BASE  10.9074  96   14.6706  77   -3.6  86    -5.6  0     0     975.2    NA       0.0000   -SN      BR    8000  5940 
2019/06/20  01:38:00  BASE  10.6134  94   14.6706  77   -3.6  86    -5.6  0     0     975.2    NA       0.0000   -SN      BR    8000  6000 
2019/06/20  01:39:00  BASE  10.3312  95   14.6706  77   -3.6  86    -5.6  0     0     975.1    NA       0.0000   -SN      BR    9000  6400 
2019/06/20  01:40:00  BASE  9.6138   98   14.6706  77   -3.7  86    -5.7  0     0     975.1    NA       0.0000   -SN      BR    9000  7090 
2019/06/20  01:41:00  BASE  10.1254  94   14.6706  77   -3.7  86    -5.7  0     0     974.9    NA       0.0000   -SN      BR    9000  6630 
2019/06/20  01:42:00  BASE  12.1775  89   14.6706  77   -3.7  86    -5.7  0     0     974.8    NA       0.0000   -SN      BR    8000  6920 
2019/06/20  01:43:00  BASE  12.836   87   14.5471  87   -3.7  86    -5.7  0     0     974.9    NA       0.0000   -SN      BR    8000  7090 
2019/06/20  01:44:00  BASE  11.6483  86   14.5471  87   -3.7  86    -5.7  0     0     974.9    NA       0.0000   -SN      BR    8000  6690 
2019/06/20  01:45:00  BASE  10.8486  90   14.5471  87   -3.7  86    -5.7  0     0     974.9    NA       0.0000   -SN      BR    9000  6530 
2019/06/20  01:46:00  BASE  10.6134  94   14.5471  87   -3.6  86    -5.7  0     0     975.0    NA       0.0000   -SN      BR    9000  6530 
2019/06/20  01:47:00  BASE  10.4958  93   14.5471  87   -3.6  86    -5.7  0     0     974.9    NA       0.0000   BR       9000  6660  0    
2019/06/20  01:48:00  BASE  10.584   90   14.5471  87   -3.6  85    -5.7  0     0     974.8    NA       0.0000   BR       9000  6140  0    
2019/06/20  01:49:00  BASE  10.7016  88   14.5471  87   -3.6  85    -5.7  0     0     974.9    NA       0.0000   BR       9000  6560  0    
2019/06/20  01:50:00  BASE  10.9133  91   14.5471  87   -3.6  85    -5.7  0     0     975.0    NA       0.0000   BR       9000  6430  0    
2019/06/20  01:51:00  BASE  10.8251  92   14.5471  87   -3.6  85    -5.7  0     0     974.8    NA       0.0000   BR       9999  5870  0    
2019/06/20  01:52:00  BASE  10.19    93   14.5471  87   -3.6  85    -5.7  0     0     974.9    NA       0.0000   BR       9000  6530  0    
2019/06/20  01:53:00  BASE  10.2841  97   12.5538  90   -3.5  85    -5.7  0     0     974.9    NA       0.0000   BR       9000  8660  0    
2019/06/20  01:54:00  BASE  10.7075  97   12.5538  94   -3.5  85    -5.7  0     0     974.9    NA       0.0000   BR       9000  9020  0    
2019/06/20  01:55:00  BASE  11.2896  93   14.4295  98   -3.5  85    -5.7  0     0     974.9    NA       0.0000   BR       9000  9090  0    
2019/06/20  01:56:00  BASE  12.6479  92   15.2468  91   -3.5  85    -5.7  0     0     975.0    NA       0.0000   BR       9000  8920  0    
2019/06/20  01:57:00  BASE  12.889   93   15.2468  91   -3.6  85    -5.7  0     0     975.0    NA       0.0000   BR       9000  8730  0    
2019/06/20  01:58:00  BASE  12.2539  93   15.2468  91   -3.6  85    -5.8  0     0     974.9    NA       0.0000   BR       9000  5740  0    
2019/06/20  01:59:00  BASE  11.4836  93   15.2468  91   -3.6  85    -5.8  0     0     974.9    NA       0.0000   BR       8000  8270  0    
2019/06/20  02:00:00  BASE  10.9486  94   15.2468  91   -3.7  85    -5.8  0     0     975.0    NA       0.0000   BR       9000  8300  0    
2019/06/20  02:01:00  BASE  11.8776  92   15.2468  91   -3.7  85    -5.8  0     0     974.9    NA       0.0000   BR       9000  8300  0    
2019/06/20  02:02:00  BASE  13.0007  90   15.2468  91   -3.7  85    -5.8  0     0     975.0    NA       0.0000   BR       8000  6040  0    
2019/06/20  02:03:00  BASE  13.0183  89   15.2468  91   -3.7  85    -5.8  0     0     974.9    NA       0.0000   BR       8000  8370  0    
2019/06/20  02:04:00  BASE  12.5714  92   15.2468  91   -3.7  85    -5.9  0     0     974.9    NA       0.0000   BR       8000  8600  0    
2019/06/20  02:05:00  BASE  12.5597  94   15.2468  91   -3.7  85    -5.9  0     0     975.0    NA       0.0000   BR       8000  5540  0    
2019/06/20  02:06:00  BASE  13.571   88   15.2174  85   -3.7  85    -5.8  0     0     974.8    NA       0.0000   BR       7000  6000  0    
2019/06/20  02:07:00  BASE  13.0712  86   15.2174  85   -3.7  86    -5.8  0     0     974.9    NA       0.0000   BR       6000  8560  0    
2019/06/20  02:08:00  BASE  11.2132  90   15.2174  85   -3.7  86    -5.8  0     0     974.8    NA       0.0000   BR       7000  8560  0    
2019/06/20  02:09:00  BASE  10.4017  95   15.2174  85   -3.7  86    -5.7  0     0     974.8    NA       0.0000   BR       8000  8430  0    
2019/06/20  02:10:00  BASE  11.1955  96   15.2174  85   -3.6  85    -5.7  0     0     974.9    NA       0.0000   BR       9000  7090  0    
2019/06/20  02:11:00  BASE  12.4244  92   15.2174  85   -3.6  85    -5.8  0     0     974.8    NA       0.0000   BR       8000  6860  0    
2019/06/20  02:12:00  BASE  11.807   89   15.2174  85   -3.6  85    -5.8  0     0     974.7    NA       0.0000   BR       8000  6530  0    
2019/06/20  02:13:00  BASE  10.7486  91   15.2174  85   -3.6  85    -5.8  0     0     974.6    NA       0.0000   BR       8000  7050  0    
2019/06/20  02:14:00  BASE  10.1959  95   15.2174  85   -3.6  85    -5.7  0     0     974.7    NA       0.0000   BR       9000  7250  0    
2019/06/20  02:15:00  BASE  10.8545  95   15.2174  85   -3.5  85    -5.7  0     0     974.7    NA       0.0000   BR       8000  7220  0    
2019/06/20  02:16:00  BASE  11.4895  91   13.8827  87   -3.5  85    -5.7  0     0     974.6    NA       0.0000   BR       8000  8460  0    
2019/06/20  02:17:00  BASE  10.4899  89   13.8827  87   -3.5  85    -5.7  0     0     974.5    NA       0.0000   BR       8000  8330  0    
2019/06/20  02:18:00  BASE  9.66084  93   13.8827  87   -3.5  85    -5.7  0     0     974.6    NA       0.0000   BR       8000  8530  0    
2019/06/20  02:19:00  BASE  8.94348  96   13.8827  87   -3.5  84    -5.7  0     0     974.5    NA       0.0000   HZ       9000  9060  0    
2019/06/20  02:20:00  BASE  8.75532  96   13.8827  87   -3.5  84    -5.8  0     0     974.5    NA       0.0000   HZ       9000  8830  0    
2019/06/20  02:21:00  BASE  9.03756  94   13.4887  100  -3.5  84    -5.8  0     0     974.5    NA       0.0000   HZ       9000  7550  0    
2019/06/20  02:22:00  BASE  9.69024  91   13.4887  100  -3.5  84    -5.8  0     0     974.6    NA       0.0000   HZ       8000  8830  0    
2019/06/20  02:23:00  BASE  9.64908  91   13.4887  100  -3.5  84    -5.8  0     0     974.5    NA       0.0000   HZ       8000  8760  0    
2019/06/20  02:24:00  BASE  8.99052  88   13.4887  100  -3.5  84    -5.8  0     0     974.4    NA       0.0000   HZ       9000  8630  0    
2019/06/20  02:25:00  BASE  9.40212  88   12.0364  86   -3.5  84    -5.8  0     0     974.5    NA       0.0000   HZ       9000  7580  0    
2019/06/20  02:26:00  BASE  10.1606  88   12.9772  92   -3.5  84    -5.8  0     0     974.5    NA       0.0000   HZ       9000  8890  0    
2019/06/20  02:27:00  BASE  10.684   86   12.9772  92   -3.5  84    -5.8  0     0     974.5    NA       0.0000   HZ       9000  8920  0    
2019/06/20  02:28:00  BASE  10.2018  90   12.9772  92   -3.4  84    -5.8  0     0     974.7    NA       0.0000   HZ       9000  9120  0    
2019/06/20  02:29:00  BASE  9.81372  94   12.9772  92   -3.4  83    -5.8  0     0     974.6    NA       0.0000   HZ       8000  9060  0    
2019/06/20  02:30:00  BASE  9.60792  93   12.9772  92   -3.4  83    -5.8  0     0     974.6    NA       0.0000   HZ       9000  8920  0    
2019/06/20  02:31:00  BASE  9.33744  95   12.9772  92   -3.4  83    -5.9  0     0     974.6    NA       0.0000   HZ       9000  8790  0    
2019/06/20  02:32:00  BASE  9.79608  94   12.9772  92   -3.4  83    -5.9  0     0     974.6    NA       0.0000   HZ       8000  0     0    
2019/06/20  02:33:00  BASE  9.69024  92   12.9772  92   -3.4  83    -5.9  0     0     974.6    NA       0.0000   HZ       9000  0     0    
2019/06/20  02:34:00  BASE  9.07284  91   12.9772  92   -3.5  83    -5.9  0     0     974.6    NA       0.0000   HZ       9000  8920  0    
2019/06/20  02:35:00  BASE  8.87292  91   12.9772  92   -3.5  83    -5.9  0     0     974.6    NA       0.0000   HZ       9000  7680  0    
2019/06/20  02:36:00  BASE  8.2908   98   11.5248  92   -3.5  83    -5.9  0     0     974.6    NA       0.0000   HZ       9000  9190  0    
2019/06/20  02:37:00  BASE  8.31432  102  11.5248  92   -3.4  83    -5.9  0     0     974.6    NA       0.0000   HZ       9000  9190  0    
2019/06/20  02:38:00  BASE  9.79608  99   12.0716  104  -3.4  83    -5.8  0     0     974.6    NA       0.0000   HZ       8000  7640  9420 
2019/06/20  02:39:00  BASE  10.684   99   12.0716  104  -3.4  83    -5.8  0     0     974.6    NA       0.0000   HZ       8000  9580  0    
2019/06/20  02:40:00  BASE  10.6016  95   12.0716  104  -3.3  83    -5.8  0     0     974.5    NA       0.0000   HZ       9000  9380  0    
2019/06/20  02:41:00  BASE  10.7428  92   12.0716  104  -3.3  83    -5.8  0     0     974.6    NA       0.0000   HZ       9000  9120  0    
2019/06/20  02:42:00  BASE  9.72552  94   12.0716  104  -3.4  83    -5.9  0     0     974.5    NA       0.0000   HZ       9000  9020  0    
2019/06/20  02:43:00  BASE  8.64948  92   12.0716  104  -3.4  82    -6.0  0     0     974.5    NA       0.0000   HZ       8000  8960  0    
2019/06/20  02:44:00  BASE  9.10224  88   12.0716  104  -3.4  82    -6.0  0     0     974.5    NA       0.0000   HZ       8000  8920  0    
2019/06/20  02:45:00  BASE  10.5546  87   14.2472  89   -3.4  82    -6.0  0     0     974.6    NA       0.0000   HZ       9000  8830  0    
2019/06/20  02:46:00  BASE  11.6306  87   14.2472  89   -3.5  82    -6.0  0     0     974.6    NA       0.0000   HZ       8000  8990  0    
2019/06/20  02:47:00  BASE  11.2837  89   14.2472  89   -3.5  82    -6.0  0     0     974.5    NA       0.0000   HZ       8000  9020  0    
2019/06/20  02:48:00  BASE  11.1838  90   14.2472  89   -3.5  82    -6.0  0     0     974.5    NA       0.0000   HZ       8000  8860  0    
2019/06/20  02:49:00  BASE  11.6248  87   14.2472  89   -3.5  82    -6.1  0     0     974.4    NA       0.0000   HZ       8000  8730  0    
2019/06/20  02:50:00  BASE  11.6424  88   14.2472  89   -3.5  82    -6.1  0     0     974.5    NA       0.0000   HZ       8000  8760  0    
2019/06/20  02:51:00  BASE  11.219   92   14.2472  89   -3.6  82    -6.2  0     0     974.6    NA       0.0000   HZ       8000  9740  0    
2019/06/20  02:52:00  BASE  11.272   99   14.2472  89   -3.6  82    -6.2  0     0     974.7    NA       0.0000   HZ       8000  9290  0    
2019/06/20  02:53:00  BASE  11.7482  97   14.2472  89   -3.6  82    -6.2  0     0     974.5    NA       0.0000   HZ       8000  9150  0    
2019/06/20  02:54:00  BASE  10.8956  95   14.2472  89   -3.7  83    -6.2  0     0     974.5    NA       0.0000   HZ       7000  9150  0    
2019/06/20  02:55:00  BASE  9.62556  101  13.4299  88   -3.7  83    -6.2  0     0     974.5    NA       0.0000   HZ       8000  9220  0    
2019/06/20  02:56:00  BASE  9.1728   104  13.4299  88   -3.8  83    -6.2  0     0     974.4    NA       0.0000   HZ       8000  9290  0    
2019/06/20  02:57:00  BASE  9.3492   104  13.4299  88   -3.7  83    -6.1  0     0     974.5    NA       0.0000   HZ       8000  9190  0    
2019/06/20  02:58:00  BASE  10.3253  105  13.4299  88   -3.7  84    -6.1  0     0     974.6    NA       0.0000   HZ       8000  9190  0    
2019/06/20  02:59:00  BASE  10.7545  106  13.4299  88   -3.6  84    -6.0  0     0     974.5    NA       0.0000   HZ       8000  9220  0    
2019/06/20  03:00:00  BASE  10.2547  105  13.4299  88   -3.6  84    -5.9  0     0     974.4    NA       0.0000   HZ       8000  9190  0    
2019/06/20  03:01:00  BASE  10.0666  100  13.4299  88   -3.5  83    -5.9  0     0     974.5    NA       0.0000   HZ       8000  9220  0    
2019/06/20  03:02:00  BASE  9.67848  94   13.4299  88   -3.5  83    -5.9  0     0     974.5    NA       0.0000   HZ       8000  9190  0    
2019/06/20  03:03:00  BASE  9.11988  96   12.3421  103  -3.5  83    -6.0  0     0     974.5    NA       0.0000   HZ       8000  9220  0    
2019/06/20  03:04:00  BASE  9.35508  106  12.3421  103  -3.5  83    -6.0  0     0     974.6    NA       0.0000   HZ       8000  9250  0    
2019/06/20  03:05:00  BASE  9.14928  114  12.3421  103  -3.5  83    -5.9  0     0     974.5    NA       0.0000   HZ       8000  9250  0    
2019/06/20  03:06:00  BASE  8.7318   114  12.3421  103  -3.4  83    -5.9  0     0     974.5    NA       0.0000   HZ       8000  9220  0    
2019/06/20  03:07:00  BASE  7.9968   106  12.3421  103  -3.3  83    -5.9  0     0     974.4    NA       0.0000   HZ       8000  9290  0    
2019/06/20  03:08:00  BASE  7.67928  104  11.613   100  -3.3  82    -5.9  0     0     974.5    NA       0.0000   HZ       9000  9290  0    
2019/06/20  03:09:00  BASE  8.967    112  11.5542  95   -3.2  82    -5.8  0     0     974.6    NA       0.0000   HZ       8000  9290  0    
2019/06/20  03:10:00  BASE  9.37272  112  11.5542  95   -3.2  82    -5.9  0     0     974.6    NA       0.0000   HZ       8000  9320  0    
2019/06/20  03:11:00  BASE  8.7906   106  11.1014  124  -3.2  82    -5.9  0     0     974.5    NA       0.0000   HZ       8000  9320  0    
2019/06/20  03:12:00  BASE  8.526    103  11.1014  124  -3.2  81    -6.0  0     0     974.5    NA       0.0000   HZ       8000  9290  0    
2019/06/20  03:13:00  BASE  7.71456  105  11.1014  124  -3.2  81    -6.0  0     0     974.4    NA       0.0000   HZ       8000  9320  0    
2019/06/20  03:14:00  BASE  7.91448  107  11.1014  124  -3.2  81    -6.0  0     0     974.5    NA       0.0000   HZ       8000  9380  0    
2019/06/20  03:15:00  BASE  8.50836  111  11.1014  124  -3.2  81    -6.0  0     0     974.5    NA       0.0000   HZ       8000  9380  0    
2019/06/20  03:16:00  BASE  8.32608  115  11.1014  124  -3.1  81    -6.0  0     0     974.5    NA       0.0000   HZ       8000  9420  0    
2019/06/20  03:17:00  BASE  7.6734   110  11.1014  124  -3.1  80    -6.0  0     0     974.5    NA       0.0000   HZ       9000  9480  0    
2019/06/20  03:18:00  BASE  6.85608  107  11.1014  124  -3.0  80    -6.0  0     0     974.4    NA       0.0000   HZ       9999  9480  0    
2019/06/20  03:19:00  BASE  6.86784  105  9.91956  110  -3.1  80    -6.1  0     0     974.5    NA       0.0000   HZ       9999  9480  0    
2019/06/20  03:20:00  BASE  7.48524  104  9.77256  102  -3.1  79    -6.2  0     0     974.5    NA       0.0000   HZ       9999  9510  0    
2019/06/20  03:21:00  BASE  7.9086   107  9.77256  102  -3.1  79    -6.2  0     0     974.5    NA       0.0000   HZ       9999  9480  0    
2019/06/20  03:22:00  BASE  8.24376  108  9.77256  102  -3.2  79    -6.2  0     0     974.5    NA       0.0000   HZ       9999  9510  0    
2019/06/20  03:23:00  BASE  8.69652  109  9.77256  102  -3.2  80    -6.2  0     0     974.5    NA       0.0000   9999     9550  0     0    
2019/06/20  03:24:00  BASE  8.33196  108  9.59028  126  -3.2  80    -6.2  0     0     974.5    NA       0.0000   9999     9220  9610  0    
2019/06/20  03:25:00  BASE  8.27316  106  9.59028  126  -3.1  80    -6.2  0     0     974.6    NA       0.0000   9999     9190  9680  0    
2019/06/20  03:26:00  BASE  8.50248  104  9.4962   104  -3.1  79    -6.2  0     0     974.6    NA       0.0000   9999     9650  0     0    
2019/06/20  03:27:00  BASE  8.43192  98   9.86076  100  -3.1  79    -6.3  0     0     974.5    NA       0.0000   9999     9680  0     0    
2019/06/20  03:28:00  BASE  8.1732   94   9.86076  100  -3.2  79    -6.3  0     0     974.5    NA       0.0000   9999     11520 0     0    
2019/06/20  03:29:00  BASE  7.81452  95   9.98424  82   -3.3  79    -6.4  0     0     974.5    NA       0.0000   9999     9680  0     0    
2019/06/20  03:30:00  BASE  9.62556  95   13.036   88   -3.3  79    -6.5  0     0     974.6    NA       0.0000   9999     9710  0     0    
2019/06/20  03:31:00  BASE  11.4366  91   13.1006  93   -3.4  79    -6.5  0     0     974.5    NA       0.0000   9999     9740  0     0    
2019/06/20  03:32:00  BASE  11.1955  91   14.0944  83   -3.5  80    -6.4  0     0     974.4    NA       0.0000   9999     9780  0     0    
2019/06/20  03:33:00  BASE  10.0136  98   14.0944  83   -3.5  80    -6.4  0     0     974.4    NA       0.0000   9999     9220  9880  0    
2019/06/20  03:34:00  BASE  8.77296  102  14.0944  83   -3.4  81    -6.2  0     0     974.4    NA       0.0000   9999     9220  9940  0    
2019/06/20  03:35:00  BASE  8.72592  99   14.0944  83   -3.3  81    -6.1  0     0     974.5    NA       0.0000   9999     9250  0     0    
2019/06/20  03:36:00  BASE  9.53148  97   14.0944  83   -3.3  81    -6.1  0     0     974.5    NA       0.0000   9999     9320  0     0    
2019/06/20  03:37:00  BASE  10.1842  100  14.0944  83   -3.3  81    -6.1  0     0     974.6    NA       0.0000   9999     9320  0     0    
2019/06/20  03:38:00  BASE  9.56676  103  14.0944  83   -3.3  81    -6.1  0     0     974.5    NA       0.0000   9999     9320  0     0    
2019/06/20  03:39:00  BASE  9.51384  103  14.0944  83   -3.4  81    -6.2  0     0     974.5    NA       0.0000   9999     9320  0     0    
2019/06/20  03:40:00  BASE  9.77844  106  14.0944  83   -3.4  81    -6.2  0     0     974.6    NA       0.0000   9999     9320  0     0    
2019/06/20  03:41:00  BASE  8.89056  106  14.0944  83   -3.4  81    -6.1  0     0     974.4    NA       0.0000   9999     9150  0     0    
2019/06/20  03:42:00  BASE  8.07912  99   12.6773  94   -3.4  81    -6.1  0     0     974.4    NA       0.0000   9999     9420  0     0    
2019/06/20  03:43:00  BASE  7.88508  103  12.6773  94   -3.3  81    -6.1  0     0     974.4    NA       0.0000   9999     9480  0     0    
2019/06/20  03:44:00  BASE  8.1438   107  12.6773  94   -3.3  82    -6.0  0     0     974.4    NA       0.0000   9999     9450  0     0    
2019/06/20  03:45:00  BASE  8.4378   107  12.6773  94   -3.2  81    -5.9  0     0     974.4    NA       0.0000   9999     9480  0     0    
2019/06/20  03:46:00  BASE  7.45584  104  12.6773  94   -3.2  81    -5.9  0     0     974.2    NA       0.0000   9999     9580  0     0    
2019/06/20  03:47:00  BASE  7.12068  99   10.7075  104  -3.1  81    -5.9  0     0     974.3    NA       0.0000   9999     9650  0     0    
2019/06/20  03:48:00  BASE  8.66712  91   12.495   95   -3.1  81    -5.9  0     0     974.2    NA       0.0000   9999     9710  0     0    
2019/06/20  03:49:00  BASE  9.75492  91   12.495   95   -3.1  81    -5.9  0     0     974.4    NA       0.0000   9999     10040 0     0    
2019/06/20  03:50:00  BASE  10.0254  103  12.495   95   -3.1  80    -6.0  0     0     974.4    NA       0.0000   9999     9910  0     0    
2019/06/20  03:51:00  BASE  9.62556  114  12.495   95   -3.1  80    -6.0  0     0     974.5    NA       0.0000   9999     9780  0     0    
2019/06/20  03:52:00  BASE  8.91996  119  12.495   95   -3.0  80    -6.0  0     0     974.5    NA       0.0000   9999     10040 0     0    
2019/06/20  03:53:00  BASE  7.74984  117  12.495   95   -3.0  80    -6.0  0     0     974.4    NA       0.0000   9999     9970  0     0    
2019/06/20  03:54:00  BASE  8.10852  108  12.495   95   -2.9  79    -6.0  0     0     974.5    NA       0.0000   9999     6690  0     0    
2019/06/20  03:55:00  BASE  9.19632  105  12.495   95   -2.9  79    -6.0  0     0     974.4    NA       0.0000   9999     9350  0     0    
2019/06/20  03:56:00  BASE  8.87292  108  12.495   95   -2.8  79    -6.0  0     0     974.4    NA       0.0000   9999     9150  0     0    
2019/06/20  03:57:00  BASE  8.63184  108  12.495   95   -2.8  78    -6.0  0     0     974.4    NA       0.0000   9999     9450  0     0    
2019/06/20  03:58:00  BASE  8.59656  112  11.1896  100  -2.8  78    -6.1  0     0     974.4    NA       0.0000   9999     9220  0     0    
2019/06/20  03:59:00  BASE  8.22612  117  11.1896  100  -2.8  78    -6.1  0     0     974.4    NA       0.0000   9999     9090  0     0    
2019/06/20  04:00:00  BASE  7.71456  113  10.1665  104  -2.8  78    -6.1  0     0     974.4    NA       0.0000   9999     9060  0     0    
2019/06/20  04:01:00  BASE  7.79688  106  10.1665  104  -2.8  78    -6.1  0     0     974.4    NA       0.0000   9999     8960  0     0    
2019/06/20  04:02:00  BASE  8.36724  107  10.1665  104  -2.8  78    -6.2  0     0     974.4    NA       0.0000   9999     6460  0     0    
2019/06/20  04:03:00  BASE  8.76708  108  10.1665  104  -2.8  78    -6.1  0     0     974.4    NA       0.0000   9999     8600  0     0    
2019/06/20  04:04:00  BASE  8.73768  105  10.2547  97   -2.8  78    -6.1  0     0     974.4    NA       0.0000   9999     8560  0     0    
2019/06/20  04:05:00  BASE  9.22572  104  10.831   95   -2.8  78    -6.1  0     0     974.5    NA       0.0000   9999     6140  0     0    
2019/06/20  04:06:00  BASE  9.24924  102  10.831   95   -2.8  78    -6.2  0     0     974.4    NA       0.0000   9999     6070  0     0    
2019/06/20  04:07:00  BASE  9.22572  96   11.2543  93   -2.8  77    -6.2  0     0     974.3    NA       0.0000   9999     6000  0     0    
2019/06/20  04:08:00  BASE  9.81372  92   11.2543  93   -2.8  77    -6.2  0     0     974.3    NA       0.0000   9999     5970  0     0    
2019/06/20  04:09:00  BASE  9.1434   96   11.2543  93   -2.9  77    -6.3  0     0     974.4    NA       0.0000   9999     5580  0     0    
2019/06/20  04:10:00  BASE  8.4084   105  11.2543  93   -2.9  77    -6.3  0     0     974.4    NA       0.0000   9999     7510  0     0    
2019/06/20  04:11:00  BASE  8.30256  111  11.2543  93   -3.0  77    -6.4  0     0     974.4    NA       0.0000   9999     5770  0     0    
2019/06/20  04:12:00  BASE  8.7024   113  11.2543  93   -3.0  78    -6.3  0     0     974.5    NA       0.0000   9999     5710  0     0    
2019/06/20  04:13:00  BASE  8.96112  111  11.2543  93   -3.0  78    -6.3  0     0     974.5    NA       0.0000   9999     7740  0     0    
2019/06/20  04:14:00  BASE  8.12616  105  11.2543  93   -3.0  79    -6.2  0     0     974.4    NA       0.0000   9999     6230  0     0    
2019/06/20  04:15:00  BASE  7.27944  101  11.2543  93   -3.0  79    -6.2  0     0     974.3    NA       0.0000   9999     5740  0     0    
2019/06/20  04:16:00  BASE  7.3206   100  11.2543  93   -3.0  79    -6.2  0     0     974.3    NA       0.0000   9999     5580  0     0    
2019/06/20  04:17:00  BASE  8.36724  97   11.1014  84   -3.1  79    -6.2  0     0     974.4    NA       0.0000   9999     5710  0     0    
2019/06/20  04:18:00  BASE  8.9376   95   10.831   86   -3.1  79    -6.2  0     0     974.4    NA       0.0000   9999     5610  0     0    
2019/06/20  04:19:00  BASE  8.54952  98   10.831   86   -3.2  79    -6.2  0     0     974.4    NA       0.0000   9999     6070  0     0    
2019/06/20  04:20:00  BASE  9.3198   100  10.831   86   -3.2  80    -6.2  0     0     974.5    NA       0.0000   9999     6270  0     0    
2019/06/20  04:21:00  BASE  9.39624  104  10.831   86   -3.2  80    -6.2  0     0     974.4    NA       0.0000   9999     7970  0     0    
2019/06/20  04:22:00  BASE  8.44368  108  10.831   86   -3.2  80    -6.1  0     0     974.4    NA       0.0000   9999     8040  0     0    
2019/06/20  04:23:00  BASE  8.46132  114  10.831   86   -3.2  80    -6.0  0     0     974.5    NA       0.0000   9999     8010  0     0    
2019/06/20  04:24:00  BASE  8.62008  122  10.831   86   -3.1  80    -6.0  0     0     974.5    NA       0.0000   9999     6230  0     0    
2019/06/20  04:25:00  BASE  8.27316  121  10.831   86   -3.0  80    -5.9  0     0     974.5    NA       0.0000   9999     6170  0     0    
2019/06/20  04:26:00  BASE  7.54992  119  10.831   86   -2.9  80    -5.9  0     0     974.5    NA       0.0000   9999     8040  0     0    
2019/06/20  04:27:00  BASE  6.51504  119  10.5899  102  -2.9  79    -5.9  0     0     974.4    NA       0.0000   9999     7970  0     0    
2019/06/20  04:28:00  BASE  5.69772  118  10.5899  102  -2.9  79    -6.0  0     0     974.4    NA       0.0000   9999     8010  0     0    
2019/06/20  04:29:00  BASE  5.36844  112  10.5899  102  -2.9  79    -6.0  0     0     974.3    NA       0.0000   9999     7940  0     0    
2019/06/20  04:30:00  BASE  5.21556  111  9.86076  103  -2.9  79    -6.0  0     0     974.3    NA       0.0000   9999     8100  0     0    
2019/06/20  04:31:00  BASE  5.36256  114  9.61968  120  -2.9  79    -6.0  0     0     974.3    NA       0.0000   9999     8730  0     0    
2019/06/20  04:32:00  BASE  5.56248  114  9.61968  120  -2.8  79    -6.0  0     0     974.3    NA       0.0000   9999     5480  0     0    
2019/06/20  04:33:00  BASE  5.50368  112  9.10224  124  -2.8  79    -5.9  0     0     974.3    NA       0.0000   9999     5610  0     0    
2019/06/20  04:34:00  BASE  5.586    112  8.86116  116  -2.7  79    -5.9  0     0     974.3    NA       0.0000   9999     5350  0     0    
2019/06/20  04:35:00  BASE  5.80356  117  8.07912  115  -2.7  78    -6.0  0     0     974.4    NA       0.0000   9999     7380  0     0    
2019/06/20  04:36:00  BASE  5.8212   121  6.53268  117  -2.6  78    -6.0  0     0     974.4    NA       0.0000   9999     7640  0     0    
2019/06/20  04:37:00  BASE  5.65068  121  6.47388  123  -2.6  77    -6.0  0     0     974.4    NA       0.0000   9999     7550  0     0    
2019/06/20  04:38:00  BASE  5.78592  119  6.47388  119  -2.5  77    -6.1  0     0     974.4    NA       0.0000   9999     7090  0     0    
2019/06/20  04:39:00  BASE  6.33276  119  7.71456  115  -2.5  76    -6.1  0     0     974.5    NA       0.0000   9999     5580  0     0    
2019/06/20  04:40:00  BASE  6.09168  119  7.71456  115  -2.5  76    -6.1  0     0     974.4    NA       0.0000   9999     7350  0     0    
2019/06/20  04:41:00  BASE  5.45664  111  7.71456  115  -2.6  76    -6.2  0     0     974.4    NA       0.0000   9999     5770  0     0    
2019/06/20  04:42:00  BASE  5.1156   109  7.71456  115  -2.6  76    -6.3  0     0     974.4    NA       0.0000   9999     7610  0     0    
2019/06/20  04:43:00  BASE  4.76868  110  7.71456  115  -2.7  76    -6.3  0     0     974.4    NA       0.0000   9999     6330  0     0    
2019/06/20  04:44:00  BASE  5.57424  104  7.71456  99   -2.7  76    -6.3  0     0     974.5    NA       0.0000   9999     6230  0     0    
2019/06/20  04:45:00  BASE  6.8208   104  7.71456  99   -2.8  77    -6.3  0     0     974.5    NA       0.0000   9999     6270  0     0    
2019/06/20  04:46:00  BASE  7.25004  113  7.77336  116  -2.7  77    -6.2  0     0     974.5    NA       0.0000   9999     7940  0     0    
2019/06/20  04:47:00  BASE  7.47936  118  7.98504  114  -2.7  77    -6.2  0     0     974.6    NA       0.0000   9999     7910  0     0    
2019/06/20  04:48:00  BASE  6.86784  111  7.98504  114  -2.6  77    -6.1  0     0     974.5    NA       0.0000   9999     8270  0     0    
2019/06/20  04:49:00  BASE  5.91528  102  7.98504  114  -2.5  76    -6.1  0     0     974.5    NA       0.0000   9999     8430  0     0    
2019/06/20  04:50:00  BASE  6.15636  93   7.98504  114  -2.4  75    -6.2  0     0     974.4    NA       0.0000   9999     8500  0     0    
2019/06/20  04:51:00  BASE  6.00348  85   7.98504  114  -2.4  75    -6.3  0     0     974.4    NA       0.0000   9999     6860  0     0    
2019/06/20  04:52:00  BASE  5.55072  87   7.98504  114  -2.3  74    -6.3  0     0     974.4    NA       0.0000   9999     8830  0     0    
2019/06/20  04:53:01  BASE  6.10344  88   7.98504  114  -2.3  73    -6.4  0     0     974.5    NA       0.0000   9999     8920  0     0    
2019/06/20  04:54:01  BASE  7.60284  86   9.86076  76   -2.3  73    -6.5  0     0     974.5    NA       0.0000   9999     6330  0     0    
2019/06/20  04:55:01  BASE  8.93172  84   9.86076  76   -2.3  73    -6.6  0     0     974.5    NA       0.0000   9999     7870  0     0    
2019/06/20  04:56:01  BASE  8.4672   83   9.86076  76   -2.4  72    -6.6  0     0     974.5    NA       0.0000   9999     7810  0     0    
2019/06/20  04:57:01  BASE  7.77924  85   9.86076  76   -2.4  72    -6.7  0     0     974.4    NA       0.0000   9999     8300  0     0    
2019/06/20  04:58:00  BASE  7.10304  90   9.86076  76   -2.4  72    -6.7  0     0     974.5    NA       0.0000   9999     8760  0     0    
2019/06/20  04:59:00  BASE  6.09756  90   9.86076  76   -2.3  72    -6.7  0     0     974.4    NA       0.0000   9999     9350  0     0    
2019/06/20  05:00:00  BASE  5.18028  91   9.86076  76   -2.3  72    -6.7  0     0     974.4    NA       0.0000   9999     6560  0     0    
2019/06/20  05:01:00  BASE  4.32768  91   9.86076  76   -2.2  72    -6.6  0     0     974.5    NA       0.0000   9999     6560  0     0    
2019/06/20  05:02:00  BASE  5.34492  86   9.86076  76   -2.2  71    -6.7  0     0     974.5    NA       0.0000   9999     6730  0     0    
2019/06/20  05:03:00  BASE  7.26768  86   9.86076  76   -2.2  71    -6.8  0     0     974.5    NA       0.0000   9999     7220  0     0    
2019/06/20  05:04:01  BASE  7.32648  89   9.64908  83   -2.2  70    -6.8  0     0     974.5    NA       0.0000   9999     6660  0     0    
2019/06/20  05:05:00  BASE  6.66204  87   9.16692  80   -2.2  70    -6.9  0     0     974.5    NA       0.0000   9999     6460  0     0    
2019/06/20  05:06:00  BASE  6.66792  83   8.77296  92   -2.2  70    -6.9  0     0     974.5    NA       0.0000   9999     5640  0     0    
2019/06/20  05:07:00  BASE  6.6738   82   8.77296  92   -2.2  70    -6.9  0     0     974.5    NA       0.0000   9999     0     0     0    
2019/06/20  05:08:01  BASE  6.53856  78   8.77296  92   -2.1  69    -6.9  0     0     974.5    NA       0.0000   9999     0     0     0    
2019/06/20  05:09:00  BASE  7.10892  76   8.77296  92   -2.0  69    -7.0  0     0     974.5    NA       0.0000   9999     8500  0     0    
2019/06/20  05:10:00  BASE  7.49112  77   8.77296  92   -2.0  68    -7.2  0     0     974.5    NA       0.0000   9999     9190  0     0    
2019/06/20  05:11:00  BASE  6.50916  81   8.77296  92   -2.0  67    -7.3  0     0     974.5    NA       0.0000   9999     0     0     0    
2019/06/20  05:12:00  BASE  5.82708  81   8.77296  92   -2.0  67    -7.3  0     0     974.5    NA       0.0000   9999     0     0     0    
2019/06/20  05:13:00  BASE  5.70948  77   8.71416  72   -2.1  67    -7.4  0     0     974.5    NA       0.0000   9999     0     0     0    
2019/06/20  05:14:00  BASE  5.75652  67   8.71416  72   -2.2  67    -7.4  0     0     974.6    NA       0.0000   9999     0     0     0    
2019/06/20  05:15:00  BASE  5.57424  54   8.71416  72   -2.2  68    -7.4  0     0     974.6    NA       0.0000   9999     0     0     0    
2019/06/20  05:16:00  BASE  4.09836  16   8.71416  72   -2.2  68    -7.3  0     0     974.5    NA       0.0000   9999     0     0     0    
2019/06/20  05:17:00  BASE  3.42804  339  8.71416  72   -2.2  69    -7.2  0     0     974.5    NA       0.0000   9999     0     0     0    
2019/06/20  05:18:00  BASE  4.116    346  8.71416  72   -2.2  69    -7.1  0     0     974.5    NA       0.0000   9999     0     0     0    
2019/06/20  05:19:00  BASE  4.70988  350  8.3202   81   -2.1  70    -6.9  0     0     974.5    NA       0.0000   9999     0     0     0    
2019/06/20  05:20:00  BASE  5.33316  353  7.02072  54   -2.1  70    -6.8  0     0     974.4    NA       0.0000   9999     0     0     0    
2019/06/20  05:21:00  BASE  5.15676  356  7.02072  54   -2.1  71    -6.6  0     0     974.5    NA       0.0000   9999     0     0     0    
2019/06/20  05:22:00  BASE  4.82748  1    7.02072  54   -2.0  71    -6.5  0     0     974.5    NA       0.0000   9999     0     0     0    
2019/06/20  05:23:00  BASE  4.93332  6    7.02072  54   -2.0  72    -6.5  0     0     974.5    NA       0.0000   9999     0     0     0    
2019/06/20  05:24:00  BASE  4.88628  1    7.02072  54   -2.1  72    -6.4  0     0     974.5    NA       0.0000   9999     0     0     0    
2019/06/20  05:25:00  BASE  4.56876  356  5.99172  354  -2.1  72    -6.4  0     0     974.5    NA       0.0000   9999     0     0     0    
2019/06/20  05:26:00  BASE  4.28652  354  5.99172  354  -2.1  72    -6.5  0     0     974.6    NA       0.0000   9999     0     0     0    
2019/06/20  05:27:00  BASE  4.1454   356  5.99172  354  -2.1  71    -6.6  0     0     974.6    NA       0.0000   9999     0     0     0    
2019/06/20  05:28:00  BASE  3.95724  353  5.99172  354  -2.1  71    -6.6  0     0     974.6    NA       0.0000   9999     0     0     0    
2019/06/20  05:29:00  BASE  3.69852  350  5.99172  354  -2.1  71    -6.6  0     0     974.6    NA       0.0000   9999     0     0     0    
2019/06/20  05:30:00  BASE  3.27516  0    5.47428  354  -2.0  70    -6.7  0     0     974.7    NA       0.0000   9999     0     0     0    
2019/06/20  05:31:00  BASE  2.94588  8    5.35668  3    -2.0  70    -6.7  0     0     974.7    NA       0.0000   9999     0     0     0    
2019/06/20  05:32:00  BASE  2.81652  357  5.35668  3    -2.0  70    -6.7  0     0     974.7    NA       0.0000   9999     0     0     0    
2019/06/20  05:33:00  BASE  2.39316  351  5.35668  3    -2.0  70    -6.8  0     0     974.7    NA       0.0000   9999     0     0     0    
2019/06/20  05:34:00  BASE  2.30496  2    4.83924  355  -2.0  69    -6.9  0     0     974.7    NA       0.0000   9999     0     0     0    
2019/06/20  05:35:00  BASE  2.19324  27   4.83924  355  -2.0  69    -6.9  0     0     974.8    NA       0.0000   9999     0     0     0    
2019/06/20  05:36:00  BASE  1.42296  45   4.35708  360  -2.1  69    -7.1  0     0     974.8    NA       0.0000   9999     0     0     0    
2019/06/20  05:37:00  BASE  0.54096  22   4.35708  360  -2.1  68    -7.1  0     0     974.8    NA       0.0000   9999     0     0     0    
2019/06/20  05:38:00  BASE  0.45276  50   3.86904  355  -2.1  68    -7.3  0     0     974.8    NA       0.0000   9999     0     0     0    
2019/06/20  05:39:00  BASE  1.51116  78   3.78084  1    -2.1  67    -7.4  0     0     974.8    NA       0.0000   9999     0     0     0    
2019/06/20  05:40:00  BASE  1.41708  58   3.087    24   -2.1  67    -7.5  0     0     974.8    NA       0.0000   9999     0     0     0    
2019/06/20  05:41:00  BASE  1.00548  253  3.087    24   -2.1  66    -7.5  0     0     974.8    NA       0.0000   9999     0     0     0    
2019/06/20  05:42:00  BASE  0.77616  273  3.087    24   -2.0  66    -7.6  0     0     974.8    NA       0.0000   9999     0     0     0    
2019/06/20  05:43:00  BASE  0.77616  275  3.087    24   -2.0  65    -7.7  0     0     974.8    NA       0.0000   9999     8460  0     0    
2019/06/20  05:44:00  BASE  1.63464  270  2.78124  63   -2.0  65    -7.7  0     0     974.8    NA       0.0000   9999     12570 0     0    
2019/06/20  05:45:00  BASE  2.00508  292  2.78124  63   -2.0  64    -7.8  0     0     974.8    NA       0.0000   9999     12800 0     0    
2019/06/20  05:46:00  BASE  2.16384  322  2.96352  327  -2.0  64    -7.9  0     0     974.8    NA       0.0000   9999     13060 0     0    
2019/06/20  05:47:00  BASE  1.8816   353  2.96352  327  -2.0  64    -7.9  0     0     974.8    NA       0.0000   9999     13420 0     0    
2019/06/20  05:48:00  BASE  1.6464   330  2.96352  327  -2.1  65    -7.8  0     0     974.8    NA       0.0000   9999     13450 0     0    
2019/06/20  05:49:00  BASE  1.86396  299  2.96352  327  -2.2  65    -7.8  0     0     974.8    NA       0.0000   9999     13290 0     0    
2019/06/20  05:50:00  BASE  1.95216  295  2.96352  327  -2.3  66    -7.8  0     0     974.8    NA       0.0000   9999     13350 0     0    
2019/06/20  05:51:00  BASE  2.24616  304  3.1164   323  -2.4  67    -7.8  0     0     974.8    NA       0.0000   9999     13350 0     0    
2019/06/20  05:52:00  BASE  2.88708  320  3.56916  322  -2.5  67    -7.7  0     0     974.8    NA       0.0000   9999     13480 0     0    
2019/06/20  05:53:00  BASE  4.01604  320  5.68596  318  -2.6  68    -7.6  0     0     974.8    NA       0.0000   9999     13520 0     0    
2019/06/20  05:54:00  BASE  4.41     310  5.68596  318  -2.6  69    -7.5  0     0     974.8    NA       0.0000   9999     13120 0     0    
2019/06/20  05:55:00  BASE  3.69264  316  5.68596  318  -2.5  69    -7.4  0     0     974.8    NA       0.0000   9999     12630 0     0    
2019/06/20  05:56:00  BASE  3.63972  331  5.68596  318  -2.5  70    -7.3  0     0     974.8    NA       0.0000   9999     0     0     0    
2019/06/20  05:57:00  BASE  3.7338   347  5.68596  318  -2.4  69    -7.3  0     0     974.8    NA       0.0000   9999     12430 0     0    
2019/06/20  05:58:00  BASE  3.37512  10   5.68596  318  -2.4  69    -7.3  0     0     974.9    NA       0.0000   9999     0     0     0    
2019/06/20  05:59:00  BASE  3.26928  7    5.68596  318  -2.4  69    -7.3  0     0     974.8    NA       0.0000   9999     0     0     0    
2019/06/20  06:00:00  BASE  3.68676  354  5.68596  318  -2.4  69    -7.4  0     0     974.8    NA       0.0000   9999     0     0     0    
2019/06/20  06:01:00  BASE  4.22184  352  5.68596  318  -2.4  69    -7.4  0     0     974.8    NA       0.0000   9999     14600 0     0    
2019/06/20  06:02:00  BASE  4.09836  347  5.68596  318  -2.5  69    -7.4  0     0     974.8    NA       0.0000   9999     0     0     0    
2019/06/20  06:03:00  BASE  3.99252  342  4.89804  312  -2.5  69    -7.4  0     0     974.9    NA       0.0000   9999     12890 0     0    
2019/06/20  06:04:00  BASE  4.29828  338  4.86864  330  -2.5  70    -7.2  0     0     974.8    NA       0.0000   9999     12760 0     0    
2019/06/20  06:05:00  BASE  4.53348  345  4.99212  349  -2.5  71    -7.1  0     0     974.9    NA       0.0000   9999     12570 0     0    
2019/06/20  06:06:00  BASE  4.851    348  5.47428  350  -2.5  72    -6.9  0     0     974.8    NA       0.0000   9999     12240 0     0    
2019/06/20  06:07:00  BASE  5.25084  339  6.02112  217  -2.4  73    -6.7  0     0     974.8    NA       0.0000   9999     0     0     0    
2019/06/20  06:08:00  BASE  5.5566   345  6.13872  2    -2.4  74    -6.5  0     0     974.8    NA       0.0000   9999     0     0     0    
2019/06/20  06:09:00  BASE  5.16852  354  6.13872  2    -2.4  74    -6.3  0     0     974.9    NA       0.0000   9999     0     0     0    
2019/06/20  06:10:00  BASE  4.4394   359  6.13872  2    -2.3  75    -6.2  0     0     975.0    NA       0.0000   9999     0     0     0    
2019/06/20  06:11:00  BASE  4.02192  9    6.13872  2    -2.3  75    -6.0  0     0     975.0    NA       0.0000   9999     0     0     0    
2019/06/20  06:12:00  BASE  3.83376  14   6.13872  2    -2.3  76    -6.0  0     0     975.1    NA       0.0000   9999     0     0     0    
2019/06/20  06:13:00  BASE  3.82788  10   6.13872  2    -2.3  76    -5.9  0     0     975.0    NA       0.0000   9999     0     0     0    
2019/06/20  06:14:00  BASE  3.18108  10   6.13872  2    -2.4  76    -5.9  0     0     975.1    NA       0.0000   9999     0     0     0    
2019/06/20  06:15:00  BASE  2.92824  15   6.13872  2    -2.4  77    -6.0  0     0     975.1    NA       0.0000   9999     0     0     0    
2019/06/20  06:16:00  BASE  3.13404  15   6.13872  2    -2.5  77    -6.0  0     0     975.2    NA       0.0000   9999     0     0     0    
2019/06/20  06:17:00  BASE  3.2046   17   6.13872  2    -2.5  77    -5.9  0     0     975.2    NA       0.0000   9999     0     0     0    
2019/06/20  06:18:00  BASE  3.62208  15   5.08032  352  -2.5  77    -5.9  0     0     975.2    NA       0.0000   9999     0     0     0    
2019/06/20  06:19:00  BASE  3.89844  9    4.86864  6    -2.5  78    -5.8  0     0     975.2    NA       0.0000   9999     0     0     0    
2019/06/20  06:20:00  BASE  3.381    6    4.86864  6    -2.4  78    -5.7  0     0     975.2    NA       0.0000   9999     0     0     0    
2019/06/20  06:21:00  BASE  2.62836  3    4.86864  6    -2.4  79    -5.6  0     0     975.2    NA       0.0000   9999     0     0     0    
2019/06/20  06:22:00  BASE  2.58132  3    4.86864  6    -2.4  79    -5.5  0     0     975.2    NA       0.0000   9999     0     0     0    
2019/06/20  06:23:00  BASE  2.8224   2    4.83924  338  -2.4  79    -5.5  0     0     975.3    NA       0.0000   9999     12110 0     0    
2019/06/20  06:24:00  BASE  2.66952  349  4.83924  338  -2.4  80    -5.4  0     0     975.3    NA       0.0000   9999     12110 0     0    
2019/06/20  06:25:00  BASE  2.52252  317  4.83924  338  -2.4  80    -5.3  0     0     975.3    NA       0.0000   9999     12400 0     0    
2019/06/20  06:26:00  BASE  2.84592  295  4.83924  338  -2.4  81    -5.2  0     0     975.3    NA       0.0000   9999     12040 0     0    
2019/06/20  06:27:00  BASE  3.36336  296  4.83924  338  -2.3  81    -5.1  0     0     975.3    NA       0.0000   9999     11610 0     0    
2019/06/20  06:28:00  BASE  3.61032  303  4.83924  338  -2.3  82    -5.0  0     0     975.3    NA       0.0000   9999     11520 0     0    
2019/06/20  06:29:00  BASE  3.54564  307  4.08072  298  -2.2  82    -4.9  0     0     975.3    NA       0.0000   9999     11390 0     0    
2019/06/20  06:30:00  BASE  3.65736  306  4.08072  298  -2.2  82    -4.9  0     0     975.3    NA       0.0000   9999     11320 0     0    
2019/06/20  06:31:00  BASE  3.65148  305  4.08072  298  -2.2  82    -4.9  0     0     975.4    NA       0.0000   9999     11190 0     0    
2019/06/20  06:32:00  BASE  3.68676  308  4.263    312  -2.2  82    -4.9  0     0     975.4    NA       0.0000   9999     0     0     0    
2019/06/20  06:33:00  BASE  3.86316  314  4.263    312  -2.2  82    -4.9  0     0     975.4    NA       0.0000   9999     11750 0     0    
2019/06/20  06:34:00  BASE  3.86316  316  4.263    312  -2.2  82    -4.9  0     0     975.4    NA       0.0000   9999     11680 0     0    
2019/06/20  06:35:00  BASE  3.7338   314  4.263    312  -2.2  81    -5.0  0     0     975.4    NA       0.0000   9999     11710 0     0    
2019/06/20  06:36:00  BASE  3.822    314  4.47468  312  -2.2  81    -5.0  0     0     975.4    NA       0.0000   9999     11420 0     0    
2019/06/20  06:37:00  BASE  3.83964  307  4.47468  312  -2.2  81    -5.0  0     0     975.4    NA       0.0000   9999     11250 0     0    
2019/06/20  06:38:00  BASE  3.75732  300  4.47468  312  -2.2  81    -5.1  0     0     975.4    NA       0.0000   9999     11350 0     0    
2019/06/20  06:39:00  BASE  3.71028  294  4.47468  312  -2.2  81    -5.1  0     0     975.4    NA       0.0000   9999     11290 0     0    
2019/06/20  06:40:00  BASE  3.57504  288  4.47468  312  -2.2  81    -5.1  0     0     975.4    NA       0.0000   9999     0     0     0    
2019/06/20  06:41:00  BASE  3.56916  286  4.47468  312  -2.2  80    -5.2  0     0     975.4    NA       0.0000   9999     11290 0     0    
2019/06/20  06:42:00  BASE  3.4398   284  4.47468  312  -2.2  80    -5.2  0     0     975.4    NA       0.0000   9999     11160 0     0    
2019/06/20  06:43:00  BASE  3.1752   282  4.47468  312  -2.2  79    -5.3  0     0     975.4    NA       0.0000   9999     11120 0     0    
2019/06/20  06:44:00  BASE  3.0576   285  4.47468  312  -2.2  79    -5.4  0     0     975.4    NA       0.0000   9999     0     0     0    
2019/06/20  06:45:00  BASE  3.13992  287  4.47468  312  -2.2  79    -5.4  0     0     975.4    NA       0.0000   9999     0     0     0    
2019/06/20  06:46:00  BASE  3.26928  286  4.32768  296  -2.2  78    -5.5  0     0     975.4    NA       0.0000   9999     0     0     0    
2019/06/20  06:47:00  BASE  3.37512  288  4.32768  296  -2.3  78    -5.5  0     0     975.4    NA       0.0000   9999     0     0     0    
2019/06/20  06:48:00  BASE  3.59268  289  4.2042   298  -2.3  78    -5.6  0     0     975.4    NA       0.0000   9999     0     0     0    
2019/06/20  06:49:00  BASE  3.7338   287  4.1748   279  -2.3  78    -5.6  0     0     975.4    NA       0.0000   9999     0     0     0    
2019/06/20  06:50:00  BASE  3.53976  289  4.1748   279  -2.3  78    -5.6  0     0     975.4    NA       0.0000   9999     0     0     0    
2019/06/20  06:51:00  BASE  3.2928   301  4.1748   279  -2.3  78    -5.6  0     0     975.4    NA       0.0000   9999     0     0     0    
2019/06/20  06:52:00  BASE  3.33396  303  4.1748   279  -2.4  78    -5.6  0     0     975.4    NA       0.0000   9999     0     0     0    
2019/06/20  06:53:00  BASE  2.83416  299  4.1748   279  -2.3  78    -5.6  0     0     975.4    NA       0.0000   9999     0     0     0    
2019/06/20  06:54:00  BASE  2.45196  311  4.1748   279  -2.3  78    -5.6  0     0     975.4    NA       0.0000   9999     0     0     0    
2019/06/20  06:55:00  BASE  2.68716  319  4.1748   279  -2.3  78    -5.6  0     0     975.4    NA       0.0000   9999     0     0     0    
2019/06/20  06:56:00  BASE  2.71656  316  4.1748   279  -2.3  78    -5.6  0     0     975.4    NA       0.0000   9999     0     0     0    
2019/06/20  06:57:00  BASE  2.78124  314  4.1748   279  -2.3  78    -5.6  0     0     975.4    NA       0.0000   9999     0     0     0    
2019/06/20  06:58:00  BASE  2.65776  302  4.02192  285  -2.3  78    -5.6  0     0     975.4    NA       0.0000   9999     0     0     0    
2019/06/20  06:59:00  BASE  2.50488  298  3.96312  287  -2.3  79    -5.5  0     0     975.4    NA       0.0000   9999     0     0     0    
2019/06/20  07:00:00  BASE  2.33436  299  3.86904  293  -2.3  78    -5.5  0     0     975.4    NA       0.0000   9999     11610 0     0    
2019/06/20  07:01:00  BASE  2.2344   294  3.86904  293  -2.3  78    -5.6  0     0     975.4    NA       0.0000   9999     11750 0     0    
2019/06/20  07:02:00  BASE  2.04624  291  3.26928  328  -2.3  77    -5.7  0     0     975.4    NA       0.0000   9999     11650 0     0    
2019/06/20  07:03:00  BASE  1.87572  313  3.26928  328  -2.3  77    -5.9  0     0     975.4    NA       0.0000   9999     11480 0     0    
2019/06/20  07:04:00  BASE  1.72284  338  3.26928  328  -2.3  76    -5.9  0     0     975.4    NA       0.0000   9999     11580 0     0    
2019/06/20  07:05:00  BASE  1.36416  341  3.26928  328  -2.3  76    -5.9  0     0     975.4    NA       0.0000   9999     11320 0     0    
2019/06/20  07:06:00  BASE  1.029    354  3.26928  328  -2.3  77    -5.8  0     0     975.4    NA       0.0000   9999     10790 0     0    
2019/06/20  07:07:00  BASE  0.9702   14   3.26928  328  -2.3  78    -5.7  0     0     975.5    NA       0.0000   9999     0     0     0    
2019/06/20  07:08:00  BASE  1.0878   25   2.87532  302  -2.3  79    -5.5  0     0     975.6    NA       0.0000   9999     0     0     0    
2019/06/20  07:09:00  BASE  1.07016  30   2.54016  298  -2.4  80    -5.4  0     0     975.6    NA       0.0000   9999     0     0     0    
2019/06/20  07:10:00  BASE  1.09956  31   2.54016  298  -2.4  80    -5.4  0     0     975.6    NA       0.0000   9999     0     0     0    
2019/06/20  07:11:00  BASE  1.12308  39   2.29908  338  -2.5  81    -5.4  0     0     975.6    NA       0.0000   9999     0     0     0    
2019/06/20  07:12:00  BASE  1.19364  59   2.29908  338  -2.6  81    -5.4  0     0     975.6    NA       0.0000   9999     7220  0     0    
2019/06/20  07:13:00  BASE  1.37004  72   1.78752  341  -2.7  81    -5.4  0     0     975.6    NA       0.0000   9999     7710  0     0    
2019/06/20  07:14:00  BASE  1.45236  66   1.81692  73   -2.7  82    -5.4  0     0     975.6    NA       0.0000   9999     7910  0     0    
2019/06/20  07:15:00  BASE  0.8232   44   1.81692  73   -2.7  82    -5.4  0     0     975.6    NA       0.0000   9999     7810  0     0    
2019/06/20  07:16:00  BASE  0.4998   50   1.81692  73   -2.7  83    -5.3  0     0     975.6    NA       0.0000   9999     7780  0     0    
2019/06/20  07:17:00  BASE  0.87612  57   1.81692  73   -2.7  83    -5.2  0     0     975.6    NA       0.0000   9999     7810  0     0    
2019/06/20  07:18:00  BASE  0.88788  44   1.81692  73   -2.7  83    -5.2  0     0     975.6    NA       0.0000   9999     7870  0     0    
2019/06/20  07:19:00  BASE  0.4116   40   1.81692  73   -2.6  83    -5.2  0     0     975.6    NA       0.0000   9999     7810  0     0    
2019/06/20  07:20:00  BASE  0.3528   44   1.81692  73   -2.6  82    -5.2  0     0     975.6    NA       0.0000   9999     7510  0     0    
2019/06/20  07:21:00  BASE  0.87612  51   1.81692  73   -2.6  82    -5.3  0     0     975.6    NA       0.0000   9999     7640  0     0    
2019/06/20  07:22:00  BASE  1.04664  45   1.81692  73   -2.6  81    -5.4  0     0     975.6    NA       0.0000   9999     0     0     0    
2019/06/20  07:23:00  BASE  0.95256  34   1.81692  73   -2.6  80    -5.5  0     0     975.6    NA       0.0000   9999     0     0     0    
2019/06/20  07:24:00  BASE  0.53508  29   1.45236  59   -2.6  80    -5.6  0     0     975.5    NA       0.0000   9999     0     0     0    
2019/06/20  07:25:00  BASE  0.34692  33   1.45236  59   -2.5  79    -5.6  0     0     975.4    NA       0.0000   9999     0     0     0    
2019/06/20  07:26:00  BASE  0.75264  29   1.29948  56   -2.5  79    -5.7  0     0     975.5    NA       0.0000   9999     0     0     0    
2019/06/20  07:27:00  BASE  1.09956  19   1.32888  16   -2.5  78    -5.8  0     0     975.6    NA       0.0000   9999     0     0     0    
2019/06/20  07:28:00  BASE  1.19952  19   1.35828  10   -2.6  78    -6.0  0     0     975.6    NA       0.0000   9999     0     0     0    
2019/06/20  07:29:00  BASE  1.15248  20   1.35828  10   -2.7  77    -6.1  0     0     975.6    NA       0.0000   9999     0     0     0    
2019/06/20  07:30:00  BASE  1.07016  24   1.35828  10   -2.7  77    -6.1  0     0     975.6    NA       0.0000   9999     0     0     0    
2019/06/20  07:31:00  BASE  1.09956  35   1.35828  10   -2.8  78    -6.1  0     0     975.6    NA       0.0000   9999     0     0     0    
2019/06/20  07:32:00  BASE  1.12308  44   1.35828  10   -2.9  78    -6.1  0     0     975.6    NA       0.0000   9999     0     0     0    
2019/06/20  07:33:00  BASE  1.0584   48   1.35828  10   -2.9  79    -6.0  0     0     975.6    NA       0.0000   9999     0     0     0    
2019/06/20  07:34:00  BASE  0.91728  54   1.35828  10   -2.9  79    -5.9  0     0     975.6    NA       0.0000   9999     0     0     0    
2019/06/20  07:35:00  BASE  0.80556  65   1.35828  10   -2.9  80    -5.9  0     0     975.6    NA       0.0000   9999     0     0     0    
2019/06/20  07:36:00  BASE  0.588    88   1.35828  10   -2.8  80    -5.8  0     0     975.6    NA       0.0000   9999     0     0     0    
2019/06/20  07:37:00  BASE  0.5586   98   1.35828  10   -2.8  80    -5.8  0     0     975.6    NA       0.0000   9999     0     0     0    
2019/06/20  07:38:00  BASE  0.72912  97   1.29948  48   -2.8  80    -5.8  0     0     975.6    NA       0.0000   9999     0     0     0    
2019/06/20  07:39:00  BASE  0.5292   118  1.29948  48   -2.8  80    -5.8  0     0     975.6    NA       0.0000   9999     0     0     0    
2019/06/20  07:40:00  BASE  0.16464  136  1.29948  48   -2.8  79    -5.9  0     0     975.5    NA       0.0000   9999     0     0     0    
2019/06/20  07:41:00  BASE  0        122  1.29948  48   -2.7  79    -5.9  0     0     975.6    NA       0.0000   9999     0     0     0    
2019/06/20  07:42:00  BASE  0        103  1.0878   53   -2.7  78    -5.9  0     0     975.6    NA       0.0000   9999     0     0     0    
2019/06/20  07:43:00  BASE  0        100  0.93492  131  -2.6  78    -5.9  0     0     975.6    NA       0.0000   9999     0     0     0    
2019/06/20  07:44:00  BASE  0        70   0.93492  131  -2.5  77    -6.0  0     0     975.6    NA       0.0000   9999     0     0     0    
2019/06/20  07:45:00  BASE  0        350  0.93492  131  -2.5  76    -6.1  0     0     975.6    NA       0.0000   9999     0     0     0    
2019/06/20  07:46:00  BASE  0        332  0.93492  131  -2.5  76    -6.2  0     0     975.6    NA       0.0000   9999     0     0     0    
2019/06/20  07:47:00  BASE  0        339  0.93492  131  -2.5  75    -6.2  0     0     975.6    NA       0.0000   9999     0     0     0    
2019/06/20  07:48:00  BASE  0        357  0.93492  131  -2.5  75    -6.3  0     0     975.6    NA       0.0000   9999     0     0     0    
2019/06/20  07:49:00  BASE  0.28224  351  0.78792  336  -2.5  75    -6.3  0     0     975.6    NA       0.0000   9999     0     0     0    
2019/06/20  07:50:00  BASE  0.49392  346  0.87612  4    -2.5  75    -6.4  0     0     975.6    NA       0.0000   9999     0     0     0    
2019/06/20  07:51:00  BASE  0.80556  2    1.42296  360  -2.6  75    -6.4  0     0     975.6    NA       0.0000   9999     0     0     0    
2019/06/20  07:52:00  BASE  1.28772  7    1.48176  11   -2.7  75    -6.4  0     0     975.6    NA       0.0000   9999     0     0     0    
2019/06/20  07:53:00  BASE  1.3818   20   1.48176  24   -2.7  76    -6.4  0     0     975.7    NA       0.0000   9999     0     0     0    
2019/06/20  07:54:00  BASE  1.43472  31   1.63464  35   -2.8  76    -6.5  0     0     975.7    NA       0.0000   9999     0     0     0    
2019/06/20  07:55:00  BASE  1.62288  38   1.93452  46   -2.9  77    -6.5  0     0     975.8    NA       0.0000   9999     0     0     0    
2019/06/20  07:56:00  BASE  1.77576  48   2.0286   53   -3.0  77    -6.4  0     0     975.8    NA       0.0000   9999     0     0     0    
2019/06/20  07:57:00  BASE  1.71108  52   2.0286   53   -3.0  78    -6.3  0     0     975.8    NA       0.0000   9999     0     0     0    
2019/06/20  07:58:00  BASE  1.32888  55   2.0286   53   -3.1  79    -6.3  0     0     975.8    NA       0.0000   9999     0     0     0    
2019/06/20  07:59:00  BASE  1.24068  54   2.0286   53   -3.1  79    -6.2  0     0     975.8    NA       0.0000   9999     0     0     0    
2019/06/20  08:00:00  BASE  1.48176  46   2.0286   53   -3.1  80    -6.1  0     0     975.8    NA       0.0000   9999     0     0     0    
2019/06/20  08:01:00  BASE  1.58172  47   2.0286   53   -3.1  80    -6.0  0     0     975.8    NA       0.0000   9999     0     0     0    
2019/06/20  08:02:00  BASE  1.60524  48   2.0286   39   -3.0  80    -5.9  0     0     975.8    NA       0.0000   9999     0     0     0    
2019/06/20  08:03:00  BASE  1.66992  54   2.24028  64   -3.0  81    -5.9  0     0     975.8    NA       0.0000   9999     0     0     0    
2019/06/20  08:04:00  BASE  1.87572  61   2.24028  64   -3.1  81    -5.9  0     0     975.8    NA       0.0000   9999     0     0     0    
2019/06/20  08:05:00  BASE  2.01684  63   2.26968  68   -3.1  81    -6.0  0     0     975.8    NA       0.0000   9999     0     0     0    
2019/06/20  08:06:00  BASE  2.09916  68   2.29908  67   -3.2  80    -6.0  0     0     975.8    NA       0.0000   9999     0     0     0    
2019/06/20  08:07:00  BASE  1.99332  70   2.29908  67   -3.2  80    -6.1  0     0     975.8    NA       0.0000   9999     0     0     0    
2019/06/20  08:08:00  BASE  1.82868  73   2.29908  67   -3.2  80    -6.2  0     0     975.8    NA       0.0000   9999     0     0     0    
2019/06/20  08:09:00  BASE  1.75224  69   2.29908  67   -3.3  80    -6.2  0     0     975.8    NA       0.0000   9999     0     0     0    
2019/06/20  08:10:00  BASE  1.68168  60   2.29908  67   -3.2  80    -6.2  0     0     975.8    NA       0.0000   9999     0     0     0    
2019/06/20  08:11:00  BASE  1.3818   64   2.29908  67   -3.2  80    -6.2  0     0     975.8    NA       0.0000   9999     0     0     0    
2019/06/20  08:12:00  BASE  0.78792  69   2.29908  67   -3.2  80    -6.1  0     0     975.8    NA       0.0000   9999     0     0     0    
2019/06/20  08:13:00  BASE  0.48804  76   2.29908  67   -3.1  80    -6.1  0     0     975.8    NA       0.0000   9999     0     0     0    
2019/06/20  08:14:00  BASE  0.3234   82   2.29908  67   -3.0  79    -6.0  0     0     975.8    NA       0.0000   9999     0     0     0    
2019/06/20  08:15:00  BASE  0.3234   85   2.29908  67   -2.9  79    -6.0  0     0     975.8    NA       0.0000   9999     0     0     0    
2019/06/20  08:16:00  BASE  0.72912  88   2.0874   59   -2.8  78    -6.0  0     0     975.8    NA       0.0000   9999     0     0     0    
2019/06/20  08:17:00  BASE  0.8232   80   2.0874   59   -2.8  78    -6.1  0     0     975.9    NA       0.0000   9999     0     0     0    
2019/06/20  08:18:00  BASE  0.55272  63   2.0874   59   -2.8  77    -6.2  0     0     975.9    NA       0.0000   9999     0     0     0    
2019/06/20  08:19:00  BASE  0.24696  62   1.90512  59   -2.7  77    -6.2  0     0     975.9    NA       0.0000   9999     0     0     0    
2019/06/20  08:20:00  BASE  0.02352  73   1.57584  75   -2.7  77    -6.3  0     0     976.0    NA       0.0000   9999     0     0     0    
2019/06/20  08:21:00  BASE  0.19404  61   1.24068  41   -2.7  76    -6.3  0     0     976.0    NA       0.0000   9999     0     0     0    
2019/06/20  08:22:00  BASE  1.00548  43   1.81692  45   -2.7  76    -6.4  0     0     976.0    NA       0.0000   9999     0     0     0    
2019/06/20  08:23:00  BASE  1.71696  39   2.21088  48   -2.8  75    -6.6  0     0     976.0    NA       0.0000   9999     0     0     0    
2019/06/20  08:24:00  BASE  1.911    41   2.38728  42   -3.0  75    -6.8  0     0     976.0    NA       0.0000   9999     0     0     0    
2019/06/20  08:25:00  BASE  1.9404   42   2.38728  42   -3.2  75    -6.9  0     0     976.0    NA       0.0000   9999     0     0     0    
2019/06/20  08:26:00  BASE  1.86396  46   2.38728  42   -3.4  76    -7.0  0     0     976.0    NA       0.0000   9999     0     0     0    
2019/06/20  08:27:00  BASE  1.86984  49   2.38728  42   -3.5  77    -7.0  0     0     976.0    NA       0.0000   9999     0     0     0    
2019/06/20  08:28:00  BASE  1.97568  48   2.38728  42   -3.5  78    -6.8  0     0     976.0    NA       0.0000   9999     0     0     0    
2019/06/20  08:29:00  BASE  1.99332  48   2.38728  42   -3.5  78    -6.7  0     0     976.0    NA       0.0000   9999     0     0     0    
2019/06/20  08:30:00  BASE  1.8816   45   2.38728  42   -3.5  79    -6.6  0     0     976.0    NA       0.0000   9999     0     0     0    
2019/06/20  08:31:00  BASE  1.74636  42   2.38728  42   -3.5  79    -6.6  0     0     976.0    NA       0.0000   9999     0     0     0    
2019/06/20  08:32:00  BASE  1.5876   40   2.38728  42   -3.5  80    -6.5  0     0     976.0    NA       0.0000   9999     0     0     0    
2019/06/20  08:33:00  BASE  1.5876   40   2.38728  42   -3.6  80    -6.5  0     0     976.0    NA       0.0000   9999     0     0     0    
2019/06/20  08:34:00  BASE  1.6464   40   2.21088  55   -3.6  80    -6.6  0     0     976.0    NA       0.0000   9999     0     0     0    
2019/06/20  08:35:00  BASE  1.66404  41   2.21088  55   -3.7  80    -6.6  0     0     976.0    NA       0.0000   9999     0     0     0    
2019/06/20  08:36:00  BASE  1.66404  45   2.1756   50   -3.8  80    -6.6  0     0     976.0    NA       0.0000   9999     0     0     0    
2019/06/20  08:37:00  BASE  1.7052   47   2.1756   50   -3.8  81    -6.6  0     0     976.0    NA       0.0000   9999     0     0     0    
2019/06/20  08:38:00  BASE  1.64052  45   2.0286   50   -3.8  81    -6.6  0     0     976.0    NA       0.0000   9999     0     0     0    
2019/06/20  08:39:00  BASE  1.53468  44   1.96392  45   -3.8  81    -6.5  0     0     976.0    NA       0.0000   9999     0     0     0    
2019/06/20  08:40:00  BASE  1.57584  44   1.87572  46   -3.8  82    -6.4  0     0     976.0    NA       0.0000   9999     0     0     0    
2019/06/20  08:41:00  BASE  1.47     43   1.87572  46   -3.8  82    -6.4  0     0     976.0    NA       0.0000   9999     0     0     0    
2019/06/20  08:42:00  BASE  1.39944  44   1.87572  46   -3.7  82    -6.4  0     0     976.0    NA       0.0000   9999     0     0     0    
2019/06/20  08:43:00  BASE  1.54644  43   1.87572  46   -3.7  82    -6.4  0     0     976.0    NA       0.0000   9999     0     0     0    
2019/06/20  08:44:00  BASE  1.63464  41   1.87572  46   -3.7  82    -6.4  0     0     976.0    NA       0.0000   9999     0     0     0    
2019/06/20  08:45:00  BASE  1.76988  44   2.0286   46   -3.7  82    -6.4  0     0     976.0    NA       0.0000   9999     0     0     0    
2019/06/20  08:46:00  BASE  1.98156  45   2.1462   39   -3.8  82    -6.4  0     0     976.1    NA       0.0000   9999     0     0     0    
2019/06/20  08:47:00  BASE  2.05212  44   2.1756   42   -3.8  82    -6.4  0     0     976.1    NA       0.0000   9999     0     0     0    
2019/06/20  08:48:00  BASE  2.04624  43   2.1756   41   -3.8  82    -6.4  0     0     976.1    NA       0.0000   9999     0     0     0    
2019/06/20  08:49:00  BASE  1.97568  41   2.1756   41   -3.9  82    -6.5  0     0     976.1    NA       0.0000   9999     0     0     0    
2019/06/20  08:50:00  BASE  1.84632  36   2.1756   41   -3.9  82    -6.5  0     0     976.1    NA       0.0000   9999     0     0     0    
2019/06/20  08:51:00  BASE  1.69932  33   2.1756   41   -3.9  82    -6.5  0     0     976.2    NA       0.0000   9999     0     0     0    
2019/06/20  08:52:00  BASE  1.68756  33   2.1756   41   -3.9  82    -6.5  0     0     976.2    NA       0.0000   9999     0     0     0    
2019/06/20  08:53:01  BASE  1.83456  34   2.1756   41   -3.9  82    -6.5  0     0     976.2    NA       0.0000   9999     0     0     0    
2019/06/20  08:54:00  BASE  1.81692  35   2.1756   41   -3.9  82    -6.4  0     0     976.2    NA       0.0000   9999     0     0     0    
2019/06/20  08:55:00  BASE  1.79928  43   2.1756   41   -3.9  82    -6.4  0     0     976.2    NA       0.0000   9999     0     0     0    
2019/06/20  08:56:00  BASE  1.8816   50   2.1756   49   -3.9  83    -6.4  0     0     976.2    NA       0.0000   9999     0     0     0    
2019/06/20  08:57:00  BASE  1.91688  53   2.24028  48   -3.9  83    -6.4  0     0     976.2    NA       0.0000   9999     0     0     0    
2019/06/20  08:58:00  BASE  1.95804  55   2.38728  58   -3.9  83    -6.4  0     0     976.2    NA       0.0000   9999     16570 0     0    
2019/06/20  08:59:00  BASE  2.16972  57   2.54016  63   -3.9  83    -6.4  0     0     976.2    NA       0.0000   9999     0     0     0    
2019/06/20  09:00:00  BASE  2.34612  54   2.54016  55   -3.9  83    -6.4  0     0     976.2    NA       0.0000   9999     16600 0     0    
2019/06/20  09:01:00  BASE  2.34024  49   2.54016  55   -3.9  82    -6.5  0     0     976.2    NA       0.0000   9999     0     0     0    
2019/06/20  09:02:00  BASE  2.28732  50   2.54016  55   -3.9  82    -6.5  0     0     976.2    NA       0.0000   9999     16960 0     0    
2019/06/20  09:03:00  BASE  2.16384  49   2.54016  55   -4.0  82    -6.6  0     0     976.2    NA       0.0000   9999     17090 0     0    
2019/06/20  09:04:00  BASE  2.07564  51   2.54016  55   -4.0  82    -6.6  0     0     976.3    NA       0.0000   9999     17420 0     0    
2019/06/20  09:05:00  BASE  2.03448  57   2.54016  55   -4.0  82    -6.6  0     0     976.4    NA       0.0000   9999     0     0     0    
2019/06/20  09:06:00  BASE  1.99332  56   2.54016  55   -4.0  82    -6.6  0     0     976.4    NA       0.0000   9999     17450 0     0    
2019/06/20  09:07:00  BASE  1.95804  49   2.54016  55   -4.0  82    -6.6  0     0     976.4    NA       0.0000   9999     0     0     0    
2019/06/20  09:08:00  BASE  1.8228   39   2.54016  55   -4.0  82    -6.6  0     0     976.4    NA       0.0000   9999     0     0     0    
2019/06/20  09:09:00  BASE  1.61112  36   2.54016  55   -4.0  81    -6.7  0     0     976.4    NA       0.0000   9999     0     0     0    
2019/06/20  09:10:00  BASE  1.7052   32   2.45196  48   -4.0  81    -6.7  0     0     976.4    NA       0.0000   9999     0     0     0    
2019/06/20  09:11:00  BASE  1.80516  26   2.29908  53   -4.0  81    -6.8  0     0     976.4    NA       0.0000   9999     0     0     0    
2019/06/20  09:12:00  BASE  1.75224  25   2.29908  53   -4.0  81    -6.8  0     0     976.4    NA       0.0000   9999     0     0     0    
2019/06/20  09:13:00  BASE  2.65188  27   5.38608  29   -4.0  81    -6.8  0     0     976.4    NA       0.0000   9999     0     0     0    
2019/06/20  09:14:00  BASE  4.1454   40   5.41548  52   -4.1  81    -6.9  0     0     976.4    NA       0.0000   9999     0     0     0    
2019/06/20  09:15:00  BASE  5.0568   44   6.13872  33   -4.2  80    -7.1  0     0     976.4    NA       0.0000   9999     0     0     0    
2019/06/20  09:16:00  BASE  4.86864  37   6.13872  33   -4.3  80    -7.3  0     0     976.5    NA       0.0000   9999     0     0     0    
2019/06/20  09:17:00  BASE  4.28652  42   6.13872  33   -4.4  79    -7.4  0     0     976.5    NA       0.0000   9999     0     0     0    
2019/06/20  09:18:00  BASE  4.55112  43   6.321    31   -4.5  79    -7.7  0     0     976.4    NA       0.0000   9999     0     0     0    
2019/06/20  09:19:00  BASE  5.3214   36   6.321    31   -4.6  79    -7.7  0     0     976.4    NA       0.0000   9999     6230  0     0    
2019/06/20  09:20:00  BASE  6.26808  31   7.3794   29   -4.6  79    -7.7  0     0     976.4    NA       0.0000   9999     0     0     0    
2019/06/20  09:21:00  BASE  6.75024  34   7.56168  40   -4.5  79    -7.7  0     0     976.4    NA       0.0000   9999     0     0     0    
2019/06/20  09:22:00  BASE  6.2622   39   7.56168  40   -4.6  79    -7.7  0     0     976.5    NA       0.0000   9999     0     0     0    
2019/06/20  09:23:00  BASE  5.6742   38   7.56168  40   -4.7  79    -7.8  0     0     976.5    NA       0.0000   9999     0     0     0    
2019/06/20  09:24:00  BASE  5.46252  36   7.56168  40   -4.8  79    -7.9  0     0     976.5    NA       0.0000   9999     0     0     0    
2019/06/20  09:25:00  BASE  5.56836  36   7.56168  40   -4.9  79    -8.0  0     0     976.5    NA       0.0000   9999     0     0     0    
2019/06/20  09:26:00  BASE  5.80944  36   7.56168  40   -5.0  79    -8.1  0     0     976.5    NA       0.0000   9999     0     0     0    
2019/06/20  09:27:00  BASE  5.7036   38   7.56168  40   -5.0  79    -8.1  0     0     976.5    NA       0.0000   9999     11190 0     0    
2019/06/20  09:28:00  BASE  5.56836  37   7.56168  40   -4.9  79    -8.0  0     0     976.5    NA       0.0000   9999     11160 0     0    
2019/06/20  09:29:00  BASE  5.46252  34   7.56168  40   -4.9  79    -7.9  0     0     976.5    NA       0.0000   9999     6400  0     0    
2019/06/20  09:30:00  BASE  5.28024  35   7.56168  40   -4.8  79    -7.9  0     0     976.5    NA       0.0000   9999     0     0     0    
2019/06/20  09:31:00  BASE  5.01564  37   6.321    39   -4.8  79    -7.9  0     0     976.5    NA       0.0000   9999     11090 0     0    
2019/06/20  09:32:00  BASE  4.66284  32   6.321    39   -4.8  79    -7.9  0     0     976.5    NA       0.0000   9999     6230  0     0    
2019/06/20  09:33:00  BASE  4.263    29   6.321    39   -4.8  78    -7.9  0     0     976.5    NA       0.0000   9999     0     0     0    
2019/06/20  09:34:00  BASE  3.52212  25   6.321    39   -4.7  78    -8.0  0     0     976.6    NA       0.0000   9999     0     0     0    
2019/06/20  09:35:00  BASE  2.9988   29   6.321    39   -4.7  78    -7.9  0     0     976.6    NA       0.0000   9999     0     0     0    
2019/06/20  09:36:00  BASE  2.7636   38   6.321    39   -4.6  78    -7.9  0     0     976.6    NA       0.0000   9999     0     0     0    
2019/06/20  09:37:00  BASE  2.28144  37   5.92704  36   -4.5  77    -7.9  0     0     976.6    NA       0.0000   9999     0     0     0    
2019/06/20  09:38:00  BASE  1.79928  35   5.80944  35   -4.4  77    -7.8  0     0     976.7    NA       0.0000   9999     0     0     0    
2019/06/20  09:39:00  BASE  1.66404  36   5.80944  35   -4.3  77    -7.8  0     0     976.7    NA       0.0000   9999     0     0     0    
2019/06/20  09:40:00  BASE  1.81104  43   5.145    34   -4.3  77    -7.8  0     0     976.7    NA       0.0000   9999     0     0     0    
2019/06/20  09:41:00  BASE  2.04624  52   4.80984  34   -4.3  77    -7.8  0     0     976.6    NA       0.0000   9999     6300  0     0    
2019/06/20  09:42:00  BASE  2.1168   55   4.47468  30   -4.3  77    -7.8  0     0     976.6    NA       0.0000   9999     6300  0     0    
2019/06/20  09:43:00  BASE  1.9698   57   4.1454   26   -4.4  77    -7.8  0     0     976.7    NA       0.0000   9999     6200  0     0    
2019/06/20  09:44:00  BASE  1.88748  53   3.29868  37   -4.4  77    -7.8  0     0     976.7    NA       0.0000   9999     0     0     0    
2019/06/20  09:45:00  BASE  1.63464  48   2.87532  42   -4.4  78    -7.7  0     0     976.7    NA       0.0000   9999     0     0     0    
2019/06/20  09:46:00  BASE  1.4994   41   2.56956  55   -4.4  78    -7.7  0     0     976.7    NA       0.0000   9999     6330  0     0    
2019/06/20  09:47:00  BASE  1.59348  37   2.56956  55   -4.3  78    -7.6  0     0     976.7    NA       0.0000   9999     6270  0     0    
2019/06/20  09:48:00  BASE  1.617    37   2.56956  55   -4.2  78    -7.5  0     0     976.7    NA       0.0000   9999     6370  0     0    
2019/06/20  09:49:00  BASE  1.58172  30   2.56956  55   -4.2  78    -7.5  0     0     976.7    NA       0.0000   9999     6230  0     0    
2019/06/20  09:50:00  BASE  1.56408  22   2.56956  55   -4.1  77    -7.5  0     0     976.7    NA       0.0000   9999     6300  0     0    
2019/06/20  09:51:00  BASE  1.617    19   2.24028  49   -4.1  77    -7.5  0     0     976.7    NA       0.0000   9999     6300  0     0    
2019/06/20  09:52:00  BASE  1.54056  18   2.21088  51   -4.0  76    -7.6  0     0     976.7    NA       0.0000   9999     6270  0     0    
2019/06/20  09:53:00  BASE  1.41708  23   2.21088  51   -4.0  76    -7.6  0     0     976.7    NA       0.0000   9999     6170  0     0    
2019/06/20  09:54:00  BASE  1.22892  30   1.90512  45   -4.0  76    -7.6  0     0     976.7    NA       0.0000   9999     6270  0     0    
2019/06/20  09:55:00  BASE  1.2054   29   1.90512  45   -4.0  76    -7.6  0     0     976.7    NA       0.0000   9999     6170  0     0    
2019/06/20  09:56:00  BASE  1.32888  25   1.90512  45   -3.9  76    -7.5  0     0     976.8    NA       0.0000   9999     6200  0     0    
2019/06/20  09:57:00  BASE  1.2642   25   1.87572  36   -3.9  76    -7.5  0     0     976.8    NA       0.0000   9999     6270  0     0    
2019/06/20  09:58:00  BASE  1.22892  21   1.75224  17   -3.8  76    -7.5  0     0     976.8    NA       0.0000   9999     0     0     0    
2019/06/20  09:59:00  BASE  1.22304  11   1.75224  17   -3.8  76    -7.4  0     0     976.8    NA       0.0000   9999     6300  0     0    
2019/06/20  10:00:00  BASE  1.18188  9    1.75224  17   -3.8  76    -7.4  0     0     976.8    NA       0.0000   9999     6330  0     0    
2019/06/20  10:01:00  BASE  1.22304  7    1.63464  19   -3.8  76    -7.4  0     0     976.8    NA       0.0000   9999     6200  0     0    
2019/06/20  10:02:00  BASE  1.13484  0    1.57584  28   -3.8  76    -7.4  0     0     976.8    NA       0.0000   9999     6270  0     0    
2019/06/20  10:03:00  BASE  0.99372  1    1.48176  22   -3.9  76    -7.5  0     0     976.8    NA       0.0000   9999     6330  0     0    
2019/06/20  10:04:00  BASE  1.0878   18   1.54056  40   -3.9  76    -7.5  0     0     976.8    NA       0.0000   9999     6300  0     0    
2019/06/20  10:05:00  BASE  1.35828  37   1.57584  45   -4.0  76    -7.6  0     0     976.9    NA       0.0000   9999     6300  0     0    
2019/06/20  10:06:00  BASE  1.51704  41   1.63464  36   -4.1  76    -7.6  0     0     977.0    NA       0.0000   9999     6200  0     0    
2019/06/20  10:07:00  BASE  1.47     39   1.63464  36   -4.0  76    -7.6  0     0     977.0    NA       0.0000   9999     6140  0     0    
2019/06/20  10:08:00  BASE  1.24068  34   1.63464  36   -4.0  77    -7.5  0     0     977.0    NA       0.0000   9999     6140  0     0    
2019/06/20  10:09:00  BASE  1.01136  28   1.63464  36   -3.9  77    -7.4  0     0     977.0    NA       0.0000   9999     0     0     0    
2019/06/20  10:10:00  BASE  0.9408   23   1.63464  36   -3.9  77    -7.3  0     0     977.0    NA       0.0000   9999     0     0     0    
2019/06/20  10:11:00  BASE  1.01136  19   1.63464  36   -3.8  77    -7.3  0     0     977.0    NA       0.0000   9999     6230  0     0    
2019/06/20  10:12:00  BASE  1.0878   14   1.63464  36   -3.8  77    -7.3  0     0     977.0    NA       0.0000   9999     6170  0     0    
2019/06/20  10:13:00  BASE  1.09368  8    1.63464  36   -3.8  77    -7.2  0     0     976.9    NA       0.0000   9999     6230  0     0    
2019/06/20  10:14:00  BASE  1.04664  3    1.63464  36   -3.8  77    -7.2  0     0     976.9    NA       0.0000   9999     6270  0     0    
2019/06/20  10:15:00  BASE  1.14072  7    1.63464  36   -3.8  78    -7.1  0     0     976.8    NA       0.0000   9999     6270  0     0    
2019/06/20  10:16:00  BASE  1.28184  14   1.51116  40   -3.8  78    -7.1  0     0     976.8    NA       0.0000   9999     6230  0     0    
2019/06/20  10:17:00  BASE  1.3524   11   1.54056  8    -3.8  78    -7.1  0     0     976.8    NA       0.0000   9999     0     0     0    
2019/06/20  10:18:00  BASE  1.54644  13   1.87572  24   -3.8  77    -7.1  0     0     976.8    NA       0.0000   9999     6300  0     0    
2019/06/20  10:19:00  BASE  1.81692  23   2.26968  24   -3.8  77    -7.2  0     0     976.8    NA       0.0000   9999     6200  0     0    
2019/06/20  10:20:00  BASE  1.97568  27   2.26968  24   -3.9  77    -7.3  0     0     976.9    NA       0.0000   9999     6200  0     0    
2019/06/20  10:21:00  BASE  2.14032  29   2.48136  28   -4.0  78    -7.3  0     0     976.9    NA       0.0000   9999     0     0     0    
2019/06/20  10:22:00  BASE  2.21676  29   2.48136  28   -4.0  78    -7.3  0     0     977.0    NA       0.0000   9999     6170  0     0    
2019/06/20  10:23:00  BASE  1.9698   34   2.48136  28   -4.0  78    -7.2  0     0     977.0    NA       0.0000   9999     0     0     0    
2019/06/20  10:24:00  BASE  1.81104  41   2.48136  28   -4.1  79    -7.2  0     0     977.0    NA       0.0000   9999     0     0     0    
2019/06/20  10:25:00  BASE  1.84632  42   2.48136  28   -4.1  79    -7.2  0     0     977.0    NA       0.0000   9999     0     0     0    
2019/06/20  10:26:00  BASE  1.84044  41   2.48136  28   -4.2  79    -7.3  0     0     977.1    NA       0.0000   9999     0     0     0    
2019/06/20  10:27:00  BASE  1.81104  40   2.48136  28   -4.2  79    -7.3  0     0     977.1    NA       0.0000   9999     0     0     0    
2019/06/20  10:28:00  BASE  1.84632  35   2.48136  28   -4.2  79    -7.3  0     0     977.1    NA       0.0000   9999     0     0     0    
2019/06/20  10:29:00  BASE  2.02272  32   2.66364  35   -4.3  79    -7.4  0     0     977.1    NA       0.0000   9999     0     0     0    
2019/06/20  10:30:00  BASE  2.27556  37   2.75184  39   -4.3  79    -7.4  0     0     977.1    NA       0.0000   9999     0     0     0    
2019/06/20  10:31:00  BASE  2.31084  47   2.75184  39   -4.3  79    -7.4  0     0     977.2    NA       0.0000   9999     0     0     0    
2019/06/20  10:32:00  BASE  2.24028  50   2.75184  39   -4.4  79    -7.5  0     0     977.1    NA       0.0000   9999     0     0     0    
2019/06/20  10:33:00  BASE  2.34612  45   3.234    47   -4.5  79    -7.5  0     0     977.1    NA       0.0000   9999     0     0     0    
2019/06/20  10:34:00  BASE  2.45784  47   3.234    47   -4.5  79    -7.6  0     0     977.2    NA       0.0000   9999     0     0     0    
2019/06/20  10:35:00  BASE  3.7926   47   5.95644  50   -4.6  79    -7.7  0     0     977.1    NA       0.0000   9999     0     0     0    
2019/06/20  10:36:00  BASE  5.51544  39   6.47388  36   -4.8  79    -7.9  0     0     977.1    NA       0.0000   9999     0     0     0    
2019/06/20  10:37:00  BASE  5.81532  38   6.47388  36   -4.9  79    -8.0  0     0     977.1    NA       0.0000   9999     0     0     0    
2019/06/20  10:38:00  BASE  5.15676  40   6.47388  36   -5.1  79    -8.2  0     0     977.1    NA       0.0000   9999     0     0     0    
2019/06/20  10:39:00  BASE  4.25124  53   6.47388  36   -5.1  79    -8.2  0     0     977.2    NA       0.0000   9999     0     0     0    
2019/06/20  10:40:00  BASE  4.02192  55   6.47388  36   -5.1  79    -8.1  0     0     977.2    NA       0.0000   9999     0     0     0    
2019/06/20  10:41:00  BASE  4.40412  40   6.47388  36   -5.0  79    -8.1  0     0     977.2    NA       0.0000   9999     0     0     0    
2019/06/20  10:42:00  BASE  5.19204  36   6.47388  36   -4.9  79    -8.1  0     0     977.2    NA       0.0000   9999     0     0     0    
2019/06/20  10:43:01  BASE  5.59776  39   6.47388  36   -4.9  78    -8.1  0     0     977.2    NA       0.0000   9999     0     0     0    
2019/06/20  10:44:00  BASE  5.49192  41   6.47388  36   -5.0  78    -8.2  0     0     977.3    NA       0.0000   9999     0     0     0    
2019/06/20  10:45:00  BASE  5.45664  43   6.47388  36   -5.0  78    -8.3  0     0     977.3    NA       0.0000   9999     0     0     0    
2019/06/20  10:46:00  BASE  5.28024  48   6.2034   35   -5.1  78    -8.3  0     0     977.3    NA       0.0000   9999     0     0     0    
2019/06/20  10:47:00  BASE  4.9098   56   6.10932  34   -5.1  79    -8.3  0     0     977.3    NA       0.0000   9999     0     0     0    
2019/06/20  10:48:00  BASE  4.3512   62   6.10932  34   -5.1  79    -8.2  0     0     977.3    NA       0.0000   9999     0     0     0    
2019/06/20  10:49:00  BASE  4.07484  61   6.10932  34   -5.1  79    -8.1  0     0     977.3    NA       0.0000   9999     0     0     0    
2019/06/20  10:50:00  BASE  3.98076  59   6.10932  34   -5.0  79    -8.1  0     0     977.3    NA       0.0000   9999     0     0     0    
2019/06/20  10:51:00  BASE  3.08112  67   6.10932  34   -4.9  79    -8.0  0     0     977.3    NA       0.0000   9999     0     0     0    
2019/06/20  10:52:00  BASE  2.08152  81   5.99172  37   -4.8  79    -8.0  0     0     977.3    NA       0.0000   9999     0     0     0    
2019/06/20  10:53:00  BASE  2.05212  83   5.92704  43   -4.8  79    -8.0  0     0     977.4    NA       0.0000   9999     0     0     0    
2019/06/20  10:54:00  BASE  2.52252  83   5.92704  43   -4.8  78    -8.0  0     0     977.4    NA       0.0000   9999     0     0     0    
2019/06/20  10:55:00  BASE  3.38688  83   5.68596  45   -4.9  78    -8.1  0     0     977.4    NA       0.0000   9999     0     0     0    
2019/06/20  10:56:00  BASE  3.4692   83   5.292    68   -5.0  78    -8.2  0     0     977.4    NA       0.0000   9999     0     0     0    
2019/06/20  10:57:00  BASE  3.28104  82   5.2332   62   -5.1  78    -8.3  0     0     977.4    NA       0.0000   9999     0     0     0    
2019/06/20  10:58:00  BASE  3.31632  77   5.2332   62   -5.1  78    -8.3  0     0     977.3    NA       0.0000   9999     0     0     0    
2019/06/20  10:59:00  BASE  2.83416  77   5.2332   62   -5.0  78    -8.2  0     0     977.3    NA       0.0000   9999     0     0     0    
2019/06/20  11:00:00  BASE  2.38728  72   5.2332   62   -4.8  78    -8.0  0     0     977.3    NA       0.0000   9999     0     0     0    
2019/06/20  11:01:00  BASE  1.92864  63   5.2332   62   -4.7  78    -7.9  0     0     977.3    NA       0.0000   9999     0     0     0    
2019/06/20  11:02:00  BASE  1.62288  61   5.2332   62   -4.5  78    -7.7  0     0     977.3    NA       0.0000   9999     0     0     0    
2019/06/20  11:03:00  BASE  1.6464   65   5.2332   62   -4.3  78    -7.6  0     0     977.3    NA       0.0000   9999     0     0     0    
2019/06/20  11:04:00  BASE  1.90512  66   5.2332   62   -4.2  77    -7.6  0     0     977.3    NA       0.0000   9999     0     0     0    
2019/06/20  11:05:00  BASE  1.94628  70   4.29828  67   -4.2  77    -7.7  0     0     977.3    NA       0.0000   9999     0     0     0    
2019/06/20  11:06:00  BASE  1.95216  72   4.29828  67   -4.3  77    -7.8  0     0     977.3    NA       0.0000   9999     0     0     0    
2019/06/20  11:07:00  BASE  1.911    76   3.35748  73   -4.3  76    -7.9  0     0     977.3    NA       0.0000   9999     0     0     0    
2019/06/20  11:08:00  BASE  1.94628  80   3.1164   69   -4.4  76    -7.9  0     0     977.3    NA       0.0000   9999     0     0     0    
2019/06/20  11:09:00  BASE  2.1462   85   2.45196  79   -4.4  76    -7.9  0     0     977.3    NA       0.0000   9999     0     0     0    
2019/06/20  11:10:00  BASE  2.16972  91   2.45196  79   -4.4  76    -7.9  0     0     977.3    NA       0.0000   9999     0     0     0    
2019/06/20  11:11:00  BASE  2.1168   89   2.45196  79   -4.3  76    -7.9  0     0     977.3    NA       0.0000   9999     0     0     0    
2019/06/20  11:12:00  BASE  1.9404   99   2.45196  79   -4.3  76    -7.9  0     0     977.3    NA       0.0000   9999     0     0     0    
2019/06/20  11:13:00  BASE  1.52292  119  2.45196  79   -4.3  76    -7.9  0     0     977.3    NA       0.0000   9999     0     0     0    
2019/06/20  11:14:00  BASE  1.12308  122  2.45196  79   -4.2  76    -7.8  0     0     977.3    NA       0.0000   9999     0     0     0    
2019/06/20  11:15:00  BASE  0.99372  125  2.45196  79   -4.1  76    -7.8  0     0     977.3    NA       0.0000   9999     0     0     0    
2019/06/20  11:16:00  BASE  1.029    131  2.45196  79   -4.1  76    -7.8  0     0     977.3    NA       0.0000   9999     0     0     0    
2019/06/20  11:17:00  BASE  0.90552  132  2.45196  79   -4.2  76    -7.8  0     0     977.3    NA       0.0000   9999     0     0     0    
2019/06/20  11:18:00  BASE  0.49392  136  2.45196  79   -4.2  76    -7.9  0     0     977.3    NA       0.0000   9999     0     0     0    
2019/06/20  11:19:00  BASE  0.4116   136  2.42256  83   -4.3  76    -8.0  0     0     977.3    NA       0.0000   9999     0     0     0    
2019/06/20  11:20:00  BASE  0.79968  141  2.42256  83   -4.4  76    -8.0  0     0     977.3    NA       0.0000   9999     0     0     0    
2019/06/20  11:21:00  BASE  1.09956  146  2.058    107  -4.4  76    -8.0  0     0     977.3    NA       0.0000   9999     0     0     0    
2019/06/20  11:22:00  BASE  1.32888  146  1.69344  144  -4.5  77    -8.0  0     0     977.3    NA       0.0000   9999     0     0     0    
2019/06/20  11:23:00  BASE  1.32888  146  1.69344  138  -4.5  77    -7.9  0     0     977.4    NA       0.0000   9999     0     0     0    
2019/06/20  11:24:00  BASE  1.27596  142  1.69344  138  -4.5  77    -7.9  0     0     977.4    NA       0.0000   9999     0     0     0    
2019/06/20  11:25:00  BASE  1.27596  135  1.69344  138  -4.6  78    -7.9  0     0     977.4    NA       0.0000   9999     0     0     0    
2019/06/20  11:26:00  BASE  1.1466   126  1.69344  138  -4.6  78    -7.9  0     0     977.4    NA       0.0000   9999     0     0     0    
2019/06/20  11:27:00  BASE  1.09368  118  1.69344  138  -4.5  78    -7.7  0     0     977.4    NA       0.0000   9999     0     0     0    
2019/06/20  11:28:00  BASE  1.21716  122  1.69344  138  -4.5  78    -7.7  0     0     977.4    NA       0.0000   9999     0     0     0    
2019/06/20  11:29:00  BASE  1.21716  126  1.69344  138  -4.4  78    -7.6  0     0     977.4    NA       0.0000   9999     0     0     0    
2019/06/20  11:30:00  BASE  1.17012  133  1.69344  138  -4.3  79    -7.5  0     0     977.4    NA       0.0000   9999     0     0     0    
2019/06/20  11:31:00  BASE  1.08192  146  1.69344  138  -4.2  79    -7.3  0     0     977.5    NA       0.0000   9999     0     0     0    
2019/06/20  11:32:00  BASE  0.92316  147  1.69344  138  -4.1  79    -7.3  0     0     977.6    NA       0.0000   9999     0     0     0    
2019/06/20  11:33:00  BASE  0.57036  152  1.57584  140  -4.0  79    -7.1  0     0     977.6    NA       0.0000   9999     0     0     0    
2019/06/20  11:34:00  BASE  0.1176   164  1.51116  140  -3.9  78    -7.1  0     0     977.6    NA       0.0000   9999     0     0     0    
2019/06/20  11:35:00  BASE  0        174  1.48176  128  -3.8  78    -7.1  0     0     977.6    NA       0.0000   9999     0     0     0    
2019/06/20  11:36:00  BASE  0        182  1.48176  128  -3.8  77    -7.2  0     0     977.7    NA       0.0000   9999     0     0     0    
2019/06/20  11:37:00  BASE  0        190  1.48176  128  -3.8  77    -7.2  0     0     977.7    NA       0.0000   9999     0     0     0    
2019/06/20  11:38:00  BASE  0        212  1.42296  152  -3.8  77    -7.3  0     0     977.7    NA       0.0000   9999     0     0     0    
2019/06/20  11:39:00  BASE  0.0294   271  1.42296  152  -3.8  77    -7.3  0     0     977.7    NA       0.0000   9999     0     0     0    
2019/06/20  11:40:00  BASE  0.43512  325  1.21128  351  -3.8  76    -7.4  0     0     977.7    NA       0.0000   9999     0     0     0    
2019/06/20  11:41:00  BASE  0.89964  348  1.21128  351  -3.9  76    -7.4  0     0     977.8    NA       0.0000   9999     0     0     0    
2019/06/20  11:42:00  BASE  0.9996   344  1.21128  351  -3.9  77    -7.4  0     0     977.8    NA       0.0000   9999     0     0     0    
2019/06/20  11:43:00  BASE  0.98784  344  1.21128  351  -3.9  77    -7.3  0     0     977.8    NA       0.0000   9999     0     0     0    
2019/06/20  11:44:00  BASE  0.69384  350  1.21128  351  -4.0  78    -7.3  0     0     977.9    NA       0.0000   9999     0     0     0    
2019/06/20  11:45:00  BASE  0.74676  345  1.45236  336  -4.0  79    -7.1  0     0     977.9    NA       0.0000   9999     0     0     0    
2019/06/20  11:46:00  BASE  1.09368  359  1.45236  336  -4.0  80    -7.0  0     0     977.9    NA       0.0000   9999     0     0     0    
2019/06/20  11:47:00  BASE  1.176    25   1.51116  33   -4.1  80    -7.0  0     0     977.9    NA       0.0000   9999     0     0     0    
2019/06/20  11:48:00  BASE  1.17012  23   1.51116  33   -4.2  81    -7.0  0     0     977.9    NA       0.0000   9999     0     0     0    
2019/06/20  11:49:00  BASE  1.09956  17   1.51116  33   -4.3  81    -7.0  0     0     977.9    NA       0.0000   9999     11120 0     0    
2019/06/20  11:50:00  BASE  1.08192  23   1.54056  26   -4.4  81    -7.1  0     0     977.9    NA       0.0000   9999     11020 0     0    
2019/06/20  11:51:00  BASE  1.06428  28   1.54056  26   -4.5  82    -7.1  0     0     977.9    NA       0.0000   9999     11060 0     0    
2019/06/20  11:52:00  BASE  1.86396  20   3.41628  15   -4.5  82    -7.2  0     0     977.9    NA       0.0000   9999     10890 0     0    
2019/06/20  11:53:00  BASE  2.7636   18   3.41628  15   -4.6  82    -7.1  0     0     978.0    NA       0.0000   9999     10890 0     0    
2019/06/20  11:54:00  BASE  3.61032  29   5.2332   35   -4.6  82    -7.1  0     0     978.0    NA       0.0000   9999     0     0     0    
2019/06/20  11:55:00  BASE  4.66872  37   5.41548  39   -4.6  82    -7.2  0     0     977.9    NA       0.0000   9999     10930 0     0    
2019/06/20  11:56:00  BASE  5.13324  35   6.07992  27   -4.7  82    -7.3  0     0     977.9    NA       0.0000   9999     10930 0     0    
2019/06/20  11:57:00  BASE  5.5272   31   6.07992  27   -4.6  82    -7.3  0     0     977.9    NA       0.0000   9999     10890 0     0    
2019/06/20  11:58:00  BASE  5.4684   31   6.07992  27   -4.6  81    -7.4  0     0     977.9    NA       0.0000   9999     10890 0     0    
2019/06/20  11:59:00  BASE  5.50368  32   6.53268  33   -4.6  81    -7.4  0     0     978.0    NA       0.0000   9999     10930 0     0    
2019/06/20  12:00:00  BASE  5.3802   33   6.53268  33   -4.6  80    -7.5  0     0     978.1    NA       0.0000   9999     10960 0     0    
2019/06/20  12:01:00  BASE  4.39236  37   6.53268  33   -4.5  80    -7.5  0     0     978.1    NA       0.0000   9999     10990 0     0    
2019/06/20  12:02:00  BASE  4.08072  36   6.53268  33   -4.4  79    -7.5  0     0     978.1    NA       0.0000   9999     11020 0     0    
2019/06/20  12:03:00  BASE  4.07484  33   6.53268  33   -4.5  79    -7.6  0     0     978.2    NA       0.0000   9999     10990 0     0    
2019/06/20  12:04:00  BASE  3.969    33   6.53268  33   -4.5  79    -7.6  0     0     978.2    NA       0.0000   9999     11090 0     0    
2019/06/20  12:05:00  BASE  4.3218   32   6.53268  33   -4.5  78    -7.7  0     0     978.2    NA       0.0000   9999     11020 0     0    
2019/06/20  12:06:00  BASE  4.84512  30   6.53268  33   -4.5  78    -7.8  0     0     978.1    NA       0.0000   9999     10960 0     0    
2019/06/20  12:07:00  BASE  4.86864  27   6.53268  33   -4.5  78    -7.8  0     0     978.2    NA       0.0000   9999     11090 0     0    
2019/06/20  12:08:00  BASE  4.8216   27   6.53268  33   -4.5  78    -7.8  0     0     978.2    NA       0.0000   9999     11120 0     0    
2019/06/20  12:09:00  BASE  5.36844  27   6.3504   31   -4.5  78    -7.8  0     0     978.2    NA       0.0000   9999     11120 0     0    
2019/06/20  12:10:00  BASE  5.50368  24   6.3504   31   -4.5  78    -7.8  0     0     978.2    NA       0.0000   9999     11090 0     0    
2019/06/20  12:11:00  BASE  5.25084  23   6.3504   31   -4.5  78    -7.8  0     0     978.2    NA       0.0000   9999     11120 0     0    
2019/06/20  12:12:00  BASE  5.35668  25   6.3504   31   -4.4  77    -7.8  0     0     978.2    NA       0.0000   9999     11090 0     0    
2019/06/20  12:13:00  BASE  5.9976   31   6.89724  40   -4.5  77    -7.9  0     0     978.2    NA       0.0000   9999     11090 0     0    
2019/06/20  12:14:00  BASE  6.83844  35   7.68516  36   -4.6  76    -8.1  0     0     978.2    NA       0.0000   9999     11120 0     0    
2019/06/20  12:15:00  BASE  7.51464  32   8.3202   26   -4.7  76    -8.3  0     0     978.2    NA       0.0000   9999     11090 0     0    
2019/06/20  12:16:00  BASE  7.76748  31   8.3202   23   -4.9  75    -8.6  0     0     978.2    NA       0.0000   9999     11220 0     0    
2019/06/20  12:17:00  BASE  8.09088  29   8.98464  27   -5.2  75    -8.9  0     0     978.2    NA       0.0000   9999     11190 0     0    
2019/06/20  12:18:00  BASE  8.33784  27   8.98464  27   -5.3  75    -9.1  0     0     978.2    NA       0.0000   9999     11190 0     0    
2019/06/20  12:19:00  BASE  7.72044  26   8.98464  27   -5.5  75    -9.2  0     0     978.2    NA       0.0000   9999     11060 0     0    
2019/06/20  12:20:00  BASE  7.38528  26   8.98464  27   -5.5  75    -9.2  0     0     978.3    NA       0.0000   9999     11160 0     0    
2019/06/20  12:21:00  BASE  7.70868  31   8.98464  27   -5.4  76    -9.0  0     0     978.3    NA       0.0000   9999     3250  11190 0    
2019/06/20  12:22:00  BASE  7.42644  33   8.98464  27   -5.4  76    -8.9  0     0     978.3    NA       0.0000   9999     3280  11190 0    
2019/06/20  12:23:00  BASE  7.10892  33   8.98464  27   -5.4  77    -8.9  0     0     978.3    NA       0.0000   9999     3250  11190 0    
2019/06/20  12:24:00  BASE  7.24416  34   8.98464  27   -5.4  77    -8.8  0     0     978.3    NA       0.0000   9999     3280  11250 0    
2019/06/20  12:25:00  BASE  7.27944  33   8.98464  27   -5.3  77    -8.7  0     0     978.3    NA       0.0000   9999     11250 0     0    
2019/06/20  12:26:00  BASE  6.85608  33   8.98464  27   -5.3  77    -8.7  0     0     978.4    NA       0.0000   9999     11250 0     0    
2019/06/20  12:27:00  BASE  6.33276  35   8.83176  30   -5.3  77    -8.7  0     0     978.4    NA       0.0000   9999     11250 0     0    
2019/06/20  12:28:00  BASE  6.51504  36   8.64948  28   -5.3  77    -8.7  0     0     978.5    NA       0.0000   9999     11290 0     0    
2019/06/20  12:29:00  BASE  6.3798   33   8.64948  28   -5.2  77    -8.6  0     0     978.5    NA       0.0000   9999     11350 0     0    
2019/06/20  12:30:00  BASE  5.99172  33   8.64948  28   -5.1  77    -8.5  0     0     978.5    NA       0.0000   9999     11350 0     0    
2019/06/20  12:31:00  BASE  6.2622   39   8.04384  32   -5.1  77    -8.4  0     0     978.5    NA       0.0000   9999     11390 0     0    
2019/06/20  12:32:00  BASE  6.83256  40   7.86744  28   -5.1  77    -8.4  0     0     978.5    NA       0.0000   9999     0     0     0    
2019/06/20  12:33:00  BASE  7.30296  39   8.04384  39   -5.1  77    -8.4  0     0     978.5    NA       0.0000   9999     0     0     0    
2019/06/20  12:34:00  BASE  7.52052  38   8.77296  32   -5.1  77    -8.5  0     0     978.5    NA       0.0000   9999     11390 0     0    
2019/06/20  12:35:00  BASE  7.60872  33   8.77296  32   -5.2  77    -8.6  0     0     978.5    NA       0.0000   9999     11350 0     0    
2019/06/20  12:36:00  BASE  8.33196  32   10.8016  30   -5.2  77    -8.6  0     0     978.5    NA       0.0000   9999     0     0     0    
2019/06/20  12:37:00  BASE  9.09636  33   10.8016  30   -5.2  77    -8.6  0     0     978.5    NA       0.0000   9999     11390 0     0    
2019/06/20  12:38:00  BASE  9.31392  33   11.4366  33   -5.3  77    -8.6  0     0     978.5    NA       0.0000   9999     11420 0     0    
2019/06/20  12:39:00  BASE  9.64908  33   11.4366  33   -5.3  77    -8.6  0     0     978.4    NA       0.0000   9999     0     0     0    
2019/06/20  12:40:00  BASE  9.09636  32   11.4366  33   -5.4  77    -8.7  0     0     978.6    NA       0.0000   9999     0     0     0    
2019/06/20  12:41:00  BASE  8.19084  35   11.4366  33   -5.4  77    -8.8  0     0     978.6    NA       0.0000   9999     0     0     0    
2019/06/20  12:42:00  BASE  7.6734   40   11.4366  33   -5.5  77    -8.9  0     0     978.8    NA       0.0000   9999     9650  11610 0    
2019/06/20  12:43:00  BASE  7.97916  41   11.4366  33   -5.6  77    -9.0  0     0     978.7    NA       0.0000   9999     9580  0     0    
2019/06/20  12:44:00  BASE  8.46132  41   11.4366  33   -5.6  77    -9.0  0     0     978.7    NA       0.0000   9999     11250 0     0    
2019/06/20  12:45:00  BASE  8.4672   42   11.4366  33   -5.7  77    -9.1  0     0     978.6    NA       0.0000   9999     11160 0     0    
2019/06/20  12:46:00  BASE  8.76708  43   11.4366  33   -5.7  77    -9.1  0     0     978.7    NA       0.0000   9999     11840 0     0    
2019/06/20  12:47:00  BASE  9.01404  40   11.4366  33   -5.8  77    -9.2  0     0     978.6    NA       0.0000   9999     11710 0     0    
2019/06/20  12:48:00  BASE  8.4378   41   11.3425  34   -5.7  77    -9.1  0     0     978.7    NA       0.0000   9999     11750 0     0    
2019/06/20  12:49:00  BASE  7.83216  44   10.2547  37   -5.6  77    -9.0  0     0     978.7    NA       0.0000   9999     6040  0     0    
2019/06/20  12:50:00  BASE  7.59108  41   10.2547  37   -5.6  77    -9.0  0     0     978.8    NA       0.0000   9999     5970  0     0    
2019/06/20  12:51:00  BASE  7.50288  37   10.2547  37   -5.6  77    -8.9  0     0     978.7    NA       0.0000   9999     5940  0     0    
2019/06/20  12:52:00  BASE  7.6146   37   10.2547  37   -5.5  77    -8.9  0     0     978.7    NA       0.0000   9999     9450  0     0    
2019/06/20  12:53:00  BASE  7.13244  38   10.2547  37   -5.5  77    -8.9  0     0     978.7    NA       0.0000   9999     9450  0     0    
2019/06/20  12:54:00  BASE  6.66792  37   10.2547  37   -5.5  77    -8.8  0     0     978.7    NA       0.0000   9999     9450  0     0    
2019/06/20  12:55:00  BASE  6.8208   32   10.2547  37   -5.3  77    -8.7  0     0     978.7    NA       0.0000   9999     9420  0     0    
2019/06/20  12:56:00  BASE  7.07364  33   10.0724  41   -5.2  78    -8.5  0     0     978.8    NA       0.0000   9999     9480  0     0    
2019/06/20  12:57:00  BASE  7.16184  38   8.67888  40   -5.1  78    -8.4  0     0     978.8    NA       0.0000   9999     5770  0     0    
2019/06/20  12:58:00  BASE  6.94428  42   8.67888  40   -5.0  78    -8.2  0     0     978.8    NA       0.0000   9999     5810  0     0    
2019/06/20  12:59:00  BASE  6.39156  42   8.67888  40   -4.8  78    -8.1  0     0     978.8    NA       0.0000   9999     5450  0     0    
2019/06/20  13:00:00  BASE  5.80356  35   8.67888  40   -4.8  78    -8.1  0     0     978.8    NA       0.0000   9999     5450  0     0    
2019/06/20  13:01:00  BASE  5.63304  35   8.3202   40   -4.7  77    -8.1  0     0     978.9    NA       0.0000   9999     5280  0     0    
2019/06/20  13:02:00  BASE  5.90352  36   7.92624  41   -4.7  77    -8.1  0     0     978.9    NA       0.0000   9999     5150  0     0    
2019/06/20  13:03:00  BASE  6.2328   31   7.92624  41   -4.6  76    -8.1  0     0     978.8    NA       0.0000   9999     4860  0     0    
2019/06/20  13:04:00  BASE  6.42096  30   7.92624  41   -4.5  76    -8.1  0     0     978.8    NA       0.0000   9999     5350  0     0    
2019/06/20  13:05:00  BASE  6.62088  31   8.07912  40   -4.5  76    -8.1  0     0     978.9    NA       0.0000   9999     9710  0     0    
2019/06/20  13:06:00  BASE  7.19124  32   9.59028  33   -4.5  76    -8.1  0     0     978.9    NA       0.0000   9999     9680  0     0    
2019/06/20  13:07:00  BASE  9.01404  36   11.4366  33   -4.5  76    -8.2  0     0     978.8    NA       0.0000   9999     6430  0     0    
2019/06/20  13:08:00  BASE  10.2488  38   12.0364  48   -4.6  75    -8.3  0     0     978.8    NA       0.0000   9999     6500  0     0    
2019/06/20  13:09:00  BASE  10.2194  37   12.0364  48   -4.7  75    -8.4  0     0     978.8    NA       0.0000   9999     5320  0     0    
2019/06/20  13:10:00  BASE  9.80196  37   12.0364  48   -4.8  75    -8.5  0     0     978.8    NA       0.0000   9999     6400  0     0    
2019/06/20  13:11:00  BASE  9.18456  39   12.0364  48   -4.9  75    -8.6  0     0     978.9    NA       0.0000   9999     6270  0     0    
2019/06/20  13:12:00  BASE  8.45544  40   12.0364  48   -5.0  76    -8.6  0     0     978.9    NA       0.0000   9999     5640  0     0    
2019/06/20  13:13:00  BASE  7.5264   40   12.0364  48   -5.0  76    -8.6  0     0     978.9    NA       0.0000   9999     5680  0     0    
2019/06/20  13:14:00  BASE  7.13244  41   12.0364  48   -5.0  76    -8.6  0     0     979.0    NA       0.0000   9999     4890  0     0    
2019/06/20  13:15:00  BASE  7.00896  41   12.0364  48   -5.0  76    -8.6  0     0     979.0    NA       0.0000   9999     4590  0     0    
2019/06/20  13:16:00  BASE  6.55032  39   12.0364  48   -5.0  76    -8.5  0     0     979.0    NA       0.0000   9999     4490  0     0    
2019/06/20  13:17:00  BASE  6.48564  43   12.0364  48   -4.9  76    -8.4  0     0     979.0    NA       0.0000   9999     3050  0     0    
2019/06/20  13:18:00  BASE  7.2618   45   11.86    34   -4.9  76    -8.4  0     0     979.0    NA       0.0000   9999     4790  0     0    
2019/06/20  13:19:00  BASE  7.83216  39   10.437   41   -4.8  77    -8.3  0     0     978.9    NA       0.0000   9999     2990  0     0    
2019/06/20  13:20:00  BASE  7.80276  38   10.1665  36   -4.8  77    -8.3  0     0     979.0    NA       0.0000   9999     2820  0     0    
2019/06/20  13:21:00  BASE  8.0556   42   9.70788  39   -4.8  76    -8.3  0     0     979.0    NA       0.0000   9999     2790  0     0    
2019/06/20  13:22:00  BASE  8.7024   40   9.70788  33   -4.8  76    -8.3  0     0     979.0    NA       0.0000   9999     4230  0     0    
2019/06/20  13:23:00  BASE  8.72592  39   9.70788  33   -4.8  77    -8.3  0     0     979.0    NA       0.0000   9999     4040  0     0    
2019/06/20  13:24:00  BASE  8.03796  38   9.70788  33   -4.8  77    -8.3  0     0     979.1    NA       0.0000   9999     4070  0     0    
2019/06/20  13:25:00  BASE  6.78552  37   9.70788  33   -4.9  77    -8.3  0     0     979.1    NA       0.0000   9999     2130  0     0    
2019/06/20  13:26:00  BASE  6.0858   41   9.70788  33   -4.9  77    -8.3  0     0     979.1    NA       0.0000   9999     1900  0     0    
2019/06/20  13:27:00  BASE  6.39744  41   9.70788  33   -5.0  77    -8.4  0     0     979.1    NA       0.0000   9999     3870  0     0    
2019/06/20  13:28:00  BASE  6.71496  41   9.70788  33   -5.0  77    -8.3  0     0     979.1    NA       0.0000   9999     2000  0     0    
2019/06/20  13:29:00  BASE  5.86236  45   9.70788  33   -5.0  77    -8.3  0     0     979.2    NA       0.0000   9999     1840  0     0    
2019/06/20  13:30:00  BASE  5.25672  46   9.70788  33   -5.0  78    -8.3  0     0     979.2    NA       0.0000   9999     2000  0     0    
2019/06/20  13:31:00  BASE  5.74476  37   9.70788  33   -5.0  78    -8.2  0     0     979.1    NA       0.0000   9999     2000  0     0    
2019/06/20  13:32:00  BASE  5.83884  33   9.59028  40   -4.9  78    -8.2  0     0     979.2    NA       0.0000   9999     2100  0     0    
2019/06/20  13:33:00  BASE  5.3802   38   8.92584  40   -4.9  78    -8.2  0     0     979.2    NA       0.0000   9999     3610  0     0    
2019/06/20  13:34:00  BASE  5.59776  38   7.47348  41   -4.8  77    -8.2  0     0     979.2    NA       0.0000   9999     3770  0     0    
2019/06/20  13:35:00  BASE  6.1446   37   7.47348  35   -4.7  77    -8.2  0     0     979.2    NA       0.0000   9999     3840  0     0    
2019/06/20  13:36:00  BASE  7.39116  40   9.3786   45   -4.8  76    -8.3  0     0     979.2    NA       0.0000   9999     3640  0     0    
2019/06/20  13:37:00  BASE  8.33784  41   9.3786   45   -4.8  76    -8.4  0     0     979.3    NA       0.0000   9999     3540  0     0    
2019/06/20  13:38:00  BASE  7.84392  40   9.3786   45   -4.9  76    -8.5  0     0     979.3    NA       0.0000   9999     3670  0     0    
2019/06/20  13:39:00  BASE  7.00308  38   9.3786   45   -5.0  76    -8.5  0     0     979.3    NA       0.0000   9999     3810  0     0    
2019/06/20  13:40:00  BASE  7.02072  34   9.3786   45   -5.0  77    -8.5  1     0     979.3    NA       0.0000   9999     3840  0     0    
2019/06/20  13:41:00  BASE  7.38528  36   9.3786   45   -5.0  77    -8.4  1     0     979.4    NA       0.0000   9999     3770  0     0    
2019/06/20  13:42:00  BASE  7.53816  38   9.3786   45   -4.9  77    -8.3  1     0     979.3    NA       0.0000   9999     3870  0     0    
2019/06/20  13:43:00  BASE  7.86744  35   9.3786   45   -4.9  77    -8.3  1     0     979.3    NA       0.0000   9999     3900  0     0    
2019/06/20  13:44:00  BASE  7.94388  35   9.3786   45   -4.9  77    -8.2  1     0     979.3    NA       0.0000   9999     2330  0     0    
2019/06/20  13:45:00  BASE  8.07324  37   9.3786   45   -5.0  78    -8.3  1     0     979.3    NA       0.0000   9999     2400  0     0    
2019/06/20  13:46:00  BASE  7.92624  36   8.77296  37   -5.0  78    -8.3  1     0     979.4    NA       0.0000   9999     2360  0     0    
2019/06/20  13:47:00  BASE  7.56756  36   8.77296  37   -5.1  78    -8.3  1     0     979.4    NA       0.0000   9999     2200  0     0    
2019/06/20  13:48:00  BASE  7.4676   36   8.77296  37   -5.1  78    -8.3  1     0     979.4    NA       0.0000   9999     2170  0     0    
2019/06/20  13:49:00  BASE  7.21476  39   8.77296  37   -5.1  78    -8.3  1     0     979.5    NA       0.0000   9999     1640  0     0    
2019/06/20  13:50:00  BASE  7.46172  37   9.22572  35   -5.1  78    -8.3  1     0     979.5    NA       0.0000   9999     2230  0     0    
2019/06/20  13:51:00  BASE  8.52012  36   9.83136  33   -5.1  78    -8.3  1     0     979.4    NA       0.0000   9999     2170  0     0    
2019/06/20  13:52:00  BASE  8.87292  37   9.83136  33   -5.1  78    -8.3  1     0     979.4    NA       0.0000   9999     2130  0     0    
2019/06/20  13:53:00  BASE  8.45544  34   9.83136  33   -5.1  78    -8.4  1     0     979.5    NA       0.0000   9999     2230  0     0    
2019/06/20  13:54:00  BASE  8.16732  34   9.83136  33   -5.1  78    -8.4  1     0     979.5    NA       0.0000   9999     2030  3120  0    
2019/06/20  13:55:00  BASE  7.97916  40   9.83136  33   -5.1  78    -8.3  1     0     979.5    NA       0.0000   9999     2130  3080  0    
2019/06/20  13:56:00  BASE  7.03248  42   9.83136  33   -5.1  78    -8.3  1     0     979.4    NA       0.0000   9999     2100  3120  0    
2019/06/20  13:57:00  BASE  7.16772  40   9.83136  33   -5.1  78    -8.3  1     0     979.6    NA       0.0000   9999     1570  3050  0    
2019/06/20  13:58:00  BASE  8.10264  36   9.83136  33   -5.0  78    -8.3  1     0     979.5    NA       0.0000   9999     1440  3080  0    
2019/06/20  13:59:00  BASE  7.89096  31   9.83136  33   -5.0  78    -8.3  1     0     979.6    NA       0.0000   9999     1480  0     0    
2019/06/20  14:00:00  BASE  7.056    35   9.83136  33   -5.0  78    -8.2  1     0     979.7    NA       0.0000   9999     2260  3220  0    
2019/06/20  14:01:00  BASE  6.21516  41   9.4668   43   -5.0  78    -8.1  1     0     979.7    NA       0.0000   9999     1670  0     0    
2019/06/20  14:02:00  BASE  6.16812  44   9.4668   43   -4.9  79    -8.1  1     0     979.7    NA       0.0000   9999     1310  2330  0    
2019/06/20  14:03:00  BASE  6.30336  36   9.4668   43   -4.8  79    -8.0  1     0     979.7    NA       0.0000   9999     1210  2330  0    
2019/06/20  14:04:00  BASE  6.65616  30   9.4668   43   -4.8  79    -7.9  1     0     979.6    NA       0.0000   9999     1020  2330  3250 
2019/06/20  14:05:00  BASE  6.70908  32   9.4668   43   -4.7  79    -7.9  1     0     979.7    NA       0.0000   9999     1540  2230  0    
2019/06/20  14:06:00  BASE  6.47388  35   9.4668   43   -4.7  78    -7.9  1     0     979.7    NA       0.0000   9999     980   2170  0    
2019/06/20  14:07:00  BASE  6.69732  39   9.04344  40   -4.7  78    -7.9  2     0     979.6    NA       0.0000   9999     920   2070  0    
2019/06/20  14:08:00  BASE  6.51504  38   8.10852  36   -4.7  78    -7.9  2     0     979.8    NA       0.0000   9999     2070  2920  0    
2019/06/20  14:09:00  BASE  5.81532  37   7.86744  42   -4.7  78    -7.9  2     0     979.8    NA       0.0000   9999     2000  3250  0    
2019/06/20  14:10:00  BASE  5.48604  37   7.86744  42   -4.7  78    -8.0  2     0     979.8    NA       0.0000   9999     1610  3080  0    
2019/06/20  14:11:00  BASE  5.733    37   7.86744  42   -4.7  78    -7.9  2     0     979.8    NA       0.0000   9999     1510  3080  0    
2019/06/20  14:12:00  BASE  6.47976  37   7.86744  42   -4.7  78    -7.9  2     0     979.7    NA       0.0000   9999     1540  3080  0    
2019/06/20  14:13:00  BASE  6.62088  34   7.86744  42   -4.6  79    -7.8  2     0     979.7    NA       0.0000   9999     1250  3050  0    
2019/06/20  14:14:00  BASE  5.9682   29   7.86744  42   -4.6  79    -7.7  2     0     979.7    NA       0.0000   9999     1120  2560  0    
2019/06/20  14:15:00  BASE  5.29788  28   7.86744  42   -4.5  79    -7.7  2     0     979.8    NA       0.0000   9999     1080  0     0    
2019/06/20  14:16:00  BASE  5.10384  29   7.86744  42   -4.4  78    -7.7  2     0     979.8    NA       0.0000   9999     1310  3050  0    
2019/06/20  14:17:00  BASE  5.28612  28   7.59108  36   -4.4  78    -7.7  2     0     979.8    NA       0.0000   9999     1280  2330  0    
2019/06/20  14:18:00  BASE  4.8804   26   7.59108  36   -4.4  77    -7.7  2     0     979.8    NA       0.0000   9999     1380  0     0    
2019/06/20  14:19:00  BASE  4.44528  30   7.59108  36   -4.3  77    -7.7  2     0     979.8    NA       0.0000   9999     1410  3150  0    
2019/06/20  14:20:00  BASE  4.13952  37   7.59108  36   -4.3  77    -7.7  2     0     979.8    NA       0.0000   9999     1440  0     0    
2019/06/20  14:21:00  BASE  4.05132  32   7.59108  36   -4.2  77    -7.7  2     0     979.8    NA       0.0000   9999     2820  0     0    
2019/06/20  14:22:00  BASE  4.06308  24   6.80316  28   -4.2  77    -7.7  2     0     979.8    NA       0.0000   9999     2430  3120  0    
2019/06/20  14:23:00  BASE  4.57464  27   6.80316  28   -4.1  76    -7.7  2     0     979.8    NA       0.0000   9999     2360  3250  0    
2019/06/20  14:24:00  BASE  6.1446   31   7.65576  32   -4.1  76    -7.7  2     0     979.8    NA       0.0000   9999     2200  3220  0    
2019/06/20  14:25:00  BASE  7.19124  28   8.13792  29   -4.1  76    -7.7  2     0     979.8    NA       0.0000   9999     2360  3250  0    
2019/06/20  14:26:00  BASE  7.36176  22   8.92584  25   -4.2  76    -7.8  2     0     979.7    NA       0.0000   9999     2170  3220  0    
2019/06/20  14:27:00  BASE  6.8502   20   8.92584  25   -4.3  76    -7.8  2     0     979.4    NA       0.0000   9999     2100  3050  0    
2019/06/20  14:28:00  BASE  6.56208  21   8.92584  25   -4.4  77    -7.9  2     0     979.8    NA       0.0000   9999     2130  3020  0    
2019/06/20  14:29:00  BASE  6.89136  23   8.92584  25   -4.4  77    -7.9  2     0     979.8    NA       0.0000   9999     2430  3080  0    
2019/06/20  14:30:00  BASE  6.8796   25   8.92584  25   -4.5  77    -7.9  2     0     979.8    NA       0.0000   9999     2530  3280  0    
2019/06/20  14:31:00  BASE  7.13244  26   8.92584  25   -4.5  77    -7.9  2     0     979.8    NA       0.0000   9999     2360  3410  0    
2019/06/20  14:32:00  BASE  7.39116  27   8.92584  25   -4.5  78    -7.9  2     0     979.8    NA       0.0000   9999     2170  3380  0    
2019/06/20  14:33:00  BASE  7.68516  26   8.92584  25   -4.6  78    -7.9  3     0     979.8    NA       0.0000   9999     2030  3540  0    
2019/06/20  14:34:00  BASE  8.12616  27   9.19632  26   -4.6  78    -7.8  3     0     979.8    NA       0.0000   9999     2330  3580  0    
2019/06/20  14:35:00  BASE  8.13792  27   9.19632  26   -4.7  78    -7.8  3     0     979.8    NA       0.0000   9999     2200  0     0    
2019/06/20  14:36:00  BASE  8.085    26   9.19632  26   -4.7  79    -7.8  3     0     979.8    NA       0.0000   9999     2130  0     0    
2019/06/20  14:37:00  BASE  8.967    24   10.3782  23   -4.7  79    -7.7  3     0     979.7    NA       0.0000   9999     1970  3510  0    
2019/06/20  14:38:00  BASE  9.26688  22   10.3782  23   -4.7  79    -7.7  3     0     979.8    NA       0.0000   9999     2000  3310  0    
2019/06/20  14:39:00  BASE  8.56716  19   10.3782  23   -4.7  80    -7.7  3     0     979.8    NA       0.0000   -SN      9999  2070  0    
2019/06/20  14:40:00  BASE  8.72004  21   10.3782  23   -4.7  80    -7.6  3     0     979.8    NA       0.0000   -SN      9999  2070  0    
2019/06/20  14:41:00  BASE  8.673    24   10.3782  23   -4.7  80    -7.6  3     0     979.8    NA       0.0000   -SN      9999  2000  0    
2019/06/20  14:42:00  BASE  8.0262   23   10.3782  23   -4.7  80    -7.6  3     0     979.9    NA       0.0000   -SN      9999  1770  0    
2019/06/20  14:43:00  BASE  7.54992  22   10.3782  23   -4.7  80    -7.5  3     0     979.9    NA       0.0000   -SN      9999  1970  0    
2019/06/20  14:44:00  BASE  6.73848  25   10.3782  23   -4.6  81    -7.4  4     0     980.0    NA       0.0000   -SN      9999  0     0    
2019/06/20  14:45:00  BASE  6.22104  26   10.3782  23   -4.6  81    -7.3  4     0     980.0    NA       0.0000   -SN      9999  0     0    
2019/06/20  14:46:00  BASE  6.174    22   10.3782  23   -4.6  82    -7.2  4     0     980.0    NA       0.0000   -SN      9999  0     0    
2019/06/20  14:47:00  BASE  6.03288  20   9.80196  23   -4.5  82    -7.1  4     0     980.0    NA       0.0000   -SN      9999  0     0    
2019/06/20  14:48:00  BASE  5.97996  22   9.80196  23   -4.5  83    -7.0  4     0     980.1    NA       0.0000   -SN      9999  0     0    
2019/06/20  14:49:00  BASE  6.37392  19   9.89016  19   -4.5  83    -7.0  4     0     980.0    NA       0.0000   -SN      9999  0     0    
2019/06/20  14:50:00  BASE  7.36176  20   9.89016  19   -4.4  83    -7.0  4     0     979.7    NA       0.0000   -SN      9999  0     0    
2019/06/20  14:51:00  BASE  8.44956  25   9.89016  19   -4.4  82    -7.0  4     0     979.9    NA       0.0000   -SN      9999  0     0    
2019/06/20  14:52:00  BASE  8.93172  25   9.89016  19   -4.5  82    -7.1  4     0     979.9    NA       0.0000   -SN      9999  0     0    
2019/06/20  14:53:00  BASE  8.47308  25   9.89016  19   -4.5  82    -7.1  4     0     980.0    NA       0.0000   -SN      9999  0     0    
2019/06/20  14:54:00  BASE  8.21436  27   9.91956  29   -4.6  82    -7.2  4     0     980.0    NA       0.0000   -SN      9999  0     0    
2019/06/20  14:55:00  BASE  8.6142   30   10.1665  29   -4.6  82    -7.2  5     0     980.0    NA       0.0000   -SN      9999  0     0    
2019/06/20  14:56:00  BASE  8.49072  29   10.1665  29   -4.7  82    -7.3  5     0     980.1    NA       0.0000   -SN      9999  2660  0    
2019/06/20  14:57:00  BASE  8.96112  28   10.6781  26   -4.7  82    -7.3  5     0     980.0    NA       0.0000   -SN      9000  2200  0    
2019/06/20  14:58:00  BASE  9.0552   27   10.6781  26   -4.8  82    -7.4  5     0     980.1    NA       0.0000   -SN      9999  0     0    
2019/06/20  14:59:00  BASE  7.19124  30   10.6781  26   -4.9  82    -7.5  5     0     980.3    NA       0.0000   -SN      9000  2760  0    
2019/06/20  15:00:00  BASE  6.22692  30   10.6781  26   -5.0  82    -7.6  5     0     980.2    NA       0.0000   -SN      8000  0     0    
2019/06/20  15:01:00  BASE  7.2618   27   10.6781  26   -5.0  82    -7.6  5     0     980.1    NA       0.0000   -SN      9000  3120  0    
2019/06/20  15:02:00  BASE  8.85528  27   10.6781  26   -5.1  82    -7.7  5     0     980.0    NA       0.0000   -SN      9999  0     0    
2019/06/20  15:03:00  BASE  9.38448  31   10.6781  26   -5.1  82    -7.7  5     0     980.1    NA       0.0000   -SN      9999  0     0    
2019/06/20  15:04:00  BASE  8.81412  35   10.6781  26   -5.1  82    -7.7  5     0     980.2    NA       0.0000   -SN      8000  0     0    
2019/06/20  15:05:00  BASE  8.82588  30   11.613   25   -5.1  82    -7.7  6     0     980.1    NA       0.0000   -SN      8000  0     0    
2019/06/20  15:06:00  BASE  9.34332  29   11.613   25   -5.1  82    -7.7  6     0     980.1    NA       0.0000   -SN      9000  2070  2760 
2019/06/20  15:07:00  BASE  8.73768  28   11.613   25   -5.1  82    -7.7  6     0     980.2    NA       0.0000   -SN      8000  2000  2990 
2019/06/20  15:08:00  BASE  7.12068  26   11.613   25   -5.1  82    -7.7  6     0     980.3    NA       0.0000   -SN      8000  2170  2820 
2019/06/20  15:09:00  BASE  7.33824  30   11.613   25   -5.0  82    -7.6  6     0     980.2    NA       0.0000   -SN      9999  2100  2950 
2019/06/20  15:10:00  BASE  8.85528  31   11.613   25   -5.1  82    -7.7  6     0     980.1    NA       0.0000   -SN      9999  1940  0    
2019/06/20  15:11:00  BASE  9.49032  30   11.613   25   -5.1  82    -7.7  6     0     980.1    NA       0.0000   -SN      9999  1900  2790 
2019/06/20  15:12:00  BASE  9.90192  28   11.613   25   -5.0  82    -7.6  6     0     980.0    NA       0.0000   -SN      9999  1770  2690 
2019/06/20  15:13:00  BASE  9.9372   29   11.613   25   -5.1  82    -7.7  7     0     980.1    NA       0.0000   -SN      9999  1840  2660 
2019/06/20  15:14:00  BASE  10.2606  27   12.1598  25   -5.1  82    -7.7  7     0     980.0    NA       0.0000   -SN      9999  1710  2490 
2019/06/20  15:15:00  BASE  10.537   25   12.1598  25   -5.1  82    -7.7  7     0     980.1    NA       0.0000   9999     1670  2330  0    
2019/06/20  15:16:00  BASE  10.0842  27   12.1598  25   -5.1  82    -7.7  7     0     980.1    NA       0.0000   9999     1740  2460  0    
2019/06/20  15:17:00  BASE  10.0842  32   12.1598  25   -5.1  81    -7.8  7     0     980.1    NA       0.0000   9999     1840  3180  0    
2019/06/20  15:18:00  BASE  10.3076  32   12.3421  27   -5.1  81    -7.8  7     0     980.0    NA       0.0000   9999     2430  3540  0    
2019/06/20  15:19:00  BASE  10.5134  27   12.3421  27   -5.1  81    -7.9  7     0     980.0    NA       0.0000   9999     2330  3180  0    
2019/06/20  15:20:00  BASE  10.2194  26   12.3421  27   -5.1  81    -7.9  7     0     980.1    NA       0.0000   9999     2000  3310  0    
2019/06/20  15:21:00  BASE  9.62556  28   12.3421  27   -5.1  81    -7.9  7     0     980.2    NA       0.0000   9999     2030  3220  0    
2019/06/20  15:22:00  BASE  9.85488  29   12.3421  27   -5.1  81    -7.9  7     0     980.1    NA       0.0000   9999     1350  3250  0    
2019/06/20  15:23:00  BASE  9.0258   31   12.3421  27   -5.1  81    -7.8  7     0     980.3    NA       0.0000   9999     2100  3380  0    
2019/06/20  15:24:00  BASE  7.59696  36   12.3421  27   -5.1  82    -7.7  7     0     980.4    NA       0.0000   9999     2300  3350  0    
2019/06/20  15:25:00  BASE  7.6146   34   12.3421  27   -5.0  82    -7.6  7     0     980.3    NA       0.0000   9999     1180  3310  0    
2019/06/20  15:26:00  BASE  7.9086   30   12.3421  27   -4.9  82    -7.5  7     0     980.3    NA       0.0000   9999     2260  3380  0    
2019/06/20  15:27:00  BASE  7.60872  29   12.3421  27   -4.8  82    -7.4  7     0     980.4    NA       0.0000   9999     1940  3310  0    
2019/06/20  15:28:00  BASE  7.43232  31   11.7365  27   -4.8  82    -7.4  7     0     980.4    NA       0.0000   9999     1970  3380  0    
2019/06/20  15:29:00  BASE  7.42644  31   11.1014  32   -4.7  82    -7.4  7     0     980.4    NA       0.0000   9999     1800  0     0    
2019/06/20  15:30:00  BASE  7.97328  27   11.1014  32   -4.7  81    -7.4  7     0     980.3    NA       0.0000   9999     1900  0     0    
2019/06/20  15:31:00  BASE  9.40212  26   11.2543  27   -4.7  81    -7.5  7     0     980.2    NA       0.0000   9999     2000  0     0    
2019/06/20  15:32:00  BASE  9.63732  27   11.2543  27   -4.8  81    -7.6  7     0     980.2    NA       0.0000   9999     1940  0     0    
2019/06/20  15:33:00  BASE  9.1434   26   11.2543  27   -4.8  81    -7.6  7     0     980.3    NA       0.0000   9999     1410  0     0    
2019/06/20  15:34:00  BASE  9.39036  28   11.2543  27   -4.9  81    -7.7  7     0     980.3    NA       0.0000   9999     1570  0     0    
2019/06/20  15:35:00  BASE  9.38448  29   11.2543  27   -5.0  81    -7.7  7     0     980.2    NA       0.0000   9999     1870  0     0    
2019/06/20  15:36:00  BASE  8.86116  28   11.2543  27   -5.0  81    -7.8  8     0     980.3    NA       0.0000   -SN      9999  2400  0    
2019/06/20  15:37:00  BASE  8.66712  28   11.2543  27   -5.0  81    -7.8  8     0     980.3    NA       0.0000   -SN      9999  1380  2530 
2019/06/20  15:38:00  BASE  9.36096  29   11.8247  24   -5.0  81    -7.8  8     0     980.3    NA       0.0000   -SN      9999  1770  2620 
2019/06/20  15:39:00  BASE  10.0666  27   11.8247  24   -5.0  81    -7.8  8     0     980.2    NA       0.0000   -SN      9000  1940  0    
2019/06/20  15:40:00  BASE  10.4782  24   11.8247  24   -5.0  81    -7.7  8     0     980.2    NA       0.0000   -SN      9999  2330  0    
2019/06/20  15:41:00  BASE  10.4252  24   11.8247  24   -5.0  81    -7.7  8     0     980.3    NA       0.0000   -SN      9999  2590  0    
2019/06/20  15:42:00  BASE  10.0195  25   11.8247  24   -5.0  81    -7.8  8     0     980.3    NA       0.0000   -SN      9999  0     0    
2019/06/20  15:43:00  BASE  10.0313  24   11.8247  24   -5.0  81    -7.7  8     0     980.3    NA       0.0000   -SN      9999  0     0    
2019/06/20  15:44:00  BASE  9.81372  23   11.8247  24   -5.0  81    -7.8  8     0     980.3    NA       0.0000   -SN      9999  1210  2620 
2019/06/20  15:45:00  BASE  9.38448  24   11.8247  24   -5.0  81    -7.8  8     0     980.3    NA       0.0000   -SN      9999  2300  0    
2019/06/20  15:46:00  BASE  9.35508  25   11.8247  24   -5.0  81    -7.8  7     0     980.3    NA       0.0000   -SN      9999  2760  0    
2019/06/20  15:47:00  BASE  9.81372  24   11.8247  24   -5.0  81    -7.8  7     0     980.3    NA       0.0000   -SN      9999  2720  0    
2019/06/20  15:48:00  BASE  9.85488  24   11.4954  22   -5.1  81    -7.9  7     0     980.4    NA       0.0000   -SN      9999  2660  0    
2019/06/20  15:49:00  BASE  9.51384  25   11.4366  22   -5.1  80    -7.9  7     0     980.4    NA       0.0000   -SN      9999  2660  3450 
2019/06/20  15:50:00  BASE  10.0783  25   11.4366  22   -5.1  80    -7.9  7     0     980.3    NA       0.0000   9999     2620  3380  0    
2019/06/20  15:51:00  BASE  10.9133  22   11.9482  16   -5.1  81    -7.9  7     0     980.3    NA       0.0000   9999     2620  3510  0    
2019/06/20  15:52:00  BASE  11.3543  21   12.495   17   -5.1  81    -7.9  7     0     980.3    NA       0.0000   9999     2690  0     0    
2019/06/20  15:53:00  BASE  12.201   22   13.5534  24   -5.1  81    -8.0  7     0     980.2    NA       0.0000   9999     2230  0     0    
2019/06/20  15:54:00  BASE  12.0952  24   13.5534  24   -5.2  81    -8.0  7     0     980.4    NA       0.0000   9999     2170  0     0    
2019/06/20  15:55:00  BASE  11.319   25   13.5534  24   -5.2  81    -8.0  7     0     980.4    NA       0.0000   9999     2490  0     0    
2019/06/20  15:56:00  BASE  11.7188  25   13.5828  26   -5.2  81    -8.0  7     0     980.3    NA       0.0000   9999     2560  0     0    
2019/06/20  15:57:00  BASE  12.1892  25   13.5828  26   -5.2  81    -8.0  7     0     980.2    NA       0.0000   9999     2530  0     0    
2019/06/20  15:58:00  BASE  11.9717  26   13.5828  26   -5.3  81    -8.0  7     0     980.3    NA       0.0000   9999     2530  0     0    
2019/06/20  15:59:00  BASE  11.7894  27   13.5828  26   -5.3  81    -8.1  7     0     980.4    NA       0.0000   9999     2490  0     0    
2019/06/20  16:00:00  BASE  11.419   25   13.5828  26   -5.3  81    -8.1  7     0     980.4    NA       0.0000   9999     2530  0     0    
2019/06/20  16:01:01  BASE  11.3366  24   13.6122  29   -5.3  81    -8.1  7     0     980.4    NA       0.0000   9999     2590  0     0    
2019/06/20  16:02:01  BASE  12.1775  26   14.065   27   -5.3  81    -8.1  7     0     980.3    NA       0.0000   9999     2590  0     0    
2019/06/20  16:03:01  BASE  12.5479  26   14.065   27   -5.3  81    -8.0  7     0     980.3    NA       0.0000   9999     2660  0     0    
2019/06/20  16:04:01  BASE  12.0011  26   14.065   27   -5.3  81    -8.0  7     0     980.4    NA       0.0000   9999     2490  0     0    
2019/06/20  16:05:01  BASE  11.566   25   14.065   27   -5.3  81    -8.0  7     0     980.4    NA       0.0000   9999     2590  0     0    
2019/06/20  16:06:01  BASE  11.1132  25   14.065   27   -5.3  81    -8.1  7     0     980.4    NA       0.0000   9999     2690  0     0    
2019/06/20  16:07:01  BASE  10.8956  25   14.065   27   -5.3  81    -8.1  7     0     980.4    NA       0.0000   9999     2590  0     0    
2019/06/20  16:08:01  BASE  10.7251  25   14.065   27   -5.3  81    -8.1  7     0     980.4    NA       0.0000   -SN      9999  2560  0    
2019/06/20  16:09:01  BASE  10.043   25   14.065   27   -5.3  81    -8.1  7     0     980.5    NA       0.0000   -SN      9999  2430  0    
2019/06/20  16:10:01  BASE  10.7545  24   14.065   27   -5.3  81    -8.1  7     0     980.3    NA       0.0000   -SN      9999  1570  0    
2019/06/20  16:11:01  BASE  11.0897  24   14.065   27   -5.3  81    -8.1  7     0     980.4    NA       0.0000   -SN      9999  2720  0    
2019/06/20  16:12:01  BASE  11.3014  27   13.2476  24   -5.3  81    -8.0  7     0     980.3    NA       0.0000   -SN      9999  2690  0    
2019/06/20  16:13:01  BASE  11.5718  30   13.2182  29   -5.3  81    -8.1  7     0     980.4    NA       0.0000   -SN      9999  2690  0    
2019/06/20  16:14:01  BASE  10.9074  30   13.2182  29   -5.3  81    -8.1  7     0     980.3    NA       0.0000   -SN      9999  2660  0    
2019/06/20  16:15:01  BASE  11.0662  29   13.2182  29   -5.3  81    -8.1  7     0     980.3    NA       0.0000   -SN      9999  0     0    
2019/06/20  16:16:01  BASE  11.1779  26   13.2182  29   -5.4  81    -8.1  7     0     980.3    NA       0.0000   -SN      9999  0     0    
2019/06/20  16:17:01  BASE  10.8721  22   13.2182  29   -5.4  81    -8.1  7     0     980.3    NA       0.0000   -SN      9999  0     0    
2019/06/20  16:18:01  BASE  9.4374   20   13.2182  29   -5.3  81    -8.1  7     0     980.5    NA       0.0000   -SN      9999  0     0    
2019/06/20  16:19:01  BASE  9.07284  24   13.2182  29   -5.3  81    -8.0  7     0     980.4    NA       0.0000   -SN      9999  0     0    
2019/06/20  16:20:00  BASE  10.5017  25   13.2182  29   -5.2  81    -7.9  7     0     980.3    NA       0.0000   -SN      9999  0     0    
2019/06/20  16:21:00  BASE  10.9015  23   13.2182  29   -5.1  81    -7.9  7     0     980.3    NA       0.0000   -SN      9999  0     0    
2019/06/20  16:22:00  BASE  10.5193  23   12.5538  26   -5.1  81    -7.8  7     0     980.3    NA       0.0000   -SN      9999  0     0    
2019/06/20  16:23:00  BASE  9.72552  24   12.5538  26   -5.0  81    -7.8  6     0     980.4    NA       0.0000   -SN      9999  0     0    
2019/06/20  16:24:00  BASE  9.09636  27   12.5538  26   -5.0  80    -7.9  6     0     980.4    NA       0.0000   -SN      9999  0     0    
2019/06/20  16:25:00  BASE  8.1144   31   12.1304  21   -5.0  80    -7.9  6     0     980.6    NA       0.0000   -SN      9999  0     0    
2019/06/20  16:26:00  BASE  7.74984  31   12.1304  21   -5.1  80    -8.0  6     0     980.5    NA       0.0000   -SN      9999  0     0    
2019/06/20  16:27:00  BASE  8.7318   29   12.1304  21   -5.1  80    -8.0  6     0     980.5    NA       0.0000   -SN      9999  0     0    
2019/06/20  16:28:00  BASE  9.89016  29   12.1304  21   -5.1  80    -8.0  6     0     980.4    NA       0.0000   -SN      9999  0     0    
2019/06/20  16:29:00  BASE  11.125   29   12.8537  35   -5.1  80    -8.1  6     0     980.3    NA       0.0000   -SN      9999  0     0    
2019/06/20  16:30:00  BASE  11.3896  25   12.8537  35   -5.2  80    -8.1  6     0     980.3    NA       0.0000   -SN      9999  0     0    
2019/06/20  16:31:00  BASE  11.0132  26   13.1594  24   -5.2  80    -8.1  6     0     980.4    NA       0.0000   9999     2300  0     0    
2019/06/20  16:32:00  BASE  10.7604  28   13.1594  24   -5.3  80    -8.2  6     0     980.4    NA       0.0000   9999     0     0     0    
2019/06/20  16:33:00  BASE  9.86076  28   13.1594  24   -5.3  80    -8.2  6     0     980.5    NA       0.0000   9999     2200  0     0    
2019/06/20  16:34:00  BASE  9.9372   28   13.1594  24   -5.3  80    -8.2  6     0     980.4    NA       0.0000   9999     1900  0     0    
2019/06/20  16:35:01  BASE  10.7486  27   13.1594  24   -5.3  80    -8.2  6     0     980.4    NA       0.0000   9999     1970  0     0    
2019/06/20  16:36:00  BASE  9.85488  30   13.1594  24   -5.3  80    -8.3  6     0     980.6    NA       0.0000   9999     1870  0     0    
2019/06/20  16:37:00  BASE  8.98464  35   13.1594  24   -5.3  80    -8.2  6     0     980.6    NA       0.0000   9999     1940  0     0    
2019/06/20  16:38:00  BASE  9.54912  33   13.1594  24   -5.3  80    -8.1  6     0     980.4    NA       0.0000   9999     1970  0     0    
2019/06/20  16:39:01  BASE  10.4488  32   13.1594  24   -5.2  80    -8.1  6     0     980.5    NA       0.0000   9999     1740  0     0    
2019/06/20  16:40:01  BASE  9.77844  33   13.1594  24   -5.2  80    -8.1  6     0     980.6    NA       0.0000   9999     1840  0     0    
2019/06/20  16:41:01  BASE  8.2026   33   12.495   26   -5.2  80    -8.0  6     0     980.7    NA       0.0000   9999     1770  0     0    
2019/06/20  16:42:01  BASE  8.27904  36   12.495   26   -5.1  80    -8.0  6     0     980.6    NA       0.0000   9999     1640  0     0    
2019/06/20  16:43:01  BASE  9.65496  35   12.495   26   -5.1  80    -8.0  6     0     980.5    NA       0.0000   9999     1840  0     0    
2019/06/20  16:44:01  BASE  9.41388  33   11.6483  41   -5.1  80    -8.0  6     0     980.6    NA       0.0000   9999     1670  2850  0    
2019/06/20  16:45:01  BASE  8.69652  35   11.6483  41   -5.1  80    -8.0  7     0     980.7    NA       0.0000   9999     1510  3280  0    
2019/06/20  16:46:01  BASE  9.01992  36   11.6483  41   -5.0  80    -7.9  6     0     980.6    NA       0.0000   9999     1440  2170  0    
2019/06/20  16:47:01  BASE  8.72004  37   11.6483  41   -5.0  80    -7.9  6     0     980.7    NA       0.0000   9999     980   1570  0    
2019/06/20  16:48:01  BASE  8.77296  37   11.6483  41   -5.0  80    -8.0  6     0     980.7    NA       0.0000   9999     980   3050  0    
2019/06/20  16:49:01  BASE  9.20808  36   11.4366  41   -4.9  79    -8.0  6     0     980.6    NA       0.0000   -SN      9999  1840  2790 
2019/06/20  16:50:01  BASE  9.47268  35   11.4366  41   -4.9  79    -8.0  6     0     980.6    NA       0.0000   -SN      9999  1280  3150 
2019/06/20  16:51:01  BASE  9.39036  33   11.4366  41   -4.9  79    -7.9  6     0     980.6    NA       0.0000   -SN      9999  1310  3020 
2019/06/20  16:52:01  BASE  9.48444  29   11.4366  41   -4.8  79    -7.9  6     0     980.6    NA       0.0000   -SN      9999  1740  2690 
2019/06/20  16:53:01  BASE  8.6436   29   11.1602  29   -4.8  79    -7.9  6     0     980.7    NA       0.0000   -SN      9999  1640  2920 
2019/06/20  16:54:01  BASE  7.7616   28   11.1602  29   -4.8  79    -7.9  6     0     980.7    NA       0.0000   -SN      9999  1870  2890 
2019/06/20  16:55:01  BASE  8.4378   24   11.1602  29   -4.8  79    -8.0  5     0     980.6    NA       0.0000   -SN      9999  1870  2950 
2019/06/20  16:56:01  BASE  7.92624  29   11.1602  29   -4.9  79    -8.1  5     0     980.8    NA       0.0000   -SN      9999  1900  2950 
2019/06/20  16:57:01  BASE  7.87332  35   11.9188  36   -5.0  79    -8.1  5     0     980.3    NA       0.0000   -SN      9999  1870  2850 
2019/06/20  16:58:01  BASE  9.26688  33   11.9188  36   -5.0  78    -8.2  5     0     980.7    NA       0.0000   -SN      9999  1840  0    
2019/06/20  16:59:01  BASE  10.5487  33   12.9184  36   -5.1  78    -8.3  4     0     980.6    NA       0.0000   -SN      9999  2000  0    
2019/06/20  17:00:01  BASE  10.8898  33   12.9184  36   -5.2  78    -8.4  4     0     980.6    NA       0.0000   -SN      9999  1710  0    
2019/06/20  17:01:01  BASE  10.3135  33   12.9184  36   -5.2  78    -8.3  4     0     980.7    NA       0.0000   -SN      9999  2760  0    
2019/06/20  17:02:01  BASE  10.1606  29   12.9184  36   -5.2  78    -8.4  4     0     980.6    NA       0.0000   -SN      9999  2760  4000 
2019/06/20  17:03:01  BASE  9.56676  28   12.9184  36   -5.2  78    -8.3  4     0     980.7    NA       0.0000   -SN      9999  2760  0    
2019/06/20  17:04:01  BASE  9.32568  31   12.9184  36   -5.1  79    -8.3  4     0     980.6    NA       0.0000   -SN      9999  2850  0    
2019/06/20  17:05:01  BASE  9.83136  32   12.9184  36   -5.1  79    -8.2  4     0     980.7    NA       0.0000   -SN      9999  2920  0    
2019/06/20  17:06:01  BASE  10.043   29   12.9184  36   -5.1  79    -8.2  4     0     980.6    NA       0.0000   -SN      9999  2690  0    
2019/06/20  17:07:01  BASE  9.75492  28   12.9184  36   -5.1  79    -8.2  4     0     980.6    NA       0.0000   -SN      9999  1770  0    
2019/06/20  17:08:01  BASE  9.50796  30   12.9184  36   -5.1  79    -8.2  4     0     980.3    NA       0.0000   -SN      9999  1900  0    
2019/06/20  17:09:01  BASE  10.4194  32   12.7949  38   -5.1  78    -8.2  4     0     980.6    NA       0.0000   -SN      9999  2820  0    
2019/06/20  17:10:01  BASE  11.1896  33   12.7949  38   -5.1  78    -8.3  4     0     980.7    NA       0.0000   -SN      9999  2920  0    
2019/06/20  17:11:01  BASE  11.1308  31   12.7949  38   -5.2  78    -8.4  4     0     980.6    NA       0.0000   -SN      9999  2030  0    
2019/06/20  17:12:01  BASE  10.2606  32   12.7949  38   -5.2  78    -8.4  4     0     980.8    NA       0.0000   -SN      9999  1710  0    
2019/06/20  17:13:01  BASE  9.88428  36   12.7949  38   -5.2  78    -8.5  4     0     980.5    NA       0.0000   -SN      9999  1800  2690 
2019/06/20  17:14:01  BASE  10.0195  33   12.7949  38   -5.3  78    -8.5  4     0     980.7    NA       0.0000   9999     2070  0     0    
2019/06/20  17:15:01  BASE  10.7192  30   12.7949  38   -5.3  78    -8.5  4     0     980.5    NA       0.0000   9999     2590  0     0    
2019/06/20  17:16:01  BASE  11.3837  28   12.7949  38   -5.3  78    -8.5  3     0     980.3    NA       0.0000   9999     2490  0     0    
2019/06/20  17:17:01  BASE  10.6075  26   12.7949  38   -5.3  78    -8.5  3     0     980.7    NA       0.0000   9999     2560  0     0    
2019/06/20  17:18:01  BASE  9.9372   28   12.7949  38   -5.3  78    -8.5  4     0     980.8    NA       0.0000   9999     1210  0     0    
2019/06/20  17:19:01  BASE  9.69612  29   12.4656  28   -5.3  79    -8.4  3     0     980.7    NA       0.0000   9999     1150  0     0    
2019/06/20  17:20:01  BASE  9.75492  28   12.4303  25   -5.3  79    -8.4  3     0     980.8    NA       0.0000   9999     1020  0     0    
2019/06/20  17:21:01  BASE  9.77844  30   12.4303  25   -5.2  79    -8.3  3     0     980.9    NA       0.0000   9999     0     0     0    
2019/06/20  17:22:01  BASE  9.56676  33   12.4303  25   -5.2  79    -8.3  3     0     980.9    NA       0.0000   9999     2590  0     0    
2019/06/20  17:23:01  BASE  9.60204  31   12.4303  25   -5.2  79    -8.2  3     0     980.9    NA       0.0000   9999     0     0     0    
2019/06/20  17:24:01  BASE  9.97836  28   12.4303  25   -5.1  79    -8.2  3     0     980.8    NA       0.0000   9999     2660  0     0    
2019/06/20  17:25:01  BASE  9.71376  26   12.4303  25   -5.2  79    -8.2  3     0     980.9    NA       0.0000   9999     2590  0     0    
2019/06/20  17:26:01  BASE  8.2908   31   11.8894  22   -5.2  79    -8.2  3     0     981.0    NA       0.0000   9999     2560  0     0    
2019/06/20  17:27:01  BASE  7.4676   33   11.8894  22   -5.2  79    -8.2  3     0     981.1    NA       0.0000   9999     820   0     0    
2019/06/20  17:28:01  BASE  8.24376  29   11.8894  22   -5.1  80    -8.1  3     0     980.9    NA       0.0000   9999     0     0     0    
2019/06/20  17:29:01  BASE  8.94348  28   11.8894  22   -5.1  80    -8.0  3     0     980.9    NA       0.0000   9999     2460  0     0    
2019/06/20  17:30:01  BASE  9.54912  27   11.8894  22   -5.1  81    -7.9  3     0     980.9    NA       0.0000   9999     1280  0     0    
2019/06/20  17:31:01  BASE  9.80196  26   11.8894  22   -5.1  81    -7.9  3     0     980.9    NA       0.0000   9999     2560  0     0    
2019/06/20  17:32:01  BASE  9.29628  29   11.8894  22   -5.1  81    -7.9  4     0     981.0    NA       0.0000   9999     2590  0     0    
2019/06/20  17:33:01  BASE  9.26688  27   11.8894  22   -5.1  81    -7.9  4     0     980.9    NA       0.0000   9999     0     0     0    
2019/06/20  17:34:01  BASE  9.3786   26   11.4954  22   -5.2  81    -7.9  4     0     981.0    NA       0.0000   -SN      9999  0     0    
2019/06/20  17:35:01  BASE  9.57264  25   11.4954  22   -5.2  81    -8.0  4     0     980.9    NA       0.0000   -SN      9999  0     0    
2019/06/20  17:36:01  BASE  9.23748  23   11.4954  22   -5.2  81    -7.9  4     0     980.9    NA       0.0000   -SN      9999  0     0    
2019/06/20  17:37:01  BASE  9.11988  23   11.4954  22   -5.2  81    -8.0  4     0     980.9    NA       0.0000   -SN      9999  2560  0    
2019/06/20  17:38:01  BASE  9.11988  28   11.4954  22   -5.2  81    -8.0  4     0     981.0    NA       0.0000   -SN      9999  2490  0    
2019/06/20  17:39:01  BASE  8.59068  30   11.4954  22   -5.2  81    -8.0  4     0     980.9    NA       0.0000   -SN      9999  0     0    
2019/06/20  17:40:01  BASE  8.53188  28   11.3719  22   -5.3  81    -8.0  4     0     980.9    NA       0.0000   -SN      9999  0     0    
2019/06/20  17:41:01  BASE  9.0846   29   11.3719  22   -5.3  81    -8.1  4     0     980.9    NA       0.0000   -SN      9999  0     0    
2019/06/20  17:42:01  BASE  9.30804  30   11.3719  22   -5.3  81    -8.0  4     0     980.9    NA       0.0000   -SN      9999  0     0    
2019/06/20  17:43:01  BASE  8.67888  30   11.3719  22   -5.3  81    -8.1  4     0     981.0    NA       0.0000   -SN      9999  0     0    
2019/06/20  17:44:01  BASE  9.11988  28   11.3719  22   -5.3  81    -8.1  4     0     980.9    NA       0.0000   -SN      9999  0     0    
2019/06/20  17:45:01  BASE  9.65496  27   11.2837  28   -5.3  81    -8.1  4     0     980.9    NA       0.0000   -SN      9999  0     0    
2019/06/20  17:46:01  BASE  9.86076  30   11.2837  28   -5.3  81    -8.1  4     0     980.9    NA       0.0000   -SN      9999  0     0    
2019/06/20  17:47:01  BASE  9.7902   31   11.1308  27   -5.4  81    -8.1  4     0     980.9    NA       0.0000   -SN      9999  0     0    
2019/06/20  17:48:01  BASE  9.32568  32   11.1308  27   -5.4  81    -8.1  5     0     980.9    NA       0.0000   -SN      9999  0     0    
2019/06/20  17:49:01  BASE  9.79608  33   11.8247  39   -5.4  81    -8.1  5     0     980.9    NA       0.0000   -SN      9999  0     0    
2019/06/20  17:50:01  BASE  10.0666  36   11.8247  39   -5.4  81    -8.1  5     0     981.0    NA       0.0000   -SN      9000  0     0    
2019/06/20  17:51:01  BASE  9.42564  38   11.8247  39   -5.4  81    -8.1  5     0     981.1    NA       0.0000   -SN      9000  0     0    
2019/06/20  17:52:01  BASE  8.94936  36   11.8247  39   -5.4  81    -8.1  6     0     981.0    NA       0.0000   -SN      9000  0     0    
2019/06/20  17:53:01  BASE  9.01992  32   11.8247  39   -5.4  81    -8.1  6     0     980.9    NA       0.0000   -SN      9000  0     0    
2019/06/20  17:54:01  BASE  9.16104  29   11.8247  39   -5.4  81    -8.1  6     0     980.9    NA       0.0000   -SN      9999  0     0    
2019/06/20  17:55:01  BASE  10.39    27   12.2833  25   -5.4  81    -8.1  6     0     980.7    NA       0.0000   -SN      9999  0     0    
2019/06/20  17:56:01  BASE  11.2661  27   12.2833  25   -5.3  82    -8.0  6     0     980.8    NA       0.0000   -SN      9999  0     0    
2019/06/20  17:57:01  BASE  10.6252  29   12.2833  25   -5.3  82    -7.9  6     0     980.9    NA       0.0000   -SN      9999  0     0    
2019/06/20  17:58:01  BASE  10.0489  30   12.2833  25   -5.3  82    -7.9  7     0     980.9    NA       0.0000   -SN      9999  0     0    
2019/06/20  17:59:01  BASE  9.6726   31   12.2833  25   -5.3  82    -7.9  7     0     980.9    NA       0.0000   -SN      9999  0     0    
2019/06/20  18:00:01  BASE  9.70788  31   12.2833  25   -5.3  81    -8.0  7     0     980.9    NA       0.0000   -SN      9000  0     0    
2019/06/20  18:01:01  BASE  10.1842  31   12.2833  25   -5.3  81    -8.0  6     0     980.8    NA       0.0000   -SN      9000  0     0    
2019/06/20  18:02:01  BASE  10.3547  33   12.2833  25   -5.4  81    -8.1  6     0     981.0    NA       0.0000   -SN      8000  0     0    
2019/06/20  18:03:01  BASE  9.77256  34   12.2833  25   -5.4  82    -8.0  6     0     981.0    NA       0.0000   -SN      8000  0     0    
2019/06/20  18:04:01  BASE  8.10852  31   12.2833  25   -5.4  82    -8.0  6     0     981.1    NA       0.0000   -SN      9000  2230  0    
2019/06/20  18:05:01  BASE  7.90272  30   11.9776  27   -5.4  82    -8.0  6     0     980.9    NA       0.0000   -SN      9999  0     0    
2019/06/20  18:06:01  BASE  9.50796  29   11.7071  34   -5.4  82    -7.9  6     0     980.8    NA       0.0000   -SN      9999  0     0    
2019/06/20  18:07:01  BASE  9.71376  27   11.7071  34   -5.3  82    -7.9  6     0     980.9    NA       0.0000   -SN      9999  0     0    
2019/06/20  18:08:01  BASE  9.43152  26   11.7071  34   -5.3  82    -7.9  6     0     980.9    NA       0.0000   -SN      9999  0     0    
2019/06/20  18:09:01  BASE  9.6432   30   11.7071  34   -5.2  82    -7.8  6     0     980.9    NA       0.0000   -SN      9000  0     0    
2019/06/20  18:10:01  BASE  9.114    29   11.7071  34   -5.2  82    -7.8  6     0     981.0    NA       0.0000   -SN      8000  0     0    
2019/06/20  18:11:01  BASE  8.02032  27   11.7071  34   -5.2  82    -7.8  6     0     981.0    NA       0.0000   -SN      9999  0     0    
2019/06/20  18:12:01  BASE  6.34452  31   10.9486  24   -5.2  82    -7.8  6     0     981.2    NA       0.0000   -SN      9999  0     0    
2019/06/20  18:13:01  BASE  6.174    37   10.9486  24   -5.3  82    -7.8  6     0     981.2    NA       0.0000   -SN      9999  0     0    
2019/06/20  18:14:01  BASE  7.57344  35   10.9486  24   -5.3  82    -7.8  6     0     981.1    NA       0.0000   -SN      9999  0     0    
2019/06/20  18:15:01  BASE  8.46132  35   10.9486  24   -5.2  82    -7.8  5     0     981.1    NA       0.0000   -SN      9999  0     0    
2019/06/20  18:16:01  BASE  8.63772  39   10.437   26   -5.2  82    -7.8  5     0     981.1    NA       0.0000   -SN      9000  0     0    
2019/06/20  18:17:00  BASE  7.94388  38   10.437   26   -5.1  82    -7.7  5     0     981.2    NA       0.0000   -SN      8000  0     0    
2019/06/20  18:18:01  BASE  6.83256  35   10.2841  35   -5.1  82    -7.7  5     0     981.2    NA       0.0000   -SN      9000  0     0    
2019/06/20  18:19:01  BASE  5.2038   37   9.77256  35   -5.2  82    -7.8  5     0     981.2    NA       0.0000   -SN      9000  0     0    
2019/06/20  18:20:00  BASE  5.00388  37   9.77256  35   -5.2  81    -7.9  5     0     981.2    NA       0.0000   -SN      9000  0     0    
2019/06/20  18:21:01  BASE  5.49192  40   9.77256  35   -5.3  81    -8.0  4     0     981.2    NA       0.0000   -SN      8000  0     0    
2019/06/20  18:22:01  BASE  5.00976  41   9.77256  35   -5.3  81    -8.0  4     0     981.2    NA       0.0000   -SN      8000  0     0    
2019/06/20  18:23:01  BASE  4.66872  36   9.77256  35   -5.3  82    -8.0  4     0     981.2    NA       0.0000   -SN      8000  0     0    
2019/06/20  18:24:01  BASE  5.19204  30   9.77256  35   -5.3  82    -7.9  3     0     981.2    NA       0.0000   -SN      8000  0     0    
2019/06/20  18:25:01  BASE  6.48564  24   9.25512  39   -5.2  82    -7.9  3     0     981.1    NA       0.0000   HZ       8000  0     0    
2019/06/20  18:26:01  BASE  7.13244  22   9.25512  39   -5.2  81    -7.9  3     0     981.1    NA       0.0000   HZ       8000  0     0    
2019/06/20  18:27:00  BASE  6.24456  28   7.80276  20   -5.2  81    -7.9  2     0     981.2    NA       0.0000   HZ       8000  0     0    
2019/06/20  18:28:01  BASE  4.95684  37   7.80276  20   -5.2  81    -7.9  2     0     981.2    NA       0.0000   HZ       8000  0     0    
2019/06/20  18:29:00  BASE  4.47468  42   7.80276  20   -5.2  81    -7.9  2     0     981.2    NA       0.0000   HZ       8000  0     0    
2019/06/20  18:30:01  BASE  4.76868  42   7.80276  20   -5.1  82    -7.8  2     0     981.2    NA       0.0000   HZ       8000  0     0    
2019/06/20  18:31:00  BASE  5.19792  43   7.80276  20   -5.1  82    -7.7  2     0     981.3    NA       0.0000   HZ       8000  0     0    
2019/06/20  18:32:01  BASE  5.85648  42   7.80276  20   -5.1  82    -7.7  2     0     981.3    NA       0.0000   HZ       8000  0     0    
2019/06/20  18:33:00  BASE  6.30336  36   7.80276  20   -5.1  82    -7.7  1     0     981.2    NA       0.0000   HZ       8000  0     0    
2019/06/20  18:34:01  BASE  6.15048  31   7.80276  20   -5.1  81    -7.8  1     0     981.2    NA       0.0000   HZ       8000  0     0    
2019/06/20  18:35:01  BASE  5.91528  28   7.80276  20   -5.2  81    -7.9  1     0     981.2    NA       0.0000   HZ       9999  0     0    
2019/06/20  18:36:01  BASE  5.65068  29   7.44408  46   -5.2  81    -8.0  1     0     981.3    NA       0.0000   HZ       9999  0     0    
2019/06/20  18:37:01  BASE  6.04464  26   7.44408  46   -5.3  81    -8.0  1     0     981.2    NA       0.0000   HZ       9999  0     0    
2019/06/20  18:38:01  BASE  6.48564  24   7.71456  27   -5.3  81    -8.1  1     0     981.2    NA       0.0000   HZ       9999  0     0    
2019/06/20  18:39:01  BASE  6.66204  28   7.92624  27   -5.4  81    -8.1  1     0     981.2    NA       0.0000   9999     0     0     0    
2019/06/20  18:40:01  BASE  6.66204  30   7.92624  27   -5.5  81    -8.2  1     0     981.3    NA       0.0000   9999     0     0     0    
2019/06/20  18:41:01  BASE  7.04424  28   8.89056  30   -5.5  81    -8.2  1     0     981.2    NA       0.0000   9999     0     0     0    
2019/06/20  18:42:01  BASE  8.14968  26   9.10224  20   -5.5  81    -8.2  1     0     981.1    NA       0.0000   9999     0     0     0    
2019/06/20  18:43:01  BASE  8.232    26   9.10224  20   -5.5  81    -8.2  1     0     981.2    NA       0.0000   9999     0     0     0    
2019/06/20  18:44:01  BASE  7.15596  30   9.10224  20   -5.5  82    -8.2  1     0     981.3    NA       0.0000   9999     0     0     0    
2019/06/20  18:45:01  BASE  6.29748  34   9.10224  20   -5.5  82    -8.1  1     0     981.4    NA       0.0000   9999     0     0     0    
2019/06/20  18:46:01  BASE  6.50916  34   9.10224  20   -5.5  82    -8.1  1     0     981.3    NA       0.0000   9999     0     0     0    
2019/06/20  18:47:01  BASE  7.00308  30   9.10224  20   -5.5  82    -8.1  1     0     981.1    NA       0.0000   9999     0     0     0    
2019/06/20  18:48:01  BASE  7.03836  28   9.10224  20   -5.5  82    -8.1  1     0     981.3    NA       0.0000   9999     0     0     0    
2019/06/20  18:49:01  BASE  6.57972  28   9.10224  20   -5.5  82    -8.1  1     0     981.3    NA       0.0000   9999     0     0     0    
2019/06/20  18:50:01  BASE  6.10932  29   9.10224  20   -5.5  82    -8.1  1     0     981.0    NA       0.0000   9999     0     0     0    
2019/06/20  18:51:01  BASE  5.95056  30   9.10224  20   -5.5  82    -8.1  1     0     981.0    NA       0.0000   9999     0     0     0    
2019/06/20  18:52:01  BASE  6.20928  29   8.59068  16   -5.5  82    -8.1  1     0     981.3    NA       0.0000   9999     0     0     0    
2019/06/20  18:53:01  BASE  6.8502   29   7.89684  32   -5.5  81    -8.2  1     0     981.3    NA       0.0000   9999     0     0     0    
2019/06/20  18:54:01  BASE  7.09716  28   7.89684  32   -5.5  81    -8.3  1     0     981.2    NA       0.0000   9999     0     0     0    
2019/06/20  18:55:01  BASE  6.8796   24   8.3496   24   -5.6  81    -8.3  0     0     981.3    NA       0.0000   9999     0     0     0    
2019/06/20  18:56:01  BASE  7.28532  23   8.77296  26   -5.6  81    -8.3  0     0     980.9    NA       0.0000   9999     0     0     0    
2019/06/20  18:57:01  BASE  8.27316  22   9.25512  25   -5.6  81    -8.3  0     0     981.2    NA       0.0000   9999     2400  0     0    
2019/06/20  18:58:01  BASE  8.80236  22   9.3786   19   -5.6  81    -8.3  0     0     981.2    NA       0.0000   9999     0     0     0    
2019/06/20  18:59:01  BASE  8.70828  23   9.4668   23   -5.6  81    -8.3  0     0     981.2    NA       0.0000   9999     0     0     0    
2019/06/20  19:00:01  BASE  8.82     23   9.64908  23   -5.6  81    -8.3  0     0     981.2    NA       0.0000   9999     2530  0     0    
2019/06/20  19:01:01  BASE  8.83176  20   9.70788  19   -5.6  81    -8.3  0     0     981.2    NA       0.0000   9999     0     0     0    
2019/06/20  19:02:01  BASE  8.66712  21   9.70788  19   -5.6  81    -8.3  0     0     981.2    NA       0.0000   9999     0     0     0    
2019/06/20  19:03:01  BASE  8.69064  24   9.70788  19   -5.6  81    -8.3  0     0     981.2    NA       0.0000   9999     0     0     0    
2019/06/20  19:04:01  BASE  8.27316  25   9.70788  19   -5.6  81    -8.3  0     0     981.3    NA       0.0000   9999     0     0     0    
2019/06/20  19:05:01  BASE  8.2908   25   9.70788  19   -5.6  81    -8.3  0     0     981.3    NA       0.0000   9999     0     0     0    
2019/06/20  19:06:01  BASE  8.46132  22   9.70788  19   -5.6  81    -8.4  0     0     981.3    NA       0.0000   9999     0     0     0    
2019/06/20  19:07:01  BASE  8.27904  24   9.70788  19   -5.6  81    -8.4  0     0     981.3    NA       0.0000   9999     0     0     0    
2019/06/20  19:08:01  BASE  8.22024  27   9.70788  19   -5.7  81    -8.4  0     0     981.2    NA       0.0000   9999     0     0     0    
2019/06/20  19:09:01  BASE  7.50288  26   9.70788  19   -5.7  81    -8.4  0     0     980.4    NA       0.0000   9999     0     0     0    
2019/06/20  19:10:01  BASE  7.2324   25   9.70788  19   -5.7  81    -8.4  0     0     980.6    NA       0.0000   9999     0     0     0    
2019/06/20  19:11:01  BASE  8.20848  25   9.67848  22   -5.7  81    -8.5  0     0     981.3    NA       0.0000   9999     0     0     0    
2019/06/20  19:12:01  BASE  8.47896  26   9.59028  25   -5.7  81    -8.5  0     0     981.3    NA       0.0000   9999     3510  0     0    
2019/06/20  19:13:01  BASE  7.9968   27   9.59028  25   -5.7  81    -8.5  0     0     981.4    NA       0.0000   9999     3450  0     0    
2019/06/20  19:14:01  BASE  7.62636  26   9.59028  25   -5.7  81    -8.5  0     0     981.4    NA       0.0000   9999     2200  0     0    
2019/06/20  19:15:01  BASE  8.09088  27   9.5256   23   -5.7  81    -8.4  0     0     981.3    NA       0.0000   9999     2200  0     0    
2019/06/20  19:16:01  BASE  8.60244  30   9.5256   23   -5.7  81    -8.5  0     0     981.3    NA       0.0000   9999     2230  0     0    
2019/06/20  19:17:01  BASE  8.22024  29   9.5256   23   -5.7  81    -8.5  0     0     981.3    NA       0.0000   9999     11250 0     0    
2019/06/20  19:18:01  BASE  8.0262   28   9.5256   23   -5.7  81    -8.5  0     0     981.3    NA       0.0000   9999     0     0     0    
2019/06/20  19:19:01  BASE  7.98504  30   9.5256   23   -5.7  81    -8.4  0     0     981.3    NA       0.0000   9999     11220 0     0    
2019/06/20  19:20:01  BASE  8.16144  30   9.5256   23   -5.7  81    -8.4  0     0     981.3    NA       0.0000   9999     0     0     0    
2019/06/20  19:21:01  BASE  8.47896  32   9.77256  35   -5.7  81    -8.4  0     0     981.3    NA       0.0000   9999     2890  0     0    
2019/06/20  19:22:01  BASE  8.75532  32   10.1665  30   -5.7  81    -8.4  0     0     981.3    NA       0.0000   9999     2200  0     0    
2019/06/20  19:23:01  BASE  9.31392  28   10.831   26   -5.7  81    -8.4  0     0     981.2    NA       0.0000   9999     2200  0     0    
2019/06/20  19:24:01  BASE  9.8196   26   10.831   26   -5.7  81    -8.5  0     0     981.2    NA       0.0000   9999     2230  0     0    
2019/06/20  19:25:01  BASE  9.41976  27   10.831   26   -5.7  81    -8.5  0     0     981.3    NA       0.0000   9999     2300  0     0    
2019/06/20  19:26:01  BASE  8.37312  29   10.831   26   -5.7  80    -8.6  0     0     981.4    NA       0.0000   9999     2330  0     0    
2019/06/20  19:27:01  BASE  7.99092  28   10.831   26   -5.8  80    -8.6  0     0     981.4    NA       0.0000   9999     2360  0     0    
2019/06/20  19:28:01  BASE  8.94348  28   10.831   26   -5.8  80    -8.7  0     0     981.3    NA       0.0000   9999     11160 0     0    
2019/06/20  19:29:01  BASE  10.19    31   11.8894  28   -5.8  80    -8.7  0     0     981.3    NA       0.0000   9999     0     0     0    
2019/06/20  19:30:01  BASE  9.996    31   11.8894  28   -5.7  80    -8.6  0     0     981.4    NA       0.0000   9999     2920  0     0    
2019/06/20  19:31:00  BASE  9.69024  29   11.8894  28   -5.7  80    -8.6  0     0     981.3    NA       0.0000   9999     2200  0     0    
2019/06/20  19:32:00  BASE  10.0195  26   11.8894  28   -5.7  80    -8.6  0     0     981.3    NA       0.0000   9999     2170  6000  0    
2019/06/20  19:33:01  BASE  10.4311  26   11.8894  26   -5.7  80    -8.6  0     0     981.2    NA       0.0000   9999     3810  0     0    
2019/06/20  19:34:00  BASE  10.7486  26   11.8894  26   -5.7  80    -8.6  0     0     981.2    NA       0.0000   9999     0     0     0    
2019/06/20  19:35:00  BASE  10.19    28   11.8894  26   -5.7  80    -8.6  0     0     981.4    NA       0.0000   9999     2030  5910  0    
2019/06/20  19:36:01  BASE  9.39036  28   11.8894  26   -5.7  80    -8.6  0     0     981.4    NA       0.0000   9999     11090 0     0    
2019/06/20  19:37:00  BASE  8.7906   29   11.8894  26   -5.7  80    -8.6  0     0     981.4    NA       0.0000   9999     2920  0     0    
2019/06/20  19:38:01  BASE  8.4672   30   11.8894  26   -5.6  80    -8.5  0     0     981.4    NA       0.0000   9999     1740  0     0    
2019/06/20  19:39:00  BASE  8.8788   29   11.8894  26   -5.6  80    -8.5  0     0     981.4    NA       0.0000   9999     1050  2690  0    
2019/06/20  19:40:01  BASE  9.56676  28   11.8894  26   -5.6  80    -8.5  0     0     981.4    NA       0.0000   9999     2720  0     0    
2019/06/20  19:41:00  BASE  9.86076  28   11.8894  26   -5.6  80    -8.5  0     0     981.4    NA       0.0000   9999     2790  0     0    
2019/06/20  19:42:01  BASE  9.90192  27   11.8894  26   -5.6  80    -8.5  0     0     981.4    NA       0.0000   9999     2760  0     0    
2019/06/20  19:43:00  BASE  9.39624  30   11.2543  22   -5.6  80    -8.5  0     0     981.4    NA       0.0000   9999     2620  0     0    
2019/06/20  19:44:00  BASE  8.87292  32   11.0426  29   -5.6  80    -8.6  0     0     981.4    NA       0.0000   9999     1480  0     0    
2019/06/20  19:45:01  BASE  9.28452  29   11.0426  29   -5.7  80    -8.6  0     0     981.4    NA       0.0000   9999     2620  0     0    
2019/06/20  19:46:00  BASE  9.47268  28   11.0426  29   -5.6  80    -8.6  0     0     981.4    NA       0.0000   9999     1020  0     0    
2019/06/20  19:47:00  BASE  8.94936  28   11.0426  29   -5.6  80    -8.6  0     0     981.4    NA       0.0000   9999     1840  4170  11060
2019/06/20  19:48:00  BASE  8.3202   29   11.0426  29   -5.6  80    -8.6  0     0     981.5    NA       0.0000   9999     10400 0     0    
2019/06/20  19:49:00  BASE  8.4084   31   11.0426  29   -5.6  80    -8.5  0     0     981.5    NA       0.0000   9999     10370 0     0    
2019/06/20  19:50:00  BASE  8.94348  31   11.86    31   -5.7  80    -8.6  0     0     981.4    NA       0.0000   9999     4330  11060 0    
2019/06/20  19:51:00  BASE  10.0254  29   12.2833  29   -5.7  80    -8.6  0     0     981.3    NA       0.0000   9999     1480  11020 0    
2019/06/20  19:52:00  BASE  10.5311  28   12.2833  29   -5.7  80    -8.6  0     0     981.3    NA       0.0000   9999     1480  4360  11060
2019/06/20  19:53:00  BASE  9.83724  26   12.2833  29   -5.7  80    -8.6  0     0     981.4    NA       0.0000   9999     1510  4330  10990
2019/06/20  19:54:01  BASE  9.94308  25   12.2833  29   -5.7  80    -8.6  0     0     981.3    NA       0.0000   9999     1280  10990 0    
2019/06/20  19:55:01  BASE  9.95484  26   12.2833  29   -5.7  80    -8.6  0     0     981.4    NA       0.0000   9999     1280  4530  0    
2019/06/20  19:56:00  BASE  9.38448  27   12.2833  29   -5.7  80    -8.6  0     0     981.4    NA       0.0000   9999     4530  10300 11060
2019/06/20  19:57:00  BASE  8.98464  27   12.2833  29   -5.7  80    -8.6  0     0     981.5    NA       0.0000   9999     5680  10300 10930
2019/06/20  19:58:00  BASE  8.39076  28   12.2833  29   -5.7  80    -8.6  0     0     981.6    NA       0.0000   9999     4660  10270 10930
2019/06/20  19:59:00  BASE  8.07912  28   12.2833  29   -5.7  80    -8.6  0     0     981.6    NA       0.0000   9999     2620  10270 10890
2019/06/20  20:00:00  BASE  8.1144   29   12.2833  29   -5.7  80    -8.5  0     0     981.6    NA       0.0000   9999     4400  5970  9120 
2019/06/20  20:01:00  BASE  8.29668  26   11.072   25   -5.7  81    -8.5  0     0     981.6    NA       0.0000   9999     4950  9060  9450 
2019/06/20  20:02:01  BASE  8.97288  24   11.072   25   -5.6  81    -8.4  0     0     981.6    NA       0.0000   9999     4660  9060  9450 
2019/06/20  20:03:00  BASE  9.39624  25   11.072   25   -5.6  81    -8.3  0     0     981.5    NA       0.0000   9999     5610  9020  9450 
2019/06/20  20:04:00  BASE  9.41976  25   10.8016  28   -5.6  81    -8.3  0     0     981.6    NA       0.0000   9999     1770  8960  9480 
2019/06/20  20:05:00  BASE  9.29628  26   10.5546  22   -5.5  81    -8.3  0     0     981.6    NA       0.0000   9999     5680  8960  9550 
2019/06/20  20:06:00  BASE  9.20808  28   10.5546  22   -5.6  81    -8.3  0     0     981.6    NA       0.0000   9999     5610  8860  9550 
2019/06/20  20:07:00  BASE  8.77884  28   10.5546  22   -5.6  81    -8.3  0     0     981.6    NA       0.0000   9999     4430  8830  9510 
2019/06/20  20:08:00  BASE  9.10224  26   11.5248  26   -5.6  81    -8.4  0     0     981.5    NA       0.0000   9999     4430  5710  8830 
2019/06/20  20:09:00  BASE  10.1077  25   11.5248  26   -5.7  81    -8.4  0     0     981.5    NA       0.0000   9999     4530  5740  8830 
2019/06/20  20:10:00  BASE  10.1665  26   11.5248  26   -5.7  81    -8.5  0     0     981.5    NA       0.0000   9999     8860  9510  0    
2019/06/20  20:11:01  BASE  9.27864  26   11.5248  26   -5.8  81    -8.5  0     0     981.6    NA       0.0000   9999     8890  9510  0    
2019/06/20  20:12:00  BASE  8.72592  24   11.5248  26   -5.8  81    -8.5  0     0     981.6    NA       0.0000   9999     8890  9580  0    
2019/06/20  20:13:00  BASE  9.04344  24   11.5248  26   -5.8  81    -8.5  0     0     981.6    NA       0.0000   9999     8860  9580  0    
2019/06/20  20:14:00  BASE  9.16104  26   11.5248  26   -5.8  82    -8.4  0     0     981.6    NA       0.0000   9999     8920  9650  0    
2019/06/20  20:15:00  BASE  9.03168  27   11.5248  26   -5.8  82    -8.4  0     0     981.6    NA       0.0000   9999     8890  0     0    
2019/06/20  20:16:00  BASE  9.33156  27   11.5248  26   -5.8  82    -8.4  0     0     981.6    NA       0.0000   9999     4790  8860  9610 
2019/06/20  20:17:00  BASE  9.4668   27   11.5248  26   -5.8  82    -8.4  0     0     981.6    NA       0.0000   9999     8830  9610  0    
2019/06/20  20:18:00  BASE  8.84352  26   11.2543  24   -5.8  81    -8.5  0     0     981.7    NA       0.0000   9999     8790  0     0    
2019/06/20  20:19:00  BASE  8.34372  27   11.2543  24   -5.8  81    -8.5  0     0     981.7    NA       0.0000   9999     8760  0     0    
2019/06/20  20:20:00  BASE  8.60832  28   11.2543  24   -5.8  81    -8.5  0     0     981.7    NA       0.0000   9999     8890  0     0    
2019/06/20  20:21:00  BASE  9.31392  29   11.2543  24   -5.8  81    -8.5  0     0     981.7    NA       0.0000   9999     8830  0     0    
2019/06/20  20:22:00  BASE  9.3492   30   11.2543  24   -5.9  81    -8.6  0     0     981.7    NA       0.0000   9999     8790  0     0    
2019/06/20  20:23:00  BASE  8.57304  30   11.2543  24   -5.9  81    -8.6  0     0     981.7    NA       0.0000   9999     8730  0     0    
2019/06/20  20:24:00  BASE  8.44368  29   11.2543  24   -5.9  81    -8.6  0     0     981.7    NA       0.0000   9999     2660  8760  0    
2019/06/20  20:25:00  BASE  9.06108  27   11.2543  24   -5.9  81    -8.6  0     0     981.6    NA       0.0000   9999     3250  8790  0    
2019/06/20  20:26:00  BASE  9.14928  28   10.4958  31   -5.9  81    -8.6  0     0     981.7    NA       0.0000   9999     3150  8860  0    
2019/06/20  20:27:00  BASE  9.25512  30   10.4958  31   -5.9  81    -8.6  0     0     981.7    NA       0.0000   9999     2690  8760  0    
2019/06/20  20:28:00  BASE  9.39624  32   10.4958  31   -5.9  81    -8.6  0     0     981.8    NA       0.0000   9999     8730  0     0    
2019/06/20  20:29:00  BASE  8.65536  32   10.4958  31   -5.9  81    -8.6  0     0     981.8    NA       0.0000   9999     8730  0     0    
2019/06/20  20:30:00  BASE  8.36136  33   10.4958  31   -5.9  81    -8.6  0     0     981.8    NA       0.0000   9999     2560  3310  8730 
2019/06/20  20:31:00  BASE  8.94936  33   10.437   35   -5.9  81    -8.7  0     0     981.8    NA       0.0000   9999     2560  8760  0    
2019/06/20  20:32:00  BASE  9.18456  32   10.437   35   -5.9  80    -8.7  0     0     981.8    NA       0.0000   9999     2690  8660  0    
2019/06/20  20:33:00  BASE  8.70828  34   10.437   35   -6.0  80    -8.8  0     0     981.9    NA       0.0000   9999     2720  8690  0    
2019/06/20  20:34:00  BASE  7.90272  33   10.437   35   -6.0  80    -8.9  0     0     981.9    NA       0.0000   9999     8630  0     0    
2019/06/20  20:35:00  BASE  7.7028   31   10.437   35   -6.0  80    -8.9  0     0     981.9    NA       0.0000   9999     8660  0     0    
2019/06/20  20:36:00  BASE  7.73808  34   10.437   35   -6.0  80    -8.8  0     0     981.9    NA       0.0000   9999     2890  8600  0    
2019/06/20  20:37:00  BASE  7.45584  35   10.2253  36   -5.9  80    -8.8  0     0     982.0    NA       0.0000   9999     2430  3350  8560 
2019/06/20  20:38:00  BASE  7.42644  34   10.2253  36   -5.8  80    -8.7  0     0     982.0    NA       0.0000   9999     2430  3310  8530 
2019/06/20  20:39:00  BASE  7.19712  35   10.2253  36   -5.7  80    -8.6  0     0     982.0    NA       0.0000   9999     2850  3350  8500 
2019/06/20  20:40:01  BASE  6.6738   36   10.2253  36   -5.7  80    -8.6  0     0     982.1    NA       0.0000   9999     2460  0     0    
2019/06/20  20:41:00  BASE  6.36804  41   9.98424  30   -5.6  80    -8.6  0     0     982.1    NA       0.0000   9999     2530  0     0    
2019/06/20  20:42:00  BASE  6.07992  44   9.13752  31   -5.6  80    -8.6  0     0     982.1    NA       0.0000   9999     2560  0     0    
2019/06/20  20:43:00  BASE  5.87412  35   8.50248  35   -5.6  79    -8.6  0     0     982.1    NA       0.0000   9999     2620  0     0    
2019/06/20  20:44:00  BASE  6.2622   30   8.50248  35   -5.6  79    -8.6  0     0     982.0    NA       0.0000   9999     2560  0     0    
2019/06/20  20:45:00  BASE  6.56796  35   8.16732  37   -5.6  79    -8.6  0     0     982.0    NA       0.0000   9999     2760  0     0    
2019/06/20  20:46:00  BASE  6.30924  33   8.16732  37   -5.6  79    -8.7  0     0     982.0    NA       0.0000   9999     2660  0     0    
2019/06/20  20:47:00  BASE  6.65028  25   8.19672  19   -5.6  79    -8.6  0     0     981.9    NA       0.0000   9999     2590  0     0    
2019/06/20  20:48:00  BASE  6.98544  24   8.19672  19   -5.6  79    -8.6  0     0     982.0    NA       0.0000   9999     2620  0     0    
2019/06/20  20:49:00  BASE  7.15596  29   8.19672  19   -5.6  79    -8.7  0     0     982.0    NA       0.0000   9999     2850  8500  0    
2019/06/20  20:50:00  BASE  7.39116  31   8.19672  19   -5.6  79    -8.7  0     0     982.0    NA       0.0000   9999     2360  0     0    
2019/06/20  20:51:00  BASE  7.24416  36   8.19672  19   -5.6  79    -8.7  0     0     982.1    NA       0.0000   9999     2620  0     0    
2019/06/20  20:52:00  BASE  7.33824  34   8.64948  31   -5.6  79    -8.7  0     0     982.0    NA       0.0000   9999     2720  0     0    
2019/06/20  20:53:00  BASE  7.5558   32   8.64948  31   -5.6  79    -8.7  0     0     982.0    NA       0.0000   9999     2720  8460  0    
2019/06/20  20:54:01  BASE  7.72044  36   8.64948  31   -5.6  79    -8.7  0     0     982.0    NA       0.0000   9999     2790  8400  0    
2019/06/20  20:55:01  BASE  7.87332  33   8.64948  31   -5.6  79    -8.7  0     0     981.9    NA       0.0000   9999     2720  8430  0    
2019/06/20  20:56:01  BASE  8.085    29   9.19632  30   -5.7  79    -8.7  0     0     981.9    NA       0.0000   9999     2790  0     0    
2019/06/20  20:57:01  BASE  7.69104  31   9.19632  30   -5.7  79    -8.7  0     0     982.0    NA       0.0000   9999     2950  8400  0    
2019/06/20  20:58:01  BASE  6.2622   38   9.19632  30   -5.6  79    -8.6  0     0     982.1    NA       0.0000   9999     2760  7250  8370 
2019/06/20  20:59:01  BASE  6.15048  43   9.19632  30   -5.6  79    -8.6  0     0     982.0    NA       0.0000   9999     7190  8300  0    
2019/06/20  21:00:01  BASE  6.97368  40   9.19632  30   -5.6  79    -8.6  0     0     982.0    NA       0.0000   9999     2850  7190  8240 
2019/06/20  21:01:01  BASE  7.1442   37   9.19632  30   -5.6  79    -8.7  0     0     982.0    NA       0.0000   9999     2850  7190  8240 
2019/06/20  21:02:01  BASE  7.31472  34   9.19632  30   -5.6  78    -8.8  0     0     982.0    NA       0.0000   9999     7220  8170  0    
2019/06/20  21:03:01  BASE  7.34412  35   9.19632  30   -5.7  78    -8.9  0     0     982.0    NA       0.0000   9999     7190  8200  0    
2019/06/20  21:04:01  BASE  6.97368  38   9.19632  30   -5.7  78    -8.9  0     0     982.1    NA       0.0000   9999     2760  7220  8240 
2019/06/20  21:05:01  BASE  6.2328   40   9.19632  30   -5.7  78    -8.9  0     0     982.1    NA       0.0000   9999     2720  8300  0    
2019/06/20  21:06:01  BASE  5.92704  39   8.07912  31   -5.7  78    -8.9  0     0     982.1    NA       0.0000   9999     2690  7190  8270 
2019/06/20  21:07:01  BASE  5.62716  39   8.07912  31   -5.7  78    -8.9  0     0     982.1    NA       0.0000   9999     7150  8200  0    
2019/06/20  21:08:01  BASE  5.66244  37   8.07912  31   -5.7  78    -8.9  0     0     982.1    NA       0.0000   9999     7120  8200  0    
2019/06/20  21:09:01  BASE  6.23868  33   8.07912  31   -5.7  78    -8.9  0     0     982.0    NA       0.0000   9999     4660  7150  8200 
2019/06/20  21:10:01  BASE  6.0564   32   8.07912  31   -5.7  78    -8.9  0     0     982.1    NA       0.0000   9999     7190  8170  0    
2019/06/20  21:11:01  BASE  5.72712  35   8.07912  31   -5.7  78    -8.9  0     0     982.1    NA       0.0000   9999     7150  8100  0    
2019/06/20  21:12:00  BASE  6.00348  36   7.71456  37   -5.7  78    -8.8  0     0     982.1    NA       0.0000   9999     7120  8240  0    
2019/06/20  21:13:00  BASE  6.47388  34   7.80276  40   -5.7  78    -8.8  0     0     982.1    NA       0.0000   9999     7120  8170  0    
2019/06/20  21:14:01  BASE  7.203    34   8.53188  33   -5.7  78    -8.9  0     0     982.0    NA       0.0000   9999     7120  8140  0    
2019/06/20  21:15:01  BASE  7.85568  32   8.92584  31   -5.7  78    -8.9  0     0     982.0    NA       0.0000   9999     7120  8170  0    
2019/06/20  21:16:01  BASE  7.27356  31   8.92584  31   -5.7  78    -8.9  0     0     982.1    NA       0.0000   9999     7090  8170  0    
2019/06/20  21:17:00  BASE  6.81492  35   8.92584  31   -5.7  78    -8.9  0     0     982.1    NA       0.0000   9999     2920  7120  8200 
2019/06/20  21:18:01  BASE  7.63224  35   9.3786   31   -5.7  78    -8.9  0     0     982.1    NA       0.0000   9999     2920  7120  8200 
2019/06/20  21:19:00  BASE  7.60284  32   9.3786   31   -5.7  78    -9.0  0     0     982.1    NA       0.0000   9999     2990  7250  8170 
2019/06/20  21:20:01  BASE  7.09128  30   9.3786   31   -5.7  78    -8.9  0     0     982.1    NA       0.0000   9999     3020  7250  8100 
2019/06/20  21:21:01  BASE  6.69144  35   9.3786   31   -5.7  78    -8.9  0     0     982.2    NA       0.0000   9999     7250  8100  0    
2019/06/20  21:22:01  BASE  6.2034   46   9.3786   31   -5.7  78    -8.9  0     0     982.2    NA       0.0000   9999     7220  8140  0    
2019/06/20  21:23:00  BASE  6.3798   45   9.3786   31   -5.7  78    -9.0  0     0     982.2    NA       0.0000   9999     7280  8100  0    
2019/06/20  21:24:00  BASE  6.89724  37   9.3786   31   -5.7  78    -9.0  0     0     982.1    NA       0.0000   9999     5710  7250  8100 
2019/06/20  21:25:01  BASE  7.34412  31   9.3786   31   -5.7  78    -8.9  0     0     982.1    NA       0.0000   9999     8100  0     0    
2019/06/20  21:26:00  BASE  6.92664  32   9.3786   31   -5.7  78    -8.9  0     0     982.2    NA       0.0000   9999     7250  8070  0    
2019/06/20  21:27:00  BASE  7.056    37   9.3786   31   -5.6  78    -8.9  0     0     982.1    NA       0.0000   9999     8010  0     0    
2019/06/20  21:28:00  BASE  7.62636  37   8.77296  37   -5.6  78    -8.8  0     0     982.1    NA       0.0000   9999     8010  0     0    
2019/06/20  21:29:00  BASE  7.15008  35   8.77296  37   -5.5  78    -8.8  0     0     982.2    NA       0.0000   9999     8010  0     0    
2019/06/20  21:30:00  BASE  6.63264  37   8.77296  37   -5.5  78    -8.8  0     0     982.2    NA       0.0000   9999     7940  0     0    
2019/06/20  21:31:01  BASE  6.6738   40   8.77296  37   -5.5  78    -8.8  0     0     982.2    NA       0.0000   9999     7910  0     0    
2019/06/20  21:32:00  BASE  7.03248  44   8.77296  37   -5.5  78    -8.8  0     0     982.2    NA       0.0000   9999     7940  0     0    
2019/06/20  21:33:01  BASE  7.21476  47   8.77296  37   -5.5  78    -8.8  0     0     982.2    NA       0.0000   9999     7970  0     0    
2019/06/20  21:34:00  BASE  6.52092  47   8.77296  37   -5.5  77    -8.8  0     0     982.2    NA       0.0000   9999     8010  0     0    
2019/06/20  21:35:00  BASE  5.92704  46   8.77296  37   -5.4  77    -8.8  0     0     982.3    NA       0.0000   9999     8100  0     0    
2019/06/20  21:36:01  BASE  5.733    46   8.77296  37   -5.4  77    -8.9  0     0     982.3    NA       0.0000   9999     2490  8040  0    
2019/06/20  21:37:01  BASE  5.71536  50   8.379    34   -5.4  77    -8.8  0     0     982.3    NA       0.0000   9999     2530  5970  8040 
2019/06/20  21:38:00  BASE  6.22692  47   7.92624  41   -5.4  77    -8.8  0     0     982.3    NA       0.0000   9999     2660  5810  8070 
2019/06/20  21:39:00  BASE  6.56208  43   7.92624  41   -5.4  77    -8.9  0     0     982.3    NA       0.0000   9999     2590  5870  8040 
2019/06/20  21:40:00  BASE  6.83844  43   7.92624  41   -5.4  77    -8.9  0     0     982.3    NA       0.0000   9999     8010  0     0    
2019/06/20  21:41:01  BASE  6.87372  44   7.92624  41   -5.5  77    -8.9  0     0     982.3    NA       0.0000   9999     5870  8010  0    
2019/06/20  21:42:00  BASE  7.15008  44   8.74356  39   -5.5  77    -9.0  0     0     982.2    NA       0.0000   9999     8010  0     0    
2019/06/20  21:43:00  BASE  7.34412  46   8.74356  39   -5.6  77    -9.1  0     0     982.3    NA       0.0000   9999     5840  7940  0    
2019/06/20  21:44:00  BASE  6.71496  50   8.74356  39   -5.7  77    -9.1  0     0     982.3    NA       0.0000   9999     8040  0     0    
2019/06/20  21:45:00  BASE  6.89136  45   8.74356  39   -5.7  77    -9.1  0     0     982.2    NA       0.0000   9999     8010  0     0    
2019/06/20  21:46:00  BASE  7.66752  38   8.74356  39   -5.7  77    -9.0  0     0     982.2    NA       0.0000   9999     7940  0     0    
2019/06/20  21:47:00  BASE  7.69104  38   8.74356  39   -5.8  78    -9.0  0     0     982.2    NA       0.0000   9999     7970  0     0    
2019/06/20  21:48:00  BASE  7.29708  39   8.74356  39   -5.8  78    -9.0  0     0     982.2    NA       0.0000   9999     7840  0     0    
2019/06/20  21:49:00  BASE  6.77964  41   8.74356  39   -5.8  78    -9.0  0     0     982.3    NA       0.0000   9999     7810  0     0    
2019/06/20  21:50:00  BASE  6.30336  43   8.74356  39   -5.8  78    -9.0  0     0     982.2    NA       0.0000   9999     7740  0     0    
2019/06/20  21:51:00  BASE  6.10932  41   8.74356  39   -5.8  78    -9.0  0     0     982.2    NA       0.0000   9999     7740  0     0    
2019/06/20  21:52:00  BASE  6.9678   39   9.16692  39   -5.8  78    -9.0  0     0     982.2    NA       0.0000   9999     7810  0     0    
2019/06/20  21:53:00  BASE  7.4088   41   9.16692  39   -5.7  78    -9.0  0     0     982.2    NA       0.0000   9999     9150  0     0    
2019/06/20  21:54:01  BASE  7.37352  45   9.16692  39   -5.8  78    -9.0  0     0     982.2    NA       0.0000   9999     9060  0     0    
2019/06/20  21:55:01  BASE  7.29708  45   9.16692  39   -5.7  78    -9.0  0     0     982.2    NA       0.0000   9999     9090  0     0    
2019/06/20  21:56:00  BASE  6.53268  41   9.16692  39   -5.8  78    -9.0  0     0     982.2    NA       0.0000   9999     7870  0     0    
2019/06/20  21:57:00  BASE  6.84432  38   9.16692  39   -5.8  78    -9.0  0     0     982.2    NA       0.0000   9999     7680  0     0    
2019/06/20  21:58:00  BASE  7.37352  38   9.16692  39   -5.7  77    -9.1  0     0     982.2    NA       0.0000   9999     7680  0     0    
2019/06/20  21:59:00  BASE  7.1442   46   9.16692  39   -5.7  77    -9.0  0     0     982.3    NA       0.0000   9999     3080  7780  0    
2019/06/20  22:00:01  BASE  6.80316  47   9.16692  39   -5.7  77    -9.1  0     0     982.2    NA       0.0000   9999     3020  7870  0    
2019/06/20  22:01:00  BASE  6.9384   42   9.16692  39   -5.7  77    -9.1  0     0     982.2    NA       0.0000   9999     2850  0     0    
2019/06/20  22:02:00  BASE  6.909    41   8.86116  49   -5.8  77    -9.1  0     0     982.2    NA       0.0000   9999     2820  0     0    
2019/06/20  22:03:01  BASE  6.30924  41   8.86116  49   -5.8  77    -9.1  0     0     982.2    NA       0.0000   9999     2920  0     0    
2019/06/20  22:04:00  BASE  6.15636  43   8.25552  48   -5.8  77    -9.2  0     0     982.2    NA       0.0000   9999     2890  0     0    
2019/06/20  22:05:00  BASE  6.16812  45   7.98504  45   -5.7  77    -9.1  0     0     982.3    NA       0.0000   9999     2820  0     0    
2019/06/20  22:06:00  BASE  6.13872  44   7.98504  45   -5.7  77    -9.1  0     0     982.2    NA       0.0000   9999     2820  0     0    
2019/06/20  22:07:00  BASE  5.77416  41   7.98504  45   -5.7  77    -9.0  0     0     982.2    NA       0.0000   9999     2820  0     0    
2019/06/20  22:08:00  BASE  4.90392  44   7.59108  46   -5.6  77    -9.0  0     0     982.3    NA       0.0000   9999     2820  0     0    
2019/06/20  22:09:00  BASE  5.2038   47   7.59108  46   -5.6  77    -8.9  0     0     982.3    NA       0.0000   9999     2950  0     0    
2019/06/20  22:10:00  BASE  5.95644  43   7.77336  41   -5.5  77    -8.9  0     0     982.2    NA       0.0000   9999     3020  0     0    
2019/06/20  22:11:00  BASE  6.6444   38   7.98504  40   -5.5  77    -8.9  0     0     982.2    NA       0.0000   9999     2920  0     0    
2019/06/20  22:12:00  BASE  5.98584  34   7.98504  40   -5.6  77    -9.0  0     0     982.3    NA       0.0000   9999     3080  0     0    
2019/06/20  22:13:00  BASE  4.63932  31   7.98504  40   -5.6  77    -9.0  0     0     982.3    NA       0.0000   9999     3280  0     0    
2019/06/20  22:14:00  BASE  5.2626   31   7.98504  40   -5.6  77    -9.0  0     0     982.3    NA       0.0000   9999     3180  0     0    
2019/06/20  22:15:01  BASE  5.79768  33   7.98504  40   -5.6  77    -9.1  0     0     982.3    NA       0.0000   9999     6460  0     0    
2019/06/20  22:16:00  BASE  5.72124  40   7.98504  40   -5.6  77    -9.1  0     0     982.3    NA       0.0000   9999     6500  0     0    
2019/06/20  22:17:00  BASE  6.41508  40   7.98504  40   -5.7  77    -9.0  0     0     982.3    NA       0.0000   9999     6460  0     0    
2019/06/20  22:18:00  BASE  6.90312  30   7.98504  40   -5.7  77    -9.1  0     0     982.2    NA       0.0000   9999     2850  0     0    
2019/06/20  22:19:00  BASE  6.86196  29   7.98504  40   -5.7  77    -9.1  0     0     982.2    NA       0.0000   9999     5250  0     0    
2019/06/20  22:20:00  BASE  7.0854   31   8.22612  24   -5.8  77    -9.2  0     0     982.3    NA       0.0000   9999     5220  0     0    
2019/06/20  22:21:00  BASE  6.92076  31   8.22612  24   -5.8  77    -9.2  0     0     982.3    NA       0.0000   9999     7940  0     0    
2019/06/20  22:22:00  BASE  6.47388  30   8.22612  24   -5.8  77    -9.2  0     0     982.3    NA       0.0000   9999     5280  0     0    
2019/06/20  22:23:00  BASE  6.44448  33   8.22612  24   -5.9  77    -9.2  0     0     982.4    NA       0.0000   9999     5380  0     0    
2019/06/20  22:24:00  BASE  6.62676  38   8.22612  24   -5.9  78    -9.2  0     0     982.4    NA       0.0000   9999     2620  0     0    
2019/06/20  22:25:01  BASE  6.42096  39   8.22612  24   -5.9  78    -9.1  0     0     982.4    NA       0.0000   9999     6460  0     0    
2019/06/20  22:26:00  BASE  5.93292  28   8.22612  24   -5.8  78    -9.0  0     0     982.4    NA       0.0000   9999     2720  0     0    
2019/06/20  22:27:00  BASE  5.39196  20   8.22612  24   -5.8  79    -8.9  0     0     982.4    NA       0.0000   9999     8240  0     0    
2019/06/20  22:28:00  BASE  5.39784  25   8.22612  24   -5.8  79    -8.9  0     0     982.4    NA       0.0000   9999     3540  0     0    
2019/06/20  22:29:00  BASE  6.36216  31   8.22612  24   -5.7  79    -8.8  0     0     982.4    NA       0.0000   9999     3610  0     0    
2019/06/20  22:30:00  BASE  6.90312  33   8.07912  33   -5.7  79    -8.8  0     0     982.4    NA       0.0000   9999     3510  0     0    
2019/06/20  22:31:00  BASE  6.02112  29   8.07912  33   -5.8  79    -8.8  0     0     982.4    NA       0.0000   9999     0     0     0    
2019/06/20  22:32:00  BASE  4.86864  25   8.07912  33   -5.8  79    -8.8  0     0     982.4    NA       0.0000   9999     0     0     0    
2019/06/20  22:33:00  BASE  4.4688   27   8.07912  33   -5.8  79    -8.8  0     0     982.4    NA       0.0000   9999     7810  0     0    
2019/06/20  22:34:00  BASE  4.23948  35   8.07912  33   -5.8  79    -8.8  0     0     982.4    NA       0.0000   9999     2460  0     0    
2019/06/20  22:35:00  BASE  4.98036  37   8.07912  33   -5.7  79    -8.7  0     0     982.4    NA       0.0000   9999     1740  0     0    
2019/06/20  22:36:00  BASE  6.18576  31   8.07912  33   -5.7  79    -8.7  0     0     982.3    NA       0.0000   9999     4890  0     0    
2019/06/20  22:37:00  BASE  6.20928  34   8.07912  33   -5.6  79    -8.6  0     0     982.4    NA       0.0000   9999     5410  0     0    
2019/06/20  22:38:00  BASE  5.86824  37   8.07912  33   -5.7  79    -8.7  0     0     982.4    NA       0.0000   9999     7710  0     0    
2019/06/20  22:39:00  BASE  5.96232  33   7.59108  36   -5.7  79    -8.7  0     0     982.4    NA       0.0000   9999     7740  0     0    
2019/06/20  22:40:00  BASE  6.10932  27   6.98544  32   -5.7  79    -8.7  0     0     982.3    NA       0.0000   9999     7810  0     0    
2019/06/20  22:41:00  BASE  5.94468  26   6.98544  32   -5.7  80    -8.7  0     0     982.3    NA       0.0000   9999     7780  0     0    
2019/06/20  22:42:00  BASE  5.66832  25   6.98544  32   -5.7  80    -8.6  0     0     982.3    NA       0.0000   9999     4820  7870  0    
2019/06/20  22:43:00  BASE  5.8212   24   6.98544  32   -5.6  80    -8.5  0     0     982.3    NA       0.0000   9999     4820  7780  0    
2019/06/20  22:44:00  BASE  6.42684  24   7.44408  25   -5.5  80    -8.4  0     0     982.3    NA       0.0000   9999     4760  5940  0    
2019/06/20  22:45:00  BASE  6.37392  23   7.44408  25   -5.5  80    -8.4  0     0     982.3    NA       0.0000   9999     4630  7640  0    
2019/06/20  22:46:00  BASE  5.83884  21   7.44408  25   -5.5  80    -8.4  0     0     982.3    NA       0.0000   9999     4590  7610  0    
2019/06/20  22:47:00  BASE  6.07404  22   7.44408  25   -5.5  80    -8.4  0     0     982.3    NA       0.0000   9999     4660  7580  0    
2019/06/20  22:48:00  BASE  6.19164  24   7.44408  25   -5.5  80    -8.4  0     0     982.3    NA       0.0000   9999     4690  7580  0    
2019/06/20  22:49:00  BASE  5.92116  29   7.44408  25   -5.5  80    -8.4  0     0     982.3    NA       0.0000   9999     4690  7550  0    
2019/06/20  22:50:00  BASE  5.78004  33   7.44408  25   -5.5  80    -8.4  0     0     982.3    NA       0.0000   9999     4820  7610  0    
2019/06/20  22:51:00  BASE  5.62716  35   7.44408  25   -5.4  79    -8.4  0     0     982.3    NA       0.0000   9999     4790  7640  0    
2019/06/20  22:52:00  BASE  5.46252  37   7.44408  25   -5.4  79    -8.5  0     0     982.3    NA       0.0000   9999     4720  7640  0    
2019/06/20  22:53:00  BASE  5.05092  39   7.44408  25   -5.4  79    -8.5  0     0     982.3    NA       0.0000   9999     4690  7580  0    
2019/06/20  22:54:00  BASE  4.75104  39   7.05012  28   -5.4  79    -8.5  0     0     982.3    NA       0.0000   9999     4630  7610  0    
2019/06/20  22:55:00  BASE  4.4982   41   7.05012  28   -5.4  78    -8.6  0     0     982.3    NA       0.0000   9999     4590  7610  0    
2019/06/20  22:56:00  BASE  4.09836  48   7.05012  28   -5.4  78    -8.6  0     0     982.3    NA       0.0000   9999     4590  0     0    
2019/06/20  22:57:00  BASE  3.78084  57   6.71496  28   -5.4  78    -8.6  0     0     982.3    NA       0.0000   9999     4630  0     0    
2019/06/20  22:58:00  BASE  3.78672  71   6.47388  28   -5.3  78    -8.5  0     0     982.3    NA       0.0000   9999     5150  0     0    
2019/06/20  22:59:00  BASE  3.75144  82   6.41508  35   -5.3  79    -8.5  0     0     982.3    NA       0.0000   9999     4720  7550  0    
2019/06/20  23:00:00  BASE  3.3516   87   6.41508  35   -5.4  79    -8.4  0     0     982.3    NA       0.0000   9999     4660  7580  0    
2019/06/20  23:01:00  BASE  3.31044  89   6.07992  33   -5.4  79    -8.4  0     0     982.3    NA       0.0000   9999     4660  0     0    
2019/06/20  23:02:00  BASE  3.48096  89   5.59776  37   -5.4  80    -8.4  0     0     982.3    NA       0.0000   9999     4660  0     0    
2019/06/20  23:03:00  BASE  3.7632   90   5.59776  37   -5.5  80    -8.4  0     0     982.3    NA       0.0000   9999     5180  0     0    
2019/06/20  23:04:00  BASE  4.06308  83   4.68636  39   -5.5  80    -8.3  0     0     982.3    NA       0.0000   9999     7710  0     0    
2019/06/20  23:05:00  BASE  4.04544  81   4.59816  84   -5.5  80    -8.3  0     0     982.3    NA       0.0000   9999     7680  0     0    
2019/06/20  23:06:00  BASE  3.46332  92   4.59816  84   -5.4  81    -8.2  0     0     982.3    NA       0.0000   9999     7610  0     0    
2019/06/20  23:07:00  BASE  2.69892  115  4.59816  84   -5.4  81    -8.2  0     0     982.4    NA       0.0000   9999     7580  0     0    
2019/06/20  23:08:00  BASE  2.54604  126  4.59816  84   -5.4  81    -8.1  0     0     982.4    NA       0.0000   9999     7610  0     0    
2019/06/20  23:09:00  BASE  2.79888  124  4.59816  84   -5.3  81    -8.0  0     0     982.4    NA       0.0000   9999     7550  0     0    
2019/06/20  23:10:00  BASE  3.2928   120  4.59816  84   -5.3  81    -8.0  0     0     982.4    NA       0.0000   9999     3900  0     0    
2019/06/20  23:11:00  BASE  3.9102   114  4.59816  84   -5.3  81    -8.0  0     0     982.5    NA       0.0000   9999     7450  0     0    
2019/06/20  23:12:00  BASE  4.3806   110  4.89804  114  -5.3  81    -8.0  0     0     982.5    NA       0.0000   9999     5150  0     0    
2019/06/20  23:13:00  BASE  4.998    111  6.2622   108  -5.3  81    -8.0  0     0     982.5    NA       0.0000   9999     5050  0     0    
2019/06/20  23:14:00  BASE  5.06856  112  6.2622   108  -5.3  81    -8.0  0     0     982.5    NA       0.0000   9999     8010  0     0    
2019/06/20  23:15:00  BASE  4.66284  113  6.2622   108  -5.3  81    -8.0  0     0     982.5    NA       0.0000   9999     3410  0     0    
2019/06/20  23:16:00  BASE  4.53936  113  6.2622   108  -5.2  81    -8.0  0     0     982.6    NA       0.0000   9999     3250  0     0    
2019/06/20  23:17:00  BASE  4.31004  118  6.2622   108  -5.1  80    -8.0  0     0     982.6    NA       0.0000   9999     3150  0     0    
2019/06/20  23:18:00  BASE  4.39236  114  6.2622   108  -5.1  80    -8.0  0     0     982.5    NA       0.0000   9999     3050  0     0    
2019/06/20  23:19:00  BASE  5.07444  100  6.2622   108  -5.1  79    -8.1  0     0     982.5    NA       0.0000   -SN      9999  3020  0    
2019/06/20  23:20:00  BASE  5.68596  89   6.2622   108  -5.1  79    -8.2  0     0     982.4    NA       0.0000   -SN      9999  2890  0    
2019/06/20  23:21:00  BASE  6.04464  88   7.13832  95   -5.1  78    -8.3  0     0     982.5    NA       0.0000   -SN      9999  2820  0    
2019/06/20  23:22:00  BASE  6.05052  94   7.13832  95   -5.1  78    -8.3  0     0     982.5    NA       0.0000   -SN      9999  2790  0    
2019/06/20  23:23:00  BASE  5.37432  96   7.13832  95   -5.0  78    -8.3  0     0     982.5    NA       0.0000   -SN      9999  2920  0    
2019/06/20  23:24:00  BASE  4.90392  100  7.13832  95   -5.0  77    -8.3  0     0     982.6    NA       0.0000   -SN      9999  2850  0    
2019/06/20  23:25:00  BASE  4.53348  105  7.13832  95   -5.0  77    -8.4  0     0     982.6    NA       0.0000   -SN      9999  2820  0    
2019/06/20  23:26:00  BASE  4.79808  112  7.13832  95   -5.0  77    -8.4  0     0     982.6    NA       0.0000   -SN      9999  2620  0    
2019/06/20  23:27:00  BASE  5.03916  119  7.13832  95   -5.0  76    -8.5  0     0     982.6    NA       0.0000   -SN      9999  2620  0    
2019/06/20  23:28:00  BASE  4.26888  125  7.13832  95   -5.0  76    -8.6  0     0     982.6    NA       0.0000   -SN      9999  2720  0    
2019/06/20  23:29:00  BASE  3.234    140  7.13832  95   -5.0  75    -8.7  0     0     982.5    NA       0.0000   -SN      9999  2660  0    
2019/06/20  23:30:00  BASE  2.38728  163  7.13832  95   -4.9  74    -8.8  0     0     982.4    NA       0.0000   -SN      9999  2790  0    
2019/06/20  23:31:00  BASE  2.058    170  6.71496  99   -4.9  74    -8.9  0     0     982.4    NA       0.0000   -SN      9999  2820  0    
2019/06/20  23:32:00  BASE  1.77576  152  6.3798   117  -4.9  73    -9.1  0     0     982.4    NA       0.0000   -SN      9999  2760  0    
2019/06/20  23:33:00  BASE  1.7934   109  6.3798   117  -5.0  72    -9.2  0     0     982.4    NA       0.0000   -SN      9999  2660  0    
2019/06/20  23:34:00  BASE  3.1752   60   6.3798   117  -5.0  72    -9.3  0     0     982.4    NA       0.0000   -SN      9999  2590  0    
2019/06/20  23:35:01  BASE  4.4394   27   6.3798   117  -5.1  72    -9.4  0     0     982.3    NA       0.0000   -SN      9999  2560  0    
2019/06/20  23:36:00  BASE  4.68048  18   5.86824  124  -5.2  72    -9.4  0     0     982.3    NA       0.0000   -SN      9999  0     0    
2019/06/20  23:37:00  BASE  4.557    22   5.41548  27   -5.3  73    -9.5  0     0     982.3    NA       0.0000   -SN      9999  2620  3150 
2019/06/20  23:38:00  BASE  4.55112  28   6.07992  33   -5.4  73    -9.4  0     0     982.4    NA       0.0000   -SN      9999  3180  0    
2019/06/20  23:39:00  BASE  5.00388  29   6.07992  33   -5.5  74    -9.5  0     0     982.4    NA       0.0000   -SN      9999  3510  7350 
2019/06/20  23:40:00  BASE  4.9392   26   6.07992  33   -5.6  74    -9.4  0     0     982.3    NA       0.0000   9999     2890  7450  0    
2019/06/20  23:41:00  BASE  4.65108  26   6.07992  33   -5.7  75    -9.4  0     0     982.3    NA       0.0000   9999     3580  0     0    
2019/06/20  23:42:00  BASE  4.0866   28   6.07992  33   -5.8  75    -9.4  0     0     982.4    NA       0.0000   9999     3050  7220  0    
2019/06/20  23:43:00  BASE  3.61032  36   6.07992  33   -5.8  76    -9.4  0     0     982.4    NA       0.0000   9999     3020  8560  0    
2019/06/20  23:44:00  BASE  3.80436  47   6.07992  33   -5.8  76    -9.4  0     0     982.4    NA       0.0000   9999     7350  0     0    
2019/06/20  23:45:00  BASE  4.05132  49   6.07992  33   -5.9  76    -9.3  0     0     982.4    NA       0.0000   9999     0     0     0    
2019/06/20  23:46:00  BASE  4.0866   42   6.07992  33   -5.9  77    -9.3  0     0     982.4    NA       0.0000   9999     4040  0     0    
2019/06/20  23:47:00  BASE  3.98076  36   6.07992  33   -5.9  77    -9.3  0     0     982.4    NA       0.0000   9999     2660  0     0    
2019/06/20  23:48:00  BASE  4.19244  33   5.80944  29   -6.0  77    -9.3  0     0     982.4    NA       0.0000   9999     7190  0     0    
2019/06/20  23:49:00  BASE  4.50996  33   5.145    32   -6.0  78    -9.2  0     0     982.4    NA       0.0000   9999     7280  0     0    
2019/06/20  23:50:00  BASE  4.35708  35   5.145    32   -5.9  78    -9.2  0     0     982.4    NA       0.0000   9999     4230  0     0    
2019/06/20  23:51:00  BASE  3.78084  40   5.145    32   -5.9  78    -9.1  0     0     982.4    NA       0.0000   9999     4430  0     0    
2019/06/20  23:52:00  BASE  3.39864  41   5.145    32   -5.8  78    -9.1  0     0     982.4    NA       0.0000   9999     7050  0     0    
2019/06/20  23:53:00  BASE  3.19284  39   5.145    32   -5.8  78    -9.0  0     0     982.4    NA       0.0000   9999     2620  0     0    
2019/06/20  23:54:00  BASE  3.0576   43   5.145    32   -5.8  78    -9.0  0     0     982.4    NA       0.0000   9999     2490  0     0    
2019/06/20  23:55:00  BASE  3.1752   48   5.145    32   -5.7  78    -8.9  0     0     982.4    NA       0.0000   9999     7020  0     0    
2019/06/20  23:56:00  BASE  3.05172  47   5.145    32   -5.7  78    -8.9  0     0     982.4    NA       0.0000   9999     7020  0     0    
2019/06/20  23:57:06  BASE  2.65776  36   5.145    32   -5.7  78    -8.9  0     0     982.4    NA       0.0000   9999     3120  0     0    
2019/06/20  23:58:01  BASE  2.32848  25   5.145    32   -5.7  78    -8.9  0     0     982.4    NA       0.0000   9999     0     0     0    
2019/06/20  23:59:01  BASE  2.1462   20   4.65696  31   -5.6  78    -8.9  0     0     982.4    NA       0.0000   9999     7120  0     0